<?xml version="1.0" encoding="UTF-8" standalone="no" ?>
<gpx xmlns="http://www.topografix.com/GPX/1/1" xmlns:xsi="http://www.w3.org/2001/XMLSchema-instance" xsi:schemaLocation="http://www.topografix.com/GPX/1/1 http://www.topografix.com/GPX/1/1/gpx.xsd" version="1.1" creator="VisuGPX - https://www.visugpx.com">
  <metadata>
    <name>Entre Durance et Buech</name>
    <desc><![CDATA[Un circuit a faire en fin d'hiver . On y découvre de jolis villages blottis dans un paysage très Haute provence avec au programme trois petits cols pour la forme:
Espreaux : Long et régulier
Les Vernières : Court un peu sotenu
Col de Faye : court et soutenu]]></desc>
  </metadata>
  <trk>
    <name><![CDATA[ACTIVE LOG 004]]></name>
    <trkseg>
      <trkpt lat="44.38558" lon="5.94389">
        <ele>451.957031</ele>
        <time>2011-02-06T09:12:05Z</time>
      </trkpt>
      <trkpt lat="44.38559" lon="5.94394">
        <ele>455.802246</ele>
        <time>2011-02-06T09:12:14Z</time>
      </trkpt>
      <trkpt lat="44.38559" lon="5.94393">
        <ele>460.608765</ele>
        <time>2011-02-06T09:12:15Z</time>
      </trkpt>
      <trkpt lat="44.38559" lon="5.94394">
        <ele>463.973389</ele>
        <time>2011-02-06T09:12:16Z</time>
      </trkpt>
      <trkpt lat="44.3856" lon="5.94394">
        <ele>469.741333</ele>
        <time>2011-02-06T09:12:18Z</time>
      </trkpt>
      <trkpt lat="44.3856" lon="5.94394">
        <ele>475.509277</ele>
        <time>2011-02-06T09:12:20Z</time>
      </trkpt>
      <trkpt lat="44.3856" lon="5.94394">
        <ele>480.315918</ele>
        <time>2011-02-06T09:12:22Z</time>
      </trkpt>
      <trkpt lat="44.3856" lon="5.94394">
        <ele>483.68042</ele>
        <time>2011-02-06T09:12:23Z</time>
      </trkpt>
      <trkpt lat="44.3856" lon="5.94394">
        <ele>489.448364</ele>
        <time>2011-02-06T09:12:25Z</time>
      </trkpt>
      <trkpt lat="44.3856" lon="5.94394">
        <ele>493.293579</ele>
        <time>2011-02-06T09:12:27Z</time>
      </trkpt>
      <trkpt lat="44.3856" lon="5.94395">
        <ele>497.619629</ele>
        <time>2011-02-06T09:12:29Z</time>
      </trkpt>
      <trkpt lat="44.3856" lon="5.94395">
        <ele>502.426147</ele>
        <time>2011-02-06T09:12:31Z</time>
      </trkpt>
      <trkpt lat="44.3856" lon="5.94395">
        <ele>506.271484</ele>
        <time>2011-02-06T09:12:33Z</time>
      </trkpt>
      <trkpt lat="44.3856" lon="5.94395">
        <ele>510.59729</ele>
        <time>2011-02-06T09:12:35Z</time>
      </trkpt>
      <trkpt lat="44.3856" lon="5.94395">
        <ele>514.442627</ele>
        <time>2011-02-06T09:12:37Z</time>
      </trkpt>
      <trkpt lat="44.3856" lon="5.94395">
        <ele>518.768555</ele>
        <time>2011-02-06T09:12:40Z</time>
      </trkpt>
      <trkpt lat="44.3856" lon="5.94395">
        <ele>522.133179</ele>
        <time>2011-02-06T09:12:42Z</time>
      </trkpt>
      <trkpt lat="44.3856" lon="5.94395">
        <ele>525.978394</ele>
        <time>2011-02-06T09:12:45Z</time>
      </trkpt>
      <trkpt lat="44.3856" lon="5.94395">
        <ele>526.939819</ele>
        <time>2011-02-06T09:12:47Z</time>
      </trkpt>
      <trkpt lat="44.3856" lon="5.94395">
        <ele>530.785156</ele>
        <time>2011-02-06T09:12:50Z</time>
      </trkpt>
      <trkpt lat="44.3856" lon="5.94395">
        <ele>534.149658</ele>
        <time>2011-02-06T09:12:52Z</time>
      </trkpt>
      <trkpt lat="44.3856" lon="5.94395">
        <ele>535.110962</ele>
        <time>2011-02-06T09:12:54Z</time>
      </trkpt>
      <trkpt lat="44.38561" lon="5.94395">
        <ele>538.475708</ele>
        <time>2011-02-06T09:13:16Z</time>
      </trkpt>
      <trkpt lat="44.38561" lon="5.94395">
        <ele>541.359497</ele>
        <time>2011-02-06T09:13:20Z</time>
      </trkpt>
      <trkpt lat="44.38561" lon="5.94395">
        <ele>545.204834</ele>
        <time>2011-02-06T09:13:24Z</time>
      </trkpt>
      <trkpt lat="44.38561" lon="5.94395">
        <ele>546.16626</ele>
        <time>2011-02-06T09:13:26Z</time>
      </trkpt>
      <trkpt lat="44.38561" lon="5.94395">
        <ele>549.530762</ele>
        <time>2011-02-06T09:13:30Z</time>
      </trkpt>
      <trkpt lat="44.38561" lon="5.94395">
        <ele>552.414551</ele>
        <time>2011-02-06T09:13:39Z</time>
      </trkpt>
      <trkpt lat="44.3856" lon="5.94396">
        <ele>555.779297</ele>
        <time>2011-02-06T09:13:48Z</time>
      </trkpt>
      <trkpt lat="44.3856" lon="5.94396">
        <ele>556.740723</ele>
        <time>2011-02-06T09:13:54Z</time>
      </trkpt>
      <trkpt lat="44.3856" lon="5.94396">
        <ele>558.182861</ele>
        <time>2011-02-06T09:13:57Z</time>
      </trkpt>
      <trkpt lat="44.3856" lon="5.94396">
        <ele>557.702148</ele>
        <time>2011-02-06T09:13:59Z</time>
      </trkpt>
      <trkpt lat="44.38558" lon="5.94383">
        <ele>559.144043</ele>
        <time>2011-02-06T09:14:05Z</time>
      </trkpt>
      <trkpt lat="44.38546" lon="5.9437">
        <ele>559.624756</ele>
        <time>2011-02-06T09:14:10Z</time>
      </trkpt>
      <trkpt lat="44.38531" lon="5.94342">
        <ele>559.624756</ele>
        <time>2011-02-06T09:14:18Z</time>
      </trkpt>
      <trkpt lat="44.38521" lon="5.94336">
        <ele>560.105225</ele>
        <time>2011-02-06T09:14:21Z</time>
      </trkpt>
      <trkpt lat="44.38513" lon="5.94328">
        <ele>561.547363</ele>
        <time>2011-02-06T09:14:32Z</time>
      </trkpt>
      <trkpt lat="44.38492" lon="5.94262">
        <ele>562.028076</ele>
        <time>2011-02-06T09:14:43Z</time>
      </trkpt>
      <trkpt lat="44.38496" lon="5.94182">
        <ele>563.469971</ele>
        <time>2011-02-06T09:14:58Z</time>
      </trkpt>
      <trkpt lat="44.38501" lon="5.94139">
        <ele>561.06665</ele>
        <time>2011-02-06T09:15:05Z</time>
      </trkpt>
      <trkpt lat="44.38502" lon="5.94121">
        <ele>562.508545</ele>
        <time>2011-02-06T09:15:08Z</time>
      </trkpt>
      <trkpt lat="44.38508" lon="5.94034">
        <ele>559.624756</ele>
        <time>2011-02-06T09:15:21Z</time>
      </trkpt>
      <trkpt lat="44.38507" lon="5.94027">
        <ele>559.624756</ele>
        <time>2011-02-06T09:15:22Z</time>
      </trkpt>
      <trkpt lat="44.38504" lon="5.93989">
        <ele>560.105225</ele>
        <time>2011-02-06T09:15:27Z</time>
      </trkpt>
      <trkpt lat="44.38502" lon="5.93967">
        <ele>560.585938</ele>
        <time>2011-02-06T09:15:30Z</time>
      </trkpt>
      <trkpt lat="44.38521" lon="5.93936">
        <ele>560.105225</ele>
        <time>2011-02-06T09:15:36Z</time>
      </trkpt>
      <trkpt lat="44.38562" lon="5.93928">
        <ele>563.950439</ele>
        <time>2011-02-06T09:15:53Z</time>
      </trkpt>
      <trkpt lat="44.3857" lon="5.93927">
        <ele>565.392578</ele>
        <time>2011-02-06T09:15:56Z</time>
      </trkpt>
      <trkpt lat="44.38613" lon="5.93917">
        <ele>568.276367</ele>
        <time>2011-02-06T09:16:16Z</time>
      </trkpt>
      <trkpt lat="44.38653" lon="5.93911">
        <ele>572.121826</ele>
        <time>2011-02-06T09:16:34Z</time>
      </trkpt>
      <trkpt lat="44.38687" lon="5.93888">
        <ele>574.525146</ele>
        <time>2011-02-06T09:16:56Z</time>
      </trkpt>
      <trkpt lat="44.3869" lon="5.93883">
        <ele>575.967041</ele>
        <time>2011-02-06T09:16:58Z</time>
      </trkpt>
      <trkpt lat="44.38693" lon="5.93839">
        <ele>577.40918</ele>
        <time>2011-02-06T09:17:13Z</time>
      </trkpt>
      <trkpt lat="44.38697" lon="5.93797">
        <ele>580.292969</ele>
        <time>2011-02-06T09:17:25Z</time>
      </trkpt>
      <trkpt lat="44.38702" lon="5.93716">
        <ele>583.176758</ele>
        <time>2011-02-06T09:17:49Z</time>
      </trkpt>
      <trkpt lat="44.38704" lon="5.93674">
        <ele>584.618896</ele>
        <time>2011-02-06T09:17:59Z</time>
      </trkpt>
      <trkpt lat="44.38704" lon="5.9367">
        <ele>583.176758</ele>
        <time>2011-02-06T09:18:01Z</time>
      </trkpt>
      <trkpt lat="44.38708" lon="5.93608">
        <ele>584.618896</ele>
        <time>2011-02-06T09:18:18Z</time>
      </trkpt>
      <trkpt lat="44.38721" lon="5.93605">
        <ele>583.657471</ele>
        <time>2011-02-06T09:18:22Z</time>
      </trkpt>
      <trkpt lat="44.38726" lon="5.93609">
        <ele>581.254395</ele>
        <time>2011-02-06T09:18:24Z</time>
      </trkpt>
      <trkpt lat="44.3875" lon="5.93629">
        <ele>579.331543</ele>
        <time>2011-02-06T09:18:31Z</time>
      </trkpt>
      <trkpt lat="44.38776" lon="5.93651">
        <ele>576.928467</ele>
        <time>2011-02-06T09:18:38Z</time>
      </trkpt>
      <trkpt lat="44.38863" lon="5.93725">
        <ele>576.447754</ele>
        <time>2011-02-06T09:19:02Z</time>
      </trkpt>
      <trkpt lat="44.38919" lon="5.93772">
        <ele>576.928467</ele>
        <time>2011-02-06T09:19:21Z</time>
      </trkpt>
      <trkpt lat="44.38975" lon="5.93818">
        <ele>575.967041</ele>
        <time>2011-02-06T09:19:40Z</time>
      </trkpt>
      <trkpt lat="44.39034" lon="5.93866">
        <ele>577.40918</ele>
        <time>2011-02-06T09:20:00Z</time>
      </trkpt>
      <trkpt lat="44.39098" lon="5.9392">
        <ele>575.967041</ele>
        <time>2011-02-06T09:20:22Z</time>
      </trkpt>
      <trkpt lat="44.39186" lon="5.93995">
        <ele>575.005859</ele>
        <time>2011-02-06T09:20:52Z</time>
      </trkpt>
      <trkpt lat="44.3924" lon="5.94044">
        <ele>575.486328</ele>
        <time>2011-02-06T09:21:12Z</time>
      </trkpt>
      <trkpt lat="44.39295" lon="5.9409">
        <ele>576.447754</ele>
        <time>2011-02-06T09:21:33Z</time>
      </trkpt>
      <trkpt lat="44.39372" lon="5.9415">
        <ele>577.889648</ele>
        <time>2011-02-06T09:22:04Z</time>
      </trkpt>
      <trkpt lat="44.39418" lon="5.9419">
        <ele>576.447754</ele>
        <time>2011-02-06T09:22:22Z</time>
      </trkpt>
      <trkpt lat="44.39457" lon="5.94224">
        <ele>577.40918</ele>
        <time>2011-02-06T09:22:35Z</time>
      </trkpt>
      <trkpt lat="44.39533" lon="5.94287">
        <ele>575.486328</ele>
        <time>2011-02-06T09:23:00Z</time>
      </trkpt>
      <trkpt lat="44.39544" lon="5.94297">
        <ele>577.40918</ele>
        <time>2011-02-06T09:23:04Z</time>
      </trkpt>
      <trkpt lat="44.39583" lon="5.9433">
        <ele>575.967041</ele>
        <time>2011-02-06T09:23:17Z</time>
      </trkpt>
      <trkpt lat="44.39633" lon="5.94367">
        <ele>578.851074</ele>
        <time>2011-02-06T09:23:36Z</time>
      </trkpt>
      <trkpt lat="44.39686" lon="5.94402">
        <ele>582.215576</ele>
        <time>2011-02-06T09:23:58Z</time>
      </trkpt>
      <trkpt lat="44.39724" lon="5.94424">
        <ele>584.618896</ele>
        <time>2011-02-06T09:24:14Z</time>
      </trkpt>
      <trkpt lat="44.39764" lon="5.94448">
        <ele>587.021973</ele>
        <time>2011-02-06T09:24:31Z</time>
      </trkpt>
      <trkpt lat="44.39773" lon="5.94453">
        <ele>587.502686</ele>
        <time>2011-02-06T09:24:35Z</time>
      </trkpt>
      <trkpt lat="44.39795" lon="5.94471">
        <ele>587.983398</ele>
        <time>2011-02-06T09:24:45Z</time>
      </trkpt>
      <trkpt lat="44.39825" lon="5.94496">
        <ele>591.348145</ele>
        <time>2011-02-06T09:24:59Z</time>
      </trkpt>
      <trkpt lat="44.39874" lon="5.94544">
        <ele>592.790283</ele>
        <time>2011-02-06T09:25:24Z</time>
      </trkpt>
      <trkpt lat="44.39925" lon="5.94579">
        <ele>595.674072</ele>
        <time>2011-02-06T09:25:48Z</time>
      </trkpt>
      <trkpt lat="44.39955" lon="5.94594">
        <ele>597.59668</ele>
        <time>2011-02-06T09:26:01Z</time>
      </trkpt>
      <trkpt lat="44.40013" lon="5.9462">
        <ele>596.635498</ele>
        <time>2011-02-06T09:26:24Z</time>
      </trkpt>
      <trkpt lat="44.40021" lon="5.94624">
        <ele>598.557861</ele>
        <time>2011-02-06T09:26:27Z</time>
      </trkpt>
      <trkpt lat="44.40083" lon="5.94652">
        <ele>595.674072</ele>
        <time>2011-02-06T09:26:45Z</time>
      </trkpt>
      <trkpt lat="44.40142" lon="5.94692">
        <ele>596.635498</ele>
        <time>2011-02-06T09:27:02Z</time>
      </trkpt>
      <trkpt lat="44.40204" lon="5.94748">
        <ele>597.59668</ele>
        <time>2011-02-06T09:27:22Z</time>
      </trkpt>
      <trkpt lat="44.40251" lon="5.94811">
        <ele>597.59668</ele>
        <time>2011-02-06T09:27:39Z</time>
      </trkpt>
      <trkpt lat="44.40288" lon="5.9488">
        <ele>596.635498</ele>
        <time>2011-02-06T09:27:55Z</time>
      </trkpt>
      <trkpt lat="44.40313" lon="5.94935">
        <ele>595.193359</ele>
        <time>2011-02-06T09:28:06Z</time>
      </trkpt>
      <trkpt lat="44.40333" lon="5.94979">
        <ele>596.154785</ele>
        <time>2011-02-06T09:28:14Z</time>
      </trkpt>
      <trkpt lat="44.40348" lon="5.94988">
        <ele>593.751465</ele>
        <time>2011-02-06T09:28:18Z</time>
      </trkpt>
      <trkpt lat="44.4036" lon="5.94995">
        <ele>596.154785</ele>
        <time>2011-02-06T09:28:21Z</time>
      </trkpt>
      <trkpt lat="44.40403" lon="5.95037">
        <ele>596.635498</ele>
        <time>2011-02-06T09:28:37Z</time>
      </trkpt>
      <trkpt lat="44.40454" lon="5.95068">
        <ele>599.038574</ele>
        <time>2011-02-06T09:28:59Z</time>
      </trkpt>
      <trkpt lat="44.40488" lon="5.95083">
        <ele>602.403076</ele>
        <time>2011-02-06T09:29:15Z</time>
      </trkpt>
      <trkpt lat="44.405" lon="5.95082">
        <ele>603.845215</ele>
        <time>2011-02-06T09:29:20Z</time>
      </trkpt>
      <trkpt lat="44.40518" lon="5.95079">
        <ele>605.287354</ele>
        <time>2011-02-06T09:29:28Z</time>
      </trkpt>
      <trkpt lat="44.40534" lon="5.95076">
        <ele>605.768066</ele>
        <time>2011-02-06T09:29:35Z</time>
      </trkpt>
      <trkpt lat="44.40578" lon="5.95069">
        <ele>609.132568</ele>
        <time>2011-02-06T09:29:55Z</time>
      </trkpt>
      <trkpt lat="44.40623" lon="5.95061">
        <ele>612.016602</ele>
        <time>2011-02-06T09:30:16Z</time>
      </trkpt>
      <trkpt lat="44.40677" lon="5.95042">
        <ele>612.977783</ele>
        <time>2011-02-06T09:30:38Z</time>
      </trkpt>
      <trkpt lat="44.40748" lon="5.95035">
        <ele>612.977783</ele>
        <time>2011-02-06T09:31:00Z</time>
      </trkpt>
      <trkpt lat="44.40821" lon="5.95035">
        <ele>609.613281</ele>
        <time>2011-02-06T09:31:18Z</time>
      </trkpt>
      <trkpt lat="44.40825" lon="5.95036">
        <ele>609.613281</ele>
        <time>2011-02-06T09:31:19Z</time>
      </trkpt>
      <trkpt lat="44.40882" lon="5.95034">
        <ele>611.535889</ele>
        <time>2011-02-06T09:31:37Z</time>
      </trkpt>
      <trkpt lat="44.40918" lon="5.95011">
        <ele>614.900391</ele>
        <time>2011-02-06T09:31:53Z</time>
      </trkpt>
      <trkpt lat="44.40958" lon="5.95033">
        <ele>617.303711</ele>
        <time>2011-02-06T09:32:10Z</time>
      </trkpt>
      <trkpt lat="44.40975" lon="5.95045">
        <ele>619.226318</ele>
        <time>2011-02-06T09:32:17Z</time>
      </trkpt>
      <trkpt lat="44.41024" lon="5.95069">
        <ele>622.591064</ele>
        <time>2011-02-06T09:32:39Z</time>
      </trkpt>
      <trkpt lat="44.4106" lon="5.95081">
        <ele>625.955566</ele>
        <time>2011-02-06T09:32:56Z</time>
      </trkpt>
      <trkpt lat="44.41094" lon="5.9509">
        <ele>629.320068</ele>
        <time>2011-02-06T09:33:13Z</time>
      </trkpt>
      <trkpt lat="44.41126" lon="5.95082">
        <ele>631.723389</ele>
        <time>2011-02-06T09:33:29Z</time>
      </trkpt>
      <trkpt lat="44.41137" lon="5.95079">
        <ele>633.165283</ele>
        <time>2011-02-06T09:33:35Z</time>
      </trkpt>
      <trkpt lat="44.41171" lon="5.95071">
        <ele>636.049561</ele>
        <time>2011-02-06T09:33:53Z</time>
      </trkpt>
      <trkpt lat="44.41219" lon="5.95066">
        <ele>637.972168</ele>
        <time>2011-02-06T09:34:14Z</time>
      </trkpt>
      <trkpt lat="44.41278" lon="5.95048">
        <ele>637.972168</ele>
        <time>2011-02-06T09:34:32Z</time>
      </trkpt>
      <trkpt lat="44.41356" lon="5.95016">
        <ele>636.530273</ele>
        <time>2011-02-06T09:34:53Z</time>
      </trkpt>
      <trkpt lat="44.41405" lon="5.95013">
        <ele>633.645996</ele>
        <time>2011-02-06T09:35:04Z</time>
      </trkpt>
      <trkpt lat="44.4141" lon="5.95014">
        <ele>633.645996</ele>
        <time>2011-02-06T09:35:05Z</time>
      </trkpt>
      <trkpt lat="44.41462" lon="5.95021">
        <ele>633.165283</ele>
        <time>2011-02-06T09:35:19Z</time>
      </trkpt>
      <trkpt lat="44.41464" lon="5.95015">
        <ele>634.607422</ele>
        <time>2011-02-06T09:35:21Z</time>
      </trkpt>
      <trkpt lat="44.41482" lon="5.9495">
        <ele>635.568604</ele>
        <time>2011-02-06T09:35:40Z</time>
      </trkpt>
      <trkpt lat="44.41488" lon="5.94918">
        <ele>636.530273</ele>
        <time>2011-02-06T09:35:49Z</time>
      </trkpt>
      <trkpt lat="44.41482" lon="5.94862">
        <ele>639.414063</ele>
        <time>2011-02-06T09:36:06Z</time>
      </trkpt>
      <trkpt lat="44.4146" lon="5.94818">
        <ele>640.855957</ele>
        <time>2011-02-06T09:36:22Z</time>
      </trkpt>
      <trkpt lat="44.4149" lon="5.948">
        <ele>643.259277</ele>
        <time>2011-02-06T09:36:36Z</time>
      </trkpt>
      <trkpt lat="44.41526" lon="5.94804">
        <ele>646.143311</ele>
        <time>2011-02-06T09:36:53Z</time>
      </trkpt>
      <trkpt lat="44.41559" lon="5.94781">
        <ele>649.0271</ele>
        <time>2011-02-06T09:37:12Z</time>
      </trkpt>
      <trkpt lat="44.41597" lon="5.94754">
        <ele>652.391846</ele>
        <time>2011-02-06T09:37:36Z</time>
      </trkpt>
      <trkpt lat="44.41635" lon="5.94731">
        <ele>655.756592</ele>
        <time>2011-02-06T09:37:59Z</time>
      </trkpt>
      <trkpt lat="44.4167" lon="5.94694">
        <ele>658.640381</ele>
        <time>2011-02-06T09:38:22Z</time>
      </trkpt>
      <trkpt lat="44.41701" lon="5.9467">
        <ele>661.524414</ele>
        <time>2011-02-06T09:38:42Z</time>
      </trkpt>
      <trkpt lat="44.41714" lon="5.94638">
        <ele>664.408203</ele>
        <time>2011-02-06T09:38:58Z</time>
      </trkpt>
      <trkpt lat="44.41712" lon="5.94598">
        <ele>666.330811</ele>
        <time>2011-02-06T09:39:14Z</time>
      </trkpt>
      <trkpt lat="44.41718" lon="5.94541">
        <ele>668.734375</ele>
        <time>2011-02-06T09:39:35Z</time>
      </trkpt>
      <trkpt lat="44.4175" lon="5.94515">
        <ele>671.618164</ele>
        <time>2011-02-06T09:39:55Z</time>
      </trkpt>
      <trkpt lat="44.4178" lon="5.94515">
        <ele>674.98291</ele>
        <time>2011-02-06T09:40:11Z</time>
      </trkpt>
      <trkpt lat="44.41817" lon="5.94515">
        <ele>677.38623</ele>
        <time>2011-02-06T09:40:31Z</time>
      </trkpt>
      <trkpt lat="44.41842" lon="5.94505">
        <ele>680.750732</ele>
        <time>2011-02-06T09:40:47Z</time>
      </trkpt>
      <trkpt lat="44.41867" lon="5.94466">
        <ele>682.67334</ele>
        <time>2011-02-06T09:41:06Z</time>
      </trkpt>
      <trkpt lat="44.41892" lon="5.94473">
        <ele>684.115479</ele>
        <time>2011-02-06T09:41:19Z</time>
      </trkpt>
      <trkpt lat="44.41901" lon="5.94476">
        <ele>685.076904</ele>
        <time>2011-02-06T09:41:24Z</time>
      </trkpt>
      <trkpt lat="44.41909" lon="5.94474">
        <ele>685.557373</ele>
        <time>2011-02-06T09:41:28Z</time>
      </trkpt>
      <trkpt lat="44.4193" lon="5.94428">
        <ele>688.441406</ele>
        <time>2011-02-06T09:41:49Z</time>
      </trkpt>
      <trkpt lat="44.4194" lon="5.94378">
        <ele>690.844482</ele>
        <time>2011-02-06T09:42:09Z</time>
      </trkpt>
      <trkpt lat="44.41949" lon="5.94313">
        <ele>693.247803</ele>
        <time>2011-02-06T09:42:33Z</time>
      </trkpt>
      <trkpt lat="44.4198" lon="5.94302">
        <ele>693.728516</ele>
        <time>2011-02-06T09:42:48Z</time>
      </trkpt>
      <trkpt lat="44.42007" lon="5.94286">
        <ele>697.57373</ele>
        <time>2011-02-06T09:43:04Z</time>
      </trkpt>
      <trkpt lat="44.42033" lon="5.94247">
        <ele>700.458008</ele>
        <time>2011-02-06T09:43:25Z</time>
      </trkpt>
      <trkpt lat="44.42068" lon="5.94226">
        <ele>702.380371</ele>
        <time>2011-02-06T09:43:44Z</time>
      </trkpt>
      <trkpt lat="44.42087" lon="5.94179">
        <ele>704.783691</ele>
        <time>2011-02-06T09:44:04Z</time>
      </trkpt>
      <trkpt lat="44.42099" lon="5.94117">
        <ele>707.667725</ele>
        <time>2011-02-06T09:44:26Z</time>
      </trkpt>
      <trkpt lat="44.42107" lon="5.94056">
        <ele>708.628906</ele>
        <time>2011-02-06T09:44:45Z</time>
      </trkpt>
      <trkpt lat="44.42118" lon="5.93988">
        <ele>710.551514</ele>
        <time>2011-02-06T09:45:07Z</time>
      </trkpt>
      <trkpt lat="44.42132" lon="5.93922">
        <ele>712.474121</ele>
        <time>2011-02-06T09:45:28Z</time>
      </trkpt>
      <trkpt lat="44.42145" lon="5.9387">
        <ele>714.396729</ele>
        <time>2011-02-06T09:45:46Z</time>
      </trkpt>
      <trkpt lat="44.42164" lon="5.93806">
        <ele>716.31958</ele>
        <time>2011-02-06T09:46:08Z</time>
      </trkpt>
      <trkpt lat="44.4218" lon="5.93746">
        <ele>719.203613</ele>
        <time>2011-02-06T09:46:29Z</time>
      </trkpt>
      <trkpt lat="44.42198" lon="5.93686">
        <ele>721.126221</ele>
        <time>2011-02-06T09:46:51Z</time>
      </trkpt>
      <trkpt lat="44.42217" lon="5.93613">
        <ele>722.568115</ele>
        <time>2011-02-06T09:47:16Z</time>
      </trkpt>
      <trkpt lat="44.42216" lon="5.9355">
        <ele>723.048828</ele>
        <time>2011-02-06T09:47:35Z</time>
      </trkpt>
      <trkpt lat="44.42223" lon="5.93486">
        <ele>722.087402</ele>
        <time>2011-02-06T09:47:53Z</time>
      </trkpt>
      <trkpt lat="44.42252" lon="5.93492">
        <ele>723.529541</ele>
        <time>2011-02-06T09:48:05Z</time>
      </trkpt>
      <trkpt lat="44.42285" lon="5.93483">
        <ele>724.971436</ele>
        <time>2011-02-06T09:48:23Z</time>
      </trkpt>
      <trkpt lat="44.42309" lon="5.93428">
        <ele>724.971436</ele>
        <time>2011-02-06T09:48:42Z</time>
      </trkpt>
      <trkpt lat="44.42347" lon="5.93443">
        <ele>725.451904</ele>
        <time>2011-02-06T09:48:59Z</time>
      </trkpt>
      <trkpt lat="44.42368" lon="5.93492">
        <ele>727.855225</ele>
        <time>2011-02-06T09:49:18Z</time>
      </trkpt>
      <trkpt lat="44.42408" lon="5.93483">
        <ele>730.258545</ele>
        <time>2011-02-06T09:49:38Z</time>
      </trkpt>
      <trkpt lat="44.42431" lon="5.93472">
        <ele>732.181396</ele>
        <time>2011-02-06T09:49:51Z</time>
      </trkpt>
      <trkpt lat="44.42463" lon="5.93454">
        <ele>735.545898</ele>
        <time>2011-02-06T09:50:09Z</time>
      </trkpt>
      <trkpt lat="44.42496" lon="5.93437">
        <ele>738.429932</ele>
        <time>2011-02-06T09:50:28Z</time>
      </trkpt>
      <trkpt lat="44.42511" lon="5.934">
        <ele>741.794434</ele>
        <time>2011-02-06T09:50:47Z</time>
      </trkpt>
      <trkpt lat="44.42513" lon="5.93349">
        <ele>745.639648</ele>
        <time>2011-02-06T09:51:08Z</time>
      </trkpt>
      <trkpt lat="44.42514" lon="5.93307">
        <ele>748.043213</ele>
        <time>2011-02-06T09:51:24Z</time>
      </trkpt>
      <trkpt lat="44.42523" lon="5.93264">
        <ele>750.927002</ele>
        <time>2011-02-06T09:51:42Z</time>
      </trkpt>
      <trkpt lat="44.4253" lon="5.93217">
        <ele>754.772217</ele>
        <time>2011-02-06T09:52:03Z</time>
      </trkpt>
      <trkpt lat="44.42531" lon="5.93169">
        <ele>757.65625</ele>
        <time>2011-02-06T09:52:24Z</time>
      </trkpt>
      <trkpt lat="44.42541" lon="5.93123">
        <ele>760.540039</ele>
        <time>2011-02-06T09:52:43Z</time>
      </trkpt>
      <trkpt lat="44.42557" lon="5.93073">
        <ele>763.424072</ele>
        <time>2011-02-06T09:53:06Z</time>
      </trkpt>
      <trkpt lat="44.42573" lon="5.93023">
        <ele>767.269531</ele>
        <time>2011-02-06T09:53:28Z</time>
      </trkpt>
      <trkpt lat="44.42587" lon="5.92969">
        <ele>769.672852</ele>
        <time>2011-02-06T09:53:51Z</time>
      </trkpt>
      <trkpt lat="44.42595" lon="5.92924">
        <ele>772.556641</ele>
        <time>2011-02-06T09:54:10Z</time>
      </trkpt>
      <trkpt lat="44.42604" lon="5.92868">
        <ele>775.921143</ele>
        <time>2011-02-06T09:54:33Z</time>
      </trkpt>
      <trkpt lat="44.42614" lon="5.92806">
        <ele>778.324463</ele>
        <time>2011-02-06T09:54:58Z</time>
      </trkpt>
      <trkpt lat="44.42626" lon="5.92739">
        <ele>781.20874</ele>
        <time>2011-02-06T09:55:26Z</time>
      </trkpt>
      <trkpt lat="44.42635" lon="5.92701">
        <ele>782.169922</ele>
        <time>2011-02-06T09:55:41Z</time>
      </trkpt>
      <trkpt lat="44.42644" lon="5.92668">
        <ele>783.611816</ele>
        <time>2011-02-06T09:55:54Z</time>
      </trkpt>
      <trkpt lat="44.42664" lon="5.92626">
        <ele>785.534424</ele>
        <time>2011-02-06T09:56:13Z</time>
      </trkpt>
      <trkpt lat="44.42688" lon="5.92569">
        <ele>787.457031</ele>
        <time>2011-02-06T09:56:37Z</time>
      </trkpt>
      <trkpt lat="44.42704" lon="5.92511">
        <ele>790.821533</ele>
        <time>2011-02-06T09:57:00Z</time>
      </trkpt>
      <trkpt lat="44.42719" lon="5.92462">
        <ele>793.705566</ele>
        <time>2011-02-06T09:57:21Z</time>
      </trkpt>
      <trkpt lat="44.42739" lon="5.92424">
        <ele>797.070313</ele>
        <time>2011-02-06T09:57:40Z</time>
      </trkpt>
      <trkpt lat="44.42768" lon="5.9238">
        <ele>799.954346</ele>
        <time>2011-02-06T09:58:03Z</time>
      </trkpt>
      <trkpt lat="44.42787" lon="5.92352">
        <ele>801.876953</ele>
        <time>2011-02-06T09:58:19Z</time>
      </trkpt>
      <trkpt lat="44.42812" lon="5.92314">
        <ele>804.760742</ele>
        <time>2011-02-06T09:58:39Z</time>
      </trkpt>
      <trkpt lat="44.42822" lon="5.92301">
        <ele>805.241455</ele>
        <time>2011-02-06T09:58:46Z</time>
      </trkpt>
      <trkpt lat="44.42837" lon="5.9228">
        <ele>807.164063</ele>
        <time>2011-02-06T09:58:57Z</time>
      </trkpt>
      <trkpt lat="44.42843" lon="5.92271">
        <ele>807.164063</ele>
        <time>2011-02-06T09:59:02Z</time>
      </trkpt>
      <trkpt lat="44.42869" lon="5.9223">
        <ele>809.08667</ele>
        <time>2011-02-06T09:59:24Z</time>
      </trkpt>
      <trkpt lat="44.42907" lon="5.92188">
        <ele>811.970703</ele>
        <time>2011-02-06T09:59:49Z</time>
      </trkpt>
      <trkpt lat="44.42916" lon="5.92179">
        <ele>812.451416</ele>
        <time>2011-02-06T09:59:54Z</time>
      </trkpt>
      <trkpt lat="44.42958" lon="5.92157">
        <ele>811.009277</ele>
        <time>2011-02-06T10:00:11Z</time>
      </trkpt>
      <trkpt lat="44.42997" lon="5.92154">
        <ele>812.451416</ele>
        <time>2011-02-06T10:00:27Z</time>
      </trkpt>
      <trkpt lat="44.43029" lon="5.92147">
        <ele>814.854736</ele>
        <time>2011-02-06T10:00:43Z</time>
      </trkpt>
      <trkpt lat="44.43073" lon="5.92139">
        <ele>816.777344</ele>
        <time>2011-02-06T10:01:06Z</time>
      </trkpt>
      <trkpt lat="44.43103" lon="5.92146">
        <ele>817.738525</ele>
        <time>2011-02-06T10:01:21Z</time>
      </trkpt>
      <trkpt lat="44.43149" lon="5.9216">
        <ele>818.219238</ele>
        <time>2011-02-06T10:01:42Z</time>
      </trkpt>
      <trkpt lat="44.43188" lon="5.9214">
        <ele>819.180664</ele>
        <time>2011-02-06T10:02:00Z</time>
      </trkpt>
      <trkpt lat="44.43229" lon="5.92089">
        <ele>819.180664</ele>
        <time>2011-02-06T10:02:20Z</time>
      </trkpt>
      <trkpt lat="44.43266" lon="5.92028">
        <ele>821.103271</ele>
        <time>2011-02-06T10:02:42Z</time>
      </trkpt>
      <trkpt lat="44.43287" lon="5.91993">
        <ele>819.661377</ele>
        <time>2011-02-06T10:02:54Z</time>
      </trkpt>
      <trkpt lat="44.43329" lon="5.91942">
        <ele>821.103271</ele>
        <time>2011-02-06T10:03:13Z</time>
      </trkpt>
      <trkpt lat="44.43353" lon="5.91965">
        <ele>821.58374</ele>
        <time>2011-02-06T10:03:25Z</time>
      </trkpt>
      <trkpt lat="44.43381" lon="5.91974">
        <ele>823.506592</ele>
        <time>2011-02-06T10:03:40Z</time>
      </trkpt>
      <trkpt lat="44.4339" lon="5.91968">
        <ele>823.987061</ele>
        <time>2011-02-06T10:03:45Z</time>
      </trkpt>
      <trkpt lat="44.4343" lon="5.91946">
        <ele>826.871094</ele>
        <time>2011-02-06T10:04:08Z</time>
      </trkpt>
      <trkpt lat="44.4345" lon="5.9193">
        <ele>827.832275</ele>
        <time>2011-02-06T10:04:22Z</time>
      </trkpt>
      <trkpt lat="44.43459" lon="5.91896">
        <ele>830.23584</ele>
        <time>2011-02-06T10:04:37Z</time>
      </trkpt>
      <trkpt lat="44.43473" lon="5.91877">
        <ele>833.119629</ele>
        <time>2011-02-06T10:04:47Z</time>
      </trkpt>
      <trkpt lat="44.43475" lon="5.91875">
        <ele>833.119629</ele>
        <time>2011-02-06T10:04:48Z</time>
      </trkpt>
      <trkpt lat="44.43503" lon="5.91863">
        <ele>835.522949</ele>
        <time>2011-02-06T10:05:03Z</time>
      </trkpt>
      <trkpt lat="44.43525" lon="5.91846">
        <ele>836.484375</ele>
        <time>2011-02-06T10:05:17Z</time>
      </trkpt>
      <trkpt lat="44.43523" lon="5.91802">
        <ele>838.887695</ele>
        <time>2011-02-06T10:05:33Z</time>
      </trkpt>
      <trkpt lat="44.43542" lon="5.91796">
        <ele>839.368164</ele>
        <time>2011-02-06T10:05:44Z</time>
      </trkpt>
      <trkpt lat="44.43553" lon="5.91803">
        <ele>840.810059</ele>
        <time>2011-02-06T10:05:50Z</time>
      </trkpt>
      <trkpt lat="44.43575" lon="5.91817">
        <ele>843.694092</ele>
        <time>2011-02-06T10:06:02Z</time>
      </trkpt>
      <trkpt lat="44.43612" lon="5.91815">
        <ele>844.655518</ele>
        <time>2011-02-06T10:06:20Z</time>
      </trkpt>
      <trkpt lat="44.4364" lon="5.91806">
        <ele>846.578369</ele>
        <time>2011-02-06T10:06:35Z</time>
      </trkpt>
      <trkpt lat="44.4366" lon="5.91764">
        <ele>847.539551</ele>
        <time>2011-02-06T10:06:51Z</time>
      </trkpt>
      <trkpt lat="44.43685" lon="5.91718">
        <ele>849.462158</ele>
        <time>2011-02-06T10:07:10Z</time>
      </trkpt>
      <trkpt lat="44.43707" lon="5.91717">
        <ele>848.981445</ele>
        <time>2011-02-06T10:07:19Z</time>
      </trkpt>
      <trkpt lat="44.43711" lon="5.9173">
        <ele>849.462158</ele>
        <time>2011-02-06T10:07:23Z</time>
      </trkpt>
      <trkpt lat="44.43731" lon="5.91769">
        <ele>850.423584</ele>
        <time>2011-02-06T10:07:40Z</time>
      </trkpt>
      <trkpt lat="44.43767" lon="5.91753">
        <ele>851.865479</ele>
        <time>2011-02-06T10:07:58Z</time>
      </trkpt>
      <trkpt lat="44.43806" lon="5.91722">
        <ele>854.268799</ele>
        <time>2011-02-06T10:08:20Z</time>
      </trkpt>
      <trkpt lat="44.43816" lon="5.91713">
        <ele>855.710693</ele>
        <time>2011-02-06T10:08:26Z</time>
      </trkpt>
      <trkpt lat="44.43831" lon="5.917">
        <ele>856.671875</ele>
        <time>2011-02-06T10:08:36Z</time>
      </trkpt>
      <trkpt lat="44.43867" lon="5.91666">
        <ele>859.075195</ele>
        <time>2011-02-06T10:08:59Z</time>
      </trkpt>
      <trkpt lat="44.43893" lon="5.91641">
        <ele>861.47876</ele>
        <time>2011-02-06T10:09:16Z</time>
      </trkpt>
      <trkpt lat="44.43921" lon="5.91606">
        <ele>864.843262</ele>
        <time>2011-02-06T10:09:36Z</time>
      </trkpt>
      <trkpt lat="44.43944" lon="5.9156">
        <ele>866.765869</ele>
        <time>2011-02-06T10:09:58Z</time>
      </trkpt>
      <trkpt lat="44.43964" lon="5.91518">
        <ele>868.688477</ele>
        <time>2011-02-06T10:10:18Z</time>
      </trkpt>
      <trkpt lat="44.43974" lon="5.91498">
        <ele>869.169189</ele>
        <time>2011-02-06T10:10:36Z</time>
      </trkpt>
      <trkpt lat="44.43974" lon="5.91498">
        <ele>869.169189</ele>
        <time>2011-02-06T10:11:11Z</time>
      </trkpt>
      <trkpt lat="44.43974" lon="5.91498">
        <ele>869.649902</ele>
        <time>2011-02-06T10:13:06Z</time>
      </trkpt>
      <trkpt lat="44.43974" lon="5.91498">
        <ele>870.130371</ele>
        <time>2011-02-06T10:13:34Z</time>
      </trkpt>
      <trkpt lat="44.43974" lon="5.91498">
        <ele>870.130371</ele>
        <time>2011-02-06T10:14:03Z</time>
      </trkpt>
      <trkpt lat="44.43981" lon="5.91482">
        <ele>869.649902</ele>
        <time>2011-02-06T10:15:04Z</time>
      </trkpt>
      <trkpt lat="44.44002" lon="5.91448">
        <ele>871.091797</ele>
        <time>2011-02-06T10:15:20Z</time>
      </trkpt>
      <trkpt lat="44.44043" lon="5.91409">
        <ele>873.975586</ele>
        <time>2011-02-06T10:15:45Z</time>
      </trkpt>
      <trkpt lat="44.44067" lon="5.91361">
        <ele>876.37915</ele>
        <time>2011-02-06T10:16:05Z</time>
      </trkpt>
      <trkpt lat="44.441" lon="5.91346">
        <ele>876.859863</ele>
        <time>2011-02-06T10:16:20Z</time>
      </trkpt>
      <trkpt lat="44.44149" lon="5.91347">
        <ele>879.743652</ele>
        <time>2011-02-06T10:16:42Z</time>
      </trkpt>
      <trkpt lat="44.44194" lon="5.91354">
        <ele>881.66626</ele>
        <time>2011-02-06T10:17:02Z</time>
      </trkpt>
      <trkpt lat="44.44248" lon="5.91369">
        <ele>884.550293</ele>
        <time>2011-02-06T10:17:28Z</time>
      </trkpt>
      <trkpt lat="44.44286" lon="5.91382">
        <ele>887.434082</ele>
        <time>2011-02-06T10:17:48Z</time>
      </trkpt>
      <trkpt lat="44.44329" lon="5.91398">
        <ele>890.798584</ele>
        <time>2011-02-06T10:18:11Z</time>
      </trkpt>
      <trkpt lat="44.44376" lon="5.91413">
        <ele>892.72168</ele>
        <time>2011-02-06T10:18:35Z</time>
      </trkpt>
      <trkpt lat="44.44422" lon="5.91426">
        <ele>895.605469</ele>
        <time>2011-02-06T10:18:58Z</time>
      </trkpt>
      <trkpt lat="44.44462" lon="5.91418">
        <ele>897.528076</ele>
        <time>2011-02-06T10:19:17Z</time>
      </trkpt>
      <trkpt lat="44.44502" lon="5.91404">
        <ele>899.931396</ele>
        <time>2011-02-06T10:19:38Z</time>
      </trkpt>
      <trkpt lat="44.44543" lon="5.9139">
        <ele>902.815186</ele>
        <time>2011-02-06T10:19:58Z</time>
      </trkpt>
      <trkpt lat="44.44588" lon="5.91374">
        <ele>905.218506</ele>
        <time>2011-02-06T10:20:20Z</time>
      </trkpt>
      <trkpt lat="44.44624" lon="5.9136">
        <ele>908.583252</ele>
        <time>2011-02-06T10:20:40Z</time>
      </trkpt>
      <trkpt lat="44.44666" lon="5.91343">
        <ele>910.986572</ele>
        <time>2011-02-06T10:21:02Z</time>
      </trkpt>
      <trkpt lat="44.44704" lon="5.91301">
        <ele>914.351074</ele>
        <time>2011-02-06T10:21:27Z</time>
      </trkpt>
      <trkpt lat="44.44725" lon="5.91254">
        <ele>917.235107</ele>
        <time>2011-02-06T10:21:48Z</time>
      </trkpt>
      <trkpt lat="44.44746" lon="5.91194">
        <ele>920.118896</ele>
        <time>2011-02-06T10:22:13Z</time>
      </trkpt>
      <trkpt lat="44.44764" lon="5.91144">
        <ele>923.483643</ele>
        <time>2011-02-06T10:22:34Z</time>
      </trkpt>
      <trkpt lat="44.44784" lon="5.9109">
        <ele>926.848389</ele>
        <time>2011-02-06T10:22:57Z</time>
      </trkpt>
      <trkpt lat="44.44797" lon="5.91054">
        <ele>929.251465</ele>
        <time>2011-02-06T10:23:12Z</time>
      </trkpt>
      <trkpt lat="44.44801" lon="5.91042">
        <ele>929.732178</ele>
        <time>2011-02-06T10:23:17Z</time>
      </trkpt>
      <trkpt lat="44.44804" lon="5.91034">
        <ele>930.693604</ele>
        <time>2011-02-06T10:23:21Z</time>
      </trkpt>
      <trkpt lat="44.44824" lon="5.90986">
        <ele>933.577393</ele>
        <time>2011-02-06T10:23:42Z</time>
      </trkpt>
      <trkpt lat="44.44843" lon="5.9094">
        <ele>936.941895</ele>
        <time>2011-02-06T10:24:03Z</time>
      </trkpt>
      <trkpt lat="44.44839" lon="5.9089">
        <ele>939.345215</ele>
        <time>2011-02-06T10:24:21Z</time>
      </trkpt>
      <trkpt lat="44.44825" lon="5.90817">
        <ele>941.268066</ele>
        <time>2011-02-06T10:24:46Z</time>
      </trkpt>
      <trkpt lat="44.44792" lon="5.9077">
        <ele>942.229492</ele>
        <time>2011-02-06T10:25:06Z</time>
      </trkpt>
      <trkpt lat="44.44797" lon="5.90712">
        <ele>941.748779</ele>
        <time>2011-02-06T10:25:21Z</time>
      </trkpt>
      <trkpt lat="44.44827" lon="5.90721">
        <ele>942.229492</ele>
        <time>2011-02-06T10:25:30Z</time>
      </trkpt>
      <trkpt lat="44.44859" lon="5.90737">
        <ele>945.593994</ele>
        <time>2011-02-06T10:25:48Z</time>
      </trkpt>
      <trkpt lat="44.44902" lon="5.90728">
        <ele>947.516602</ele>
        <time>2011-02-06T10:26:11Z</time>
      </trkpt>
      <trkpt lat="44.44943" lon="5.90663">
        <ele>946.55542</ele>
        <time>2011-02-06T10:26:30Z</time>
      </trkpt>
      <trkpt lat="44.44985" lon="5.90598">
        <ele>947.516602</ele>
        <time>2011-02-06T10:26:48Z</time>
      </trkpt>
      <trkpt lat="44.45007" lon="5.90562">
        <ele>950.881104</ele>
        <time>2011-02-06T10:27:03Z</time>
      </trkpt>
      <trkpt lat="44.45037" lon="5.90518">
        <ele>953.765137</ele>
        <time>2011-02-06T10:27:26Z</time>
      </trkpt>
      <trkpt lat="44.45065" lon="5.90497">
        <ele>955.207031</ele>
        <time>2011-02-06T10:27:43Z</time>
      </trkpt>
      <trkpt lat="44.451" lon="5.90481">
        <ele>959.05249</ele>
        <time>2011-02-06T10:28:03Z</time>
      </trkpt>
      <trkpt lat="44.4513" lon="5.90455">
        <ele>961.455811</ele>
        <time>2011-02-06T10:28:23Z</time>
      </trkpt>
      <trkpt lat="44.45155" lon="5.90411">
        <ele>963.858887</ele>
        <time>2011-02-06T10:28:44Z</time>
      </trkpt>
      <trkpt lat="44.45171" lon="5.90374">
        <ele>966.262207</ele>
        <time>2011-02-06T10:28:59Z</time>
      </trkpt>
      <trkpt lat="44.45188" lon="5.90336">
        <ele>969.14624</ele>
        <time>2011-02-06T10:29:16Z</time>
      </trkpt>
      <trkpt lat="44.45223" lon="5.90303">
        <ele>969.14624</ele>
        <time>2011-02-06T10:29:36Z</time>
      </trkpt>
      <trkpt lat="44.45256" lon="5.90301">
        <ele>971.549316</ele>
        <time>2011-02-06T10:29:52Z</time>
      </trkpt>
      <trkpt lat="44.45302" lon="5.90296">
        <ele>972.991699</ele>
        <time>2011-02-06T10:30:14Z</time>
      </trkpt>
      <trkpt lat="44.4534" lon="5.90289">
        <ele>974.914307</ele>
        <time>2011-02-06T10:30:34Z</time>
      </trkpt>
      <trkpt lat="44.45362" lon="5.90275">
        <ele>976.836914</ele>
        <time>2011-02-06T10:30:56Z</time>
      </trkpt>
      <trkpt lat="44.45379" lon="5.90264">
        <ele>978.759521</ele>
        <time>2011-02-06T10:30:59Z</time>
      </trkpt>
      <trkpt lat="44.45379" lon="5.90264">
        <ele>976.836914</ele>
        <time>2011-02-06T10:31:01Z</time>
      </trkpt>
      <trkpt lat="44.45379" lon="5.90264">
        <ele>978.759521</ele>
        <time>2011-02-06T10:31:03Z</time>
      </trkpt>
      <trkpt lat="44.45403" lon="5.90247">
        <ele>981.643311</ele>
        <time>2011-02-06T10:31:18Z</time>
      </trkpt>
      <trkpt lat="44.45417" lon="5.90233">
        <ele>982.604736</ele>
        <time>2011-02-06T10:31:31Z</time>
      </trkpt>
      <trkpt lat="44.45438" lon="5.90216">
        <ele>985.969238</ele>
        <time>2011-02-06T10:31:52Z</time>
      </trkpt>
      <trkpt lat="44.45458" lon="5.90176">
        <ele>988.372803</ele>
        <time>2011-02-06T10:32:11Z</time>
      </trkpt>
      <trkpt lat="44.45474" lon="5.90128">
        <ele>991.256592</ele>
        <time>2011-02-06T10:32:32Z</time>
      </trkpt>
      <trkpt lat="44.45489" lon="5.90082">
        <ele>994.140625</ele>
        <time>2011-02-06T10:32:52Z</time>
      </trkpt>
      <trkpt lat="44.45506" lon="5.90023">
        <ele>996.543945</ele>
        <time>2011-02-06T10:33:15Z</time>
      </trkpt>
      <trkpt lat="44.45518" lon="5.8997">
        <ele>998.947021</ele>
        <time>2011-02-06T10:33:37Z</time>
      </trkpt>
      <trkpt lat="44.45516" lon="5.89916">
        <ele>1000.38916</ele>
        <time>2011-02-06T10:33:56Z</time>
      </trkpt>
      <trkpt lat="44.45498" lon="5.89845">
        <ele>1003.753662</ele>
        <time>2011-02-06T10:34:21Z</time>
      </trkpt>
      <trkpt lat="44.4552" lon="5.89811">
        <ele>1003.753662</ele>
        <time>2011-02-06T10:34:34Z</time>
      </trkpt>
      <trkpt lat="44.45561" lon="5.89797">
        <ele>1006.156982</ele>
        <time>2011-02-06T10:34:52Z</time>
      </trkpt>
      <trkpt lat="44.45578" lon="5.89769">
        <ele>1008.079834</ele>
        <time>2011-02-06T10:35:05Z</time>
      </trkpt>
      <trkpt lat="44.45598" lon="5.89781">
        <ele>1009.521729</ele>
        <time>2011-02-06T10:35:17Z</time>
      </trkpt>
      <trkpt lat="44.45619" lon="5.89778">
        <ele>1011.925049</ele>
        <time>2011-02-06T10:35:30Z</time>
      </trkpt>
      <trkpt lat="44.45645" lon="5.89759">
        <ele>1013.847412</ele>
        <time>2011-02-06T10:35:45Z</time>
      </trkpt>
      <trkpt lat="44.45669" lon="5.8974">
        <ele>1016.731445</ele>
        <time>2011-02-06T10:36:03Z</time>
      </trkpt>
      <trkpt lat="44.45701" lon="5.89734">
        <ele>1018.17334</ele>
        <time>2011-02-06T10:36:20Z</time>
      </trkpt>
      <trkpt lat="44.45708" lon="5.89727">
        <ele>1019.134766</ele>
        <time>2011-02-06T10:36:25Z</time>
      </trkpt>
      <trkpt lat="44.45729" lon="5.89695">
        <ele>1021.538086</ele>
        <time>2011-02-06T10:36:43Z</time>
      </trkpt>
      <trkpt lat="44.45756" lon="5.89669">
        <ele>1024.422119</ele>
        <time>2011-02-06T10:37:01Z</time>
      </trkpt>
      <trkpt lat="44.45761" lon="5.89665">
        <ele>1024.902832</ele>
        <time>2011-02-06T10:37:04Z</time>
      </trkpt>
      <trkpt lat="44.4577" lon="5.89669">
        <ele>1025.383301</ele>
        <time>2011-02-06T10:37:09Z</time>
      </trkpt>
      <trkpt lat="44.45801" lon="5.89668">
        <ele>1027.786621</ele>
        <time>2011-02-06T10:37:25Z</time>
      </trkpt>
      <trkpt lat="44.45842" lon="5.8967">
        <ele>1030.670654</ele>
        <time>2011-02-06T10:37:48Z</time>
      </trkpt>
      <trkpt lat="44.45876" lon="5.89655">
        <ele>1033.07373</ele>
        <time>2011-02-06T10:38:09Z</time>
      </trkpt>
      <trkpt lat="44.45898" lon="5.89605">
        <ele>1035.957764</ele>
        <time>2011-02-06T10:38:33Z</time>
      </trkpt>
      <trkpt lat="44.45905" lon="5.89555">
        <ele>1038.842041</ele>
        <time>2011-02-06T10:38:53Z</time>
      </trkpt>
      <trkpt lat="44.45914" lon="5.89502">
        <ele>1041.245117</ele>
        <time>2011-02-06T10:39:14Z</time>
      </trkpt>
      <trkpt lat="44.45926" lon="5.89443">
        <ele>1043.648438</ele>
        <time>2011-02-06T10:39:37Z</time>
      </trkpt>
      <trkpt lat="44.45939" lon="5.89392">
        <ele>1046.532471</ele>
        <time>2011-02-06T10:39:58Z</time>
      </trkpt>
      <trkpt lat="44.45946" lon="5.89345">
        <ele>1048.935547</ele>
        <time>2011-02-06T10:40:17Z</time>
      </trkpt>
      <trkpt lat="44.4596" lon="5.89285">
        <ele>1052.300293</ele>
        <time>2011-02-06T10:40:41Z</time>
      </trkpt>
      <trkpt lat="44.45977" lon="5.89231">
        <ele>1055.184326</ele>
        <time>2011-02-06T10:41:04Z</time>
      </trkpt>
      <trkpt lat="44.45998" lon="5.89151">
        <ele>1058.068359</ele>
        <time>2011-02-06T10:41:38Z</time>
      </trkpt>
      <trkpt lat="44.46007" lon="5.89081">
        <ele>1059.510254</ele>
        <time>2011-02-06T10:42:05Z</time>
      </trkpt>
      <trkpt lat="44.46011" lon="5.89013">
        <ele>1062.874756</ele>
        <time>2011-02-06T10:42:32Z</time>
      </trkpt>
      <trkpt lat="44.46018" lon="5.89007">
        <ele>1062.874756</ele>
        <time>2011-02-06T10:42:36Z</time>
      </trkpt>
      <trkpt lat="44.46049" lon="5.89017">
        <ele>1065.278076</ele>
        <time>2011-02-06T10:42:53Z</time>
      </trkpt>
      <trkpt lat="44.4608" lon="5.89031">
        <ele>1067.200684</ele>
        <time>2011-02-06T10:43:10Z</time>
      </trkpt>
      <trkpt lat="44.46113" lon="5.89017">
        <ele>1069.604248</ele>
        <time>2011-02-06T10:43:29Z</time>
      </trkpt>
      <trkpt lat="44.46142" lon="5.89004">
        <ele>1071.526611</ele>
        <time>2011-02-06T10:43:45Z</time>
      </trkpt>
      <trkpt lat="44.46171" lon="5.88985">
        <ele>1073.929932</ele>
        <time>2011-02-06T10:44:04Z</time>
      </trkpt>
      <trkpt lat="44.46196" lon="5.88985">
        <ele>1076.333252</ele>
        <time>2011-02-06T10:44:18Z</time>
      </trkpt>
      <trkpt lat="44.46201" lon="5.88998">
        <ele>1076.813965</ele>
        <time>2011-02-06T10:44:23Z</time>
      </trkpt>
      <trkpt lat="44.46224" lon="5.89027">
        <ele>1079.217041</ele>
        <time>2011-02-06T10:44:41Z</time>
      </trkpt>
      <trkpt lat="44.46233" lon="5.89018">
        <ele>1080.178467</ele>
        <time>2011-02-06T10:44:48Z</time>
      </trkpt>
      <trkpt lat="44.46257" lon="5.88987">
        <ele>1082.581787</ele>
        <time>2011-02-06T10:45:06Z</time>
      </trkpt>
      <trkpt lat="44.46279" lon="5.88969">
        <ele>1084.504639</ele>
        <time>2011-02-06T10:45:20Z</time>
      </trkpt>
      <trkpt lat="44.46292" lon="5.88991">
        <ele>1085.946533</ele>
        <time>2011-02-06T10:45:32Z</time>
      </trkpt>
      <trkpt lat="44.46291" lon="5.88996">
        <ele>1086.427246</ele>
        <time>2011-02-06T10:45:34Z</time>
      </trkpt>
      <trkpt lat="44.46302" lon="5.89002">
        <ele>1087.388428</ele>
        <time>2011-02-06T10:45:40Z</time>
      </trkpt>
      <trkpt lat="44.46334" lon="5.89006">
        <ele>1090.272461</ele>
        <time>2011-02-06T10:45:58Z</time>
      </trkpt>
      <trkpt lat="44.46369" lon="5.89013">
        <ele>1092.195068</ele>
        <time>2011-02-06T10:46:17Z</time>
      </trkpt>
      <trkpt lat="44.46399" lon="5.88997">
        <ele>1093.636963</ele>
        <time>2011-02-06T10:46:35Z</time>
      </trkpt>
      <trkpt lat="44.46398" lon="5.88935">
        <ele>1096.040283</ele>
        <time>2011-02-06T10:46:59Z</time>
      </trkpt>
      <trkpt lat="44.46384" lon="5.88896">
        <ele>1097.482178</ele>
        <time>2011-02-06T10:47:16Z</time>
      </trkpt>
      <trkpt lat="44.46387" lon="5.88885">
        <ele>1098.443359</ele>
        <time>2011-02-06T10:47:21Z</time>
      </trkpt>
      <trkpt lat="44.4642" lon="5.88871">
        <ele>1099.885498</ele>
        <time>2011-02-06T10:47:40Z</time>
      </trkpt>
      <trkpt lat="44.46426" lon="5.88867">
        <ele>1101.327637</ele>
        <time>2011-02-06T10:47:43Z</time>
      </trkpt>
      <trkpt lat="44.46441" lon="5.88861">
        <ele>1101.327637</ele>
        <time>2011-02-06T10:47:51Z</time>
      </trkpt>
      <trkpt lat="44.46448" lon="5.8885">
        <ele>1102.769531</ele>
        <time>2011-02-06T10:47:56Z</time>
      </trkpt>
      <trkpt lat="44.46452" lon="5.88779">
        <ele>1104.692139</ele>
        <time>2011-02-06T10:48:23Z</time>
      </trkpt>
      <trkpt lat="44.46446" lon="5.88724">
        <ele>1106.614746</ele>
        <time>2011-02-06T10:48:45Z</time>
      </trkpt>
      <trkpt lat="44.46444" lon="5.88708">
        <ele>1108.056885</ele>
        <time>2011-02-06T10:48:52Z</time>
      </trkpt>
      <trkpt lat="44.46458" lon="5.88675">
        <ele>1108.537354</ele>
        <time>2011-02-06T10:49:08Z</time>
      </trkpt>
      <trkpt lat="44.46467" lon="5.88625">
        <ele>1111.421387</ele>
        <time>2011-02-06T10:49:27Z</time>
      </trkpt>
      <trkpt lat="44.46481" lon="5.88589">
        <ele>1113.343994</ele>
        <time>2011-02-06T10:49:43Z</time>
      </trkpt>
      <trkpt lat="44.46518" lon="5.88579">
        <ele>1114.785889</ele>
        <time>2011-02-06T10:50:03Z</time>
      </trkpt>
      <trkpt lat="44.4656" lon="5.88581">
        <ele>1117.669922</ele>
        <time>2011-02-06T10:50:24Z</time>
      </trkpt>
      <trkpt lat="44.46566" lon="5.88549">
        <ele>1119.592773</ele>
        <time>2011-02-06T10:50:38Z</time>
      </trkpt>
      <trkpt lat="44.46553" lon="5.88495">
        <ele>1121.99585</ele>
        <time>2011-02-06T10:51:00Z</time>
      </trkpt>
      <trkpt lat="44.4653" lon="5.88432">
        <ele>1125.360352</ele>
        <time>2011-02-06T10:51:27Z</time>
      </trkpt>
      <trkpt lat="44.46551" lon="5.88417">
        <ele>1126.321777</ele>
        <time>2011-02-06T10:51:41Z</time>
      </trkpt>
      <trkpt lat="44.46557" lon="5.88418">
        <ele>1126.80249</ele>
        <time>2011-02-06T10:51:44Z</time>
      </trkpt>
      <trkpt lat="44.46581" lon="5.88404">
        <ele>1129.205566</ele>
        <time>2011-02-06T10:51:59Z</time>
      </trkpt>
      <trkpt lat="44.46584" lon="5.88359">
        <ele>1131.128418</ele>
        <time>2011-02-06T10:52:17Z</time>
      </trkpt>
      <trkpt lat="44.466" lon="5.88309">
        <ele>1133.051025</ele>
        <time>2011-02-06T10:52:38Z</time>
      </trkpt>
      <trkpt lat="44.46621" lon="5.88283">
        <ele>1134.973877</ele>
        <time>2011-02-06T10:52:55Z</time>
      </trkpt>
      <trkpt lat="44.46648" lon="5.88284">
        <ele>1136.89624</ele>
        <time>2011-02-06T10:53:10Z</time>
      </trkpt>
      <trkpt lat="44.46673" lon="5.88324">
        <ele>1138.819092</ele>
        <time>2011-02-06T10:53:29Z</time>
      </trkpt>
      <trkpt lat="44.46698" lon="5.88365">
        <ele>1140.741455</ele>
        <time>2011-02-06T10:53:49Z</time>
      </trkpt>
      <trkpt lat="44.46731" lon="5.88395">
        <ele>1143.625488</ele>
        <time>2011-02-06T10:54:11Z</time>
      </trkpt>
      <trkpt lat="44.46749" lon="5.88402">
        <ele>1144.106201</ele>
        <time>2011-02-06T10:54:20Z</time>
      </trkpt>
      <trkpt lat="44.46788" lon="5.88444">
        <ele>1144.58667</ele>
        <time>2011-02-06T10:54:40Z</time>
      </trkpt>
      <trkpt lat="44.46807" lon="5.88491">
        <ele>1145.067383</ele>
        <time>2011-02-06T10:54:54Z</time>
      </trkpt>
      <trkpt lat="44.46807" lon="5.88553">
        <ele>1145.067383</ele>
        <time>2011-02-06T10:55:10Z</time>
      </trkpt>
      <trkpt lat="44.4681" lon="5.88583">
        <ele>1145.548096</ele>
        <time>2011-02-06T10:55:18Z</time>
      </trkpt>
      <trkpt lat="44.4682" lon="5.88581">
        <ele>1146.509521</ele>
        <time>2011-02-06T10:55:23Z</time>
      </trkpt>
      <trkpt lat="44.4686" lon="5.88567">
        <ele>1146.98999</ele>
        <time>2011-02-06T10:55:38Z</time>
      </trkpt>
      <trkpt lat="44.46902" lon="5.88568">
        <ele>1146.98999</ele>
        <time>2011-02-06T10:55:52Z</time>
      </trkpt>
      <trkpt lat="44.46931" lon="5.88621">
        <ele>1147.470703</ele>
        <time>2011-02-06T10:56:07Z</time>
      </trkpt>
      <trkpt lat="44.46972" lon="5.88638">
        <ele>1147.951416</ele>
        <time>2011-02-06T10:56:20Z</time>
      </trkpt>
      <trkpt lat="44.47019" lon="5.88607">
        <ele>1148.912842</ele>
        <time>2011-02-06T10:56:35Z</time>
      </trkpt>
      <trkpt lat="44.47058" lon="5.88563">
        <ele>1150.35498</ele>
        <time>2011-02-06T10:56:50Z</time>
      </trkpt>
      <trkpt lat="44.47073" lon="5.88579">
        <ele>1149.874268</ele>
        <time>2011-02-06T10:56:56Z</time>
      </trkpt>
      <trkpt lat="44.47095" lon="5.88603">
        <ele>1150.35498</ele>
        <time>2011-02-06T10:57:06Z</time>
      </trkpt>
      <trkpt lat="44.47104" lon="5.88603">
        <ele>1150.35498</ele>
        <time>2011-02-06T10:57:09Z</time>
      </trkpt>
      <trkpt lat="44.47112" lon="5.88635">
        <ele>1150.835449</ele>
        <time>2011-02-06T10:57:18Z</time>
      </trkpt>
      <trkpt lat="44.47121" lon="5.88673">
        <ele>1150.835449</ele>
        <time>2011-02-06T10:57:29Z</time>
      </trkpt>
      <trkpt lat="44.4715" lon="5.88657">
        <ele>1152.277344</ele>
        <time>2011-02-06T10:57:40Z</time>
      </trkpt>
      <trkpt lat="44.47153" lon="5.88656">
        <ele>1152.277344</ele>
        <time>2011-02-06T10:57:41Z</time>
      </trkpt>
      <trkpt lat="44.47168" lon="5.88661">
        <ele>1151.796875</ele>
        <time>2011-02-06T10:57:45Z</time>
      </trkpt>
      <trkpt lat="44.47209" lon="5.88672">
        <ele>1154.200195</ele>
        <time>2011-02-06T10:58:01Z</time>
      </trkpt>
      <trkpt lat="44.47248" lon="5.88627">
        <ele>1155.161377</ele>
        <time>2011-02-06T10:58:17Z</time>
      </trkpt>
      <trkpt lat="44.47268" lon="5.8862">
        <ele>1155.64209</ele>
        <time>2011-02-06T10:58:24Z</time>
      </trkpt>
      <trkpt lat="44.47273" lon="5.88651">
        <ele>1155.161377</ele>
        <time>2011-02-06T10:58:30Z</time>
      </trkpt>
      <trkpt lat="44.47273" lon="5.88724">
        <ele>1155.64209</ele>
        <time>2011-02-06T10:58:45Z</time>
      </trkpt>
      <trkpt lat="44.47325" lon="5.88763">
        <ele>1155.64209</ele>
        <time>2011-02-06T10:59:01Z</time>
      </trkpt>
      <trkpt lat="44.47321" lon="5.88786">
        <ele>1155.64209</ele>
        <time>2011-02-06T10:59:06Z</time>
      </trkpt>
      <trkpt lat="44.47318" lon="5.88825">
        <ele>1156.603271</ele>
        <time>2011-02-06T10:59:16Z</time>
      </trkpt>
      <trkpt lat="44.47358" lon="5.88859">
        <ele>1157.564697</ele>
        <time>2011-02-06T10:59:34Z</time>
      </trkpt>
      <trkpt lat="44.47377" lon="5.88857">
        <ele>1157.564697</ele>
        <time>2011-02-06T10:59:39Z</time>
      </trkpt>
      <trkpt lat="44.47394" lon="5.88867">
        <ele>1157.083984</ele>
        <time>2011-02-06T10:59:44Z</time>
      </trkpt>
      <trkpt lat="44.47398" lon="5.8887">
        <ele>1157.564697</ele>
        <time>2011-02-06T10:59:46Z</time>
      </trkpt>
      <trkpt lat="44.47399" lon="5.8887">
        <ele>1157.083984</ele>
        <time>2011-02-06T11:00:05Z</time>
      </trkpt>
      <trkpt lat="44.47399" lon="5.8887">
        <ele>1159.006592</ele>
        <time>2011-02-06T11:00:16Z</time>
      </trkpt>
      <trkpt lat="44.47399" lon="5.8887">
        <ele>1157.564697</ele>
        <time>2011-02-06T11:00:18Z</time>
      </trkpt>
      <trkpt lat="44.47399" lon="5.8887">
        <ele>1157.564697</ele>
        <time>2011-02-06T11:01:52Z</time>
      </trkpt>
      <trkpt lat="44.47399" lon="5.8887">
        <ele>1158.525879</ele>
        <time>2011-02-06T11:04:05Z</time>
      </trkpt>
      <trkpt lat="44.47399" lon="5.8887">
        <ele>1158.525879</ele>
        <time>2011-02-06T11:04:37Z</time>
      </trkpt>
      <trkpt lat="44.47408" lon="5.88871">
        <ele>1157.564697</ele>
        <time>2011-02-06T11:04:42Z</time>
      </trkpt>
      <trkpt lat="44.47453" lon="5.88889">
        <ele>1157.083984</ele>
        <time>2011-02-06T11:04:56Z</time>
      </trkpt>
      <trkpt lat="44.47457" lon="5.88889">
        <ele>1157.083984</ele>
        <time>2011-02-06T11:04:57Z</time>
      </trkpt>
      <trkpt lat="44.4749" lon="5.889">
        <ele>1155.64209</ele>
        <time>2011-02-06T11:05:05Z</time>
      </trkpt>
      <trkpt lat="44.47504" lon="5.88918">
        <ele>1154.680664</ele>
        <time>2011-02-06T11:05:09Z</time>
      </trkpt>
      <trkpt lat="44.47518" lon="5.88949">
        <ele>1155.161377</ele>
        <time>2011-02-06T11:05:16Z</time>
      </trkpt>
      <trkpt lat="44.47544" lon="5.88952">
        <ele>1155.64209</ele>
        <time>2011-02-06T11:05:22Z</time>
      </trkpt>
      <trkpt lat="44.47558" lon="5.88941">
        <ele>1153.719482</ele>
        <time>2011-02-06T11:05:25Z</time>
      </trkpt>
      <trkpt lat="44.47592" lon="5.88912">
        <ele>1151.316162</ele>
        <time>2011-02-06T11:05:32Z</time>
      </trkpt>
      <trkpt lat="44.47621" lon="5.88916">
        <ele>1150.835449</ele>
        <time>2011-02-06T11:05:38Z</time>
      </trkpt>
      <trkpt lat="44.47625" lon="5.8892">
        <ele>1150.835449</ele>
        <time>2011-02-06T11:05:39Z</time>
      </trkpt>
      <trkpt lat="44.47648" lon="5.8894">
        <ele>1152.277344</ele>
        <time>2011-02-06T11:05:44Z</time>
      </trkpt>
      <trkpt lat="44.47698" lon="5.88969">
        <ele>1149.393555</ele>
        <time>2011-02-06T11:05:53Z</time>
      </trkpt>
      <trkpt lat="44.47733" lon="5.88952">
        <ele>1147.470703</ele>
        <time>2011-02-06T11:06:00Z</time>
      </trkpt>
      <trkpt lat="44.47737" lon="5.88935">
        <ele>1146.028809</ele>
        <time>2011-02-06T11:06:02Z</time>
      </trkpt>
      <trkpt lat="44.47738" lon="5.88917">
        <ele>1145.548096</ele>
        <time>2011-02-06T11:06:04Z</time>
      </trkpt>
      <trkpt lat="44.4774" lon="5.88866">
        <ele>1144.58667</ele>
        <time>2011-02-06T11:06:10Z</time>
      </trkpt>
      <trkpt lat="44.47731" lon="5.88835">
        <ele>1144.106201</ele>
        <time>2011-02-06T11:06:15Z</time>
      </trkpt>
      <trkpt lat="44.47723" lon="5.88791">
        <ele>1142.183594</ele>
        <time>2011-02-06T11:06:21Z</time>
      </trkpt>
      <trkpt lat="44.47725" lon="5.88778">
        <ele>1141.222168</ele>
        <time>2011-02-06T11:06:23Z</time>
      </trkpt>
      <trkpt lat="44.47726" lon="5.88773">
        <ele>1144.106201</ele>
        <time>2011-02-06T11:06:24Z</time>
      </trkpt>
      <trkpt lat="44.47734" lon="5.88757">
        <ele>1142.183594</ele>
        <time>2011-02-06T11:06:27Z</time>
      </trkpt>
      <trkpt lat="44.47762" lon="5.88743">
        <ele>1142.664307</ele>
        <time>2011-02-06T11:06:34Z</time>
      </trkpt>
      <trkpt lat="44.478" lon="5.88777">
        <ele>1142.664307</ele>
        <time>2011-02-06T11:06:47Z</time>
      </trkpt>
      <trkpt lat="44.47813" lon="5.88832">
        <ele>1140.741455</ele>
        <time>2011-02-06T11:06:56Z</time>
      </trkpt>
      <trkpt lat="44.47841" lon="5.88853">
        <ele>1138.819092</ele>
        <time>2011-02-06T11:07:02Z</time>
      </trkpt>
      <trkpt lat="44.47917" lon="5.88864">
        <ele>1134.973877</ele>
        <time>2011-02-06T11:07:13Z</time>
      </trkpt>
      <trkpt lat="44.47925" lon="5.88865">
        <ele>1134.973877</ele>
        <time>2011-02-06T11:07:14Z</time>
      </trkpt>
      <trkpt lat="44.47964" lon="5.88898">
        <ele>1134.012451</ele>
        <time>2011-02-06T11:07:23Z</time>
      </trkpt>
      <trkpt lat="44.47997" lon="5.88902">
        <ele>1132.089844</ele>
        <time>2011-02-06T11:07:29Z</time>
      </trkpt>
      <trkpt lat="44.48045" lon="5.88886">
        <ele>1128.244385</ele>
        <time>2011-02-06T11:07:36Z</time>
      </trkpt>
      <trkpt lat="44.48053" lon="5.88883">
        <ele>1128.244385</ele>
        <time>2011-02-06T11:07:37Z</time>
      </trkpt>
      <trkpt lat="44.48146" lon="5.88841">
        <ele>1124.879883</ele>
        <time>2011-02-06T11:07:50Z</time>
      </trkpt>
      <trkpt lat="44.48191" lon="5.88833">
        <ele>1122.476563</ele>
        <time>2011-02-06T11:07:58Z</time>
      </trkpt>
      <trkpt lat="44.482" lon="5.88831">
        <ele>1121.99585</ele>
        <time>2011-02-06T11:08:00Z</time>
      </trkpt>
      <trkpt lat="44.48218" lon="5.88835">
        <ele>1121.034668</ele>
        <time>2011-02-06T11:08:04Z</time>
      </trkpt>
      <trkpt lat="44.48266" lon="5.88829">
        <ele>1118.150635</ele>
        <time>2011-02-06T11:08:11Z</time>
      </trkpt>
      <trkpt lat="44.48281" lon="5.88832">
        <ele>1117.189453</ele>
        <time>2011-02-06T11:08:13Z</time>
      </trkpt>
      <trkpt lat="44.48295" lon="5.88836">
        <ele>1115.266602</ele>
        <time>2011-02-06T11:08:15Z</time>
      </trkpt>
      <trkpt lat="44.48372" lon="5.88814">
        <ele>1111.9021</ele>
        <time>2011-02-06T11:08:26Z</time>
      </trkpt>
      <trkpt lat="44.48388" lon="5.8881">
        <ele>1110.940674</ele>
        <time>2011-02-06T11:08:28Z</time>
      </trkpt>
      <trkpt lat="44.48432" lon="5.88803">
        <ele>1109.498779</ele>
        <time>2011-02-06T11:08:35Z</time>
      </trkpt>
      <trkpt lat="44.4846" lon="5.8882">
        <ele>1105.653564</ele>
        <time>2011-02-06T11:08:41Z</time>
      </trkpt>
      <trkpt lat="44.48468" lon="5.88831">
        <ele>1105.653564</ele>
        <time>2011-02-06T11:08:43Z</time>
      </trkpt>
      <trkpt lat="44.48496" lon="5.88854">
        <ele>1100.846924</ele>
        <time>2011-02-06T11:08:48Z</time>
      </trkpt>
      <trkpt lat="44.48502" lon="5.88859">
        <ele>1100.846924</ele>
        <time>2011-02-06T11:08:49Z</time>
      </trkpt>
      <trkpt lat="44.48535" lon="5.88879">
        <ele>1097.001465</ele>
        <time>2011-02-06T11:08:54Z</time>
      </trkpt>
      <trkpt lat="44.48542" lon="5.88886">
        <ele>1097.001465</ele>
        <time>2011-02-06T11:08:55Z</time>
      </trkpt>
      <trkpt lat="44.48556" lon="5.88898">
        <ele>1093.636963</ele>
        <time>2011-02-06T11:08:57Z</time>
      </trkpt>
      <trkpt lat="44.48562" lon="5.88905">
        <ele>1093.636963</ele>
        <time>2011-02-06T11:08:58Z</time>
      </trkpt>
      <trkpt lat="44.48567" lon="5.88911">
        <ele>1095.55957</ele>
        <time>2011-02-06T11:08:59Z</time>
      </trkpt>
      <trkpt lat="44.48587" lon="5.88952">
        <ele>1094.598145</ele>
        <time>2011-02-06T11:09:07Z</time>
      </trkpt>
      <trkpt lat="44.48607" lon="5.88939">
        <ele>1091.233643</ele>
        <time>2011-02-06T11:09:12Z</time>
      </trkpt>
      <trkpt lat="44.48646" lon="5.88923">
        <ele>1087.869141</ele>
        <time>2011-02-06T11:09:18Z</time>
      </trkpt>
      <trkpt lat="44.48653" lon="5.88922">
        <ele>1087.869141</ele>
        <time>2011-02-06T11:09:19Z</time>
      </trkpt>
      <trkpt lat="44.4867" lon="5.88917">
        <ele>1087.388428</ele>
        <time>2011-02-06T11:09:22Z</time>
      </trkpt>
      <trkpt lat="44.48694" lon="5.88925">
        <ele>1084.504639</ele>
        <time>2011-02-06T11:09:26Z</time>
      </trkpt>
      <trkpt lat="44.48707" lon="5.88933">
        <ele>1083.062256</ele>
        <time>2011-02-06T11:09:28Z</time>
      </trkpt>
      <trkpt lat="44.48726" lon="5.88935">
        <ele>1082.581787</ele>
        <time>2011-02-06T11:09:31Z</time>
      </trkpt>
      <trkpt lat="44.48737" lon="5.88947">
        <ele>1080.65918</ele>
        <time>2011-02-06T11:09:33Z</time>
      </trkpt>
      <trkpt lat="44.48759" lon="5.88979">
        <ele>1078.736572</ele>
        <time>2011-02-06T11:09:38Z</time>
      </trkpt>
      <trkpt lat="44.48783" lon="5.88992">
        <ele>1077.294678</ele>
        <time>2011-02-06T11:09:44Z</time>
      </trkpt>
      <trkpt lat="44.48799" lon="5.88994">
        <ele>1075.371826</ele>
        <time>2011-02-06T11:09:47Z</time>
      </trkpt>
      <trkpt lat="44.48813" lon="5.88995">
        <ele>1074.410645</ele>
        <time>2011-02-06T11:09:49Z</time>
      </trkpt>
      <trkpt lat="44.48826" lon="5.89004">
        <ele>1072.96875</ele>
        <time>2011-02-06T11:09:51Z</time>
      </trkpt>
      <trkpt lat="44.48839" lon="5.89007">
        <ele>1072.007324</ele>
        <time>2011-02-06T11:09:53Z</time>
      </trkpt>
      <trkpt lat="44.48854" lon="5.89022">
        <ele>1070.084717</ele>
        <time>2011-02-06T11:09:56Z</time>
      </trkpt>
      <trkpt lat="44.48865" lon="5.89044">
        <ele>1069.123535</ele>
        <time>2011-02-06T11:09:59Z</time>
      </trkpt>
      <trkpt lat="44.48869" lon="5.89059">
        <ele>1069.123535</ele>
        <time>2011-02-06T11:10:01Z</time>
      </trkpt>
      <trkpt lat="44.48901" lon="5.89063">
        <ele>1065.278076</ele>
        <time>2011-02-06T11:10:09Z</time>
      </trkpt>
      <trkpt lat="44.48947" lon="5.89037">
        <ele>1064.31665</ele>
        <time>2011-02-06T11:10:20Z</time>
      </trkpt>
      <trkpt lat="44.48956" lon="5.89035">
        <ele>1064.31665</ele>
        <time>2011-02-06T11:10:22Z</time>
      </trkpt>
      <trkpt lat="44.48959" lon="5.89063">
        <ele>1063.355469</ele>
        <time>2011-02-06T11:10:28Z</time>
      </trkpt>
      <trkpt lat="44.48941" lon="5.89097">
        <ele>1059.510254</ele>
        <time>2011-02-06T11:10:33Z</time>
      </trkpt>
      <trkpt lat="44.48934" lon="5.89115">
        <ele>1058.548828</ele>
        <time>2011-02-06T11:10:35Z</time>
      </trkpt>
      <trkpt lat="44.48917" lon="5.8914">
        <ele>1056.626221</ele>
        <time>2011-02-06T11:10:39Z</time>
      </trkpt>
      <trkpt lat="44.48913" lon="5.89184">
        <ele>1054.703613</ele>
        <time>2011-02-06T11:10:45Z</time>
      </trkpt>
      <trkpt lat="44.48919" lon="5.89202">
        <ele>1053.261719</ele>
        <time>2011-02-06T11:10:47Z</time>
      </trkpt>
      <trkpt lat="44.48922" lon="5.89211">
        <ele>1052.300293</ele>
        <time>2011-02-06T11:10:48Z</time>
      </trkpt>
      <trkpt lat="44.48942" lon="5.89243">
        <ele>1050.377686</ele>
        <time>2011-02-06T11:10:53Z</time>
      </trkpt>
      <trkpt lat="44.4895" lon="5.89274">
        <ele>1048.454834</ele>
        <time>2011-02-06T11:10:57Z</time>
      </trkpt>
      <trkpt lat="44.48954" lon="5.89302">
        <ele>1047.012939</ele>
        <time>2011-02-06T11:11:00Z</time>
      </trkpt>
      <trkpt lat="44.48958" lon="5.89325">
        <ele>1046.051758</ele>
        <time>2011-02-06T11:11:03Z</time>
      </trkpt>
      <trkpt lat="44.48982" lon="5.8935">
        <ele>1043.167725</ele>
        <time>2011-02-06T11:11:11Z</time>
      </trkpt>
      <trkpt lat="44.49" lon="5.89346">
        <ele>1042.687256</ele>
        <time>2011-02-06T11:11:14Z</time>
      </trkpt>
      <trkpt lat="44.49017" lon="5.89349">
        <ele>1040.764404</ele>
        <time>2011-02-06T11:11:17Z</time>
      </trkpt>
      <trkpt lat="44.49049" lon="5.89361">
        <ele>1037.880615</ele>
        <time>2011-02-06T11:11:24Z</time>
      </trkpt>
      <trkpt lat="44.49074" lon="5.89383">
        <ele>1035.477051</ele>
        <time>2011-02-06T11:11:29Z</time>
      </trkpt>
      <trkpt lat="44.49081" lon="5.89399">
        <ele>1034.996582</ele>
        <time>2011-02-06T11:11:31Z</time>
      </trkpt>
      <trkpt lat="44.49084" lon="5.89408">
        <ele>1033.07373</ele>
        <time>2011-02-06T11:11:32Z</time>
      </trkpt>
      <trkpt lat="44.49097" lon="5.89463">
        <ele>1031.151367</ele>
        <time>2011-02-06T11:11:38Z</time>
      </trkpt>
      <trkpt lat="44.49124" lon="5.89491">
        <ele>1029.228516</ele>
        <time>2011-02-06T11:11:46Z</time>
      </trkpt>
      <trkpt lat="44.49136" lon="5.89489">
        <ele>1028.267334</ele>
        <time>2011-02-06T11:11:48Z</time>
      </trkpt>
      <trkpt lat="44.49154" lon="5.89499">
        <ele>1026.825439</ele>
        <time>2011-02-06T11:11:51Z</time>
      </trkpt>
      <trkpt lat="44.49166" lon="5.89509">
        <ele>1024.422119</ele>
        <time>2011-02-06T11:11:53Z</time>
      </trkpt>
      <trkpt lat="44.49176" lon="5.89518">
        <ele>1023.941406</ele>
        <time>2011-02-06T11:11:55Z</time>
      </trkpt>
      <trkpt lat="44.49208" lon="5.89534">
        <ele>1021.057617</ele>
        <time>2011-02-06T11:12:01Z</time>
      </trkpt>
      <trkpt lat="44.49213" lon="5.89548">
        <ele>1019.615479</ele>
        <time>2011-02-06T11:12:03Z</time>
      </trkpt>
      <trkpt lat="44.49212" lon="5.89565">
        <ele>1018.654053</ele>
        <time>2011-02-06T11:12:05Z</time>
      </trkpt>
      <trkpt lat="44.49212" lon="5.89581">
        <ele>1017.212158</ele>
        <time>2011-02-06T11:12:07Z</time>
      </trkpt>
      <trkpt lat="44.4923" lon="5.89614">
        <ele>1015.770264</ele>
        <time>2011-02-06T11:12:12Z</time>
      </trkpt>
      <trkpt lat="44.49241" lon="5.89626">
        <ele>1014.328125</ele>
        <time>2011-02-06T11:12:14Z</time>
      </trkpt>
      <trkpt lat="44.49259" lon="5.89638">
        <ele>1012.88623</ele>
        <time>2011-02-06T11:12:17Z</time>
      </trkpt>
      <trkpt lat="44.49272" lon="5.89651">
        <ele>1011.444336</ele>
        <time>2011-02-06T11:12:19Z</time>
      </trkpt>
      <trkpt lat="44.49295" lon="5.89691">
        <ele>1008.560303</ele>
        <time>2011-02-06T11:12:24Z</time>
      </trkpt>
      <trkpt lat="44.49302" lon="5.89706">
        <ele>1008.560303</ele>
        <time>2011-02-06T11:12:26Z</time>
      </trkpt>
      <trkpt lat="44.49326" lon="5.89738">
        <ele>1005.676514</ele>
        <time>2011-02-06T11:12:31Z</time>
      </trkpt>
      <trkpt lat="44.4933" lon="5.89744">
        <ele>1005.195801</ele>
        <time>2011-02-06T11:12:32Z</time>
      </trkpt>
      <trkpt lat="44.49371" lon="5.89766">
        <ele>1002.792236</ele>
        <time>2011-02-06T11:12:44Z</time>
      </trkpt>
      <trkpt lat="44.49404" lon="5.89768">
        <ele>998.947021</ele>
        <time>2011-02-06T11:12:51Z</time>
      </trkpt>
      <trkpt lat="44.49409" lon="5.89767">
        <ele>998.947021</ele>
        <time>2011-02-06T11:12:52Z</time>
      </trkpt>
      <trkpt lat="44.49438" lon="5.89763">
        <ele>997.505127</ele>
        <time>2011-02-06T11:12:59Z</time>
      </trkpt>
      <trkpt lat="44.49464" lon="5.89744">
        <ele>994.140625</ele>
        <time>2011-02-06T11:13:05Z</time>
      </trkpt>
      <trkpt lat="44.49469" lon="5.89739">
        <ele>994.140625</ele>
        <time>2011-02-06T11:13:06Z</time>
      </trkpt>
      <trkpt lat="44.49502" lon="5.89694">
        <ele>991.737305</ele>
        <time>2011-02-06T11:13:19Z</time>
      </trkpt>
      <trkpt lat="44.49527" lon="5.89676">
        <ele>989.333984</ele>
        <time>2011-02-06T11:13:29Z</time>
      </trkpt>
      <trkpt lat="44.49564" lon="5.89644">
        <ele>985.488525</ele>
        <time>2011-02-06T11:13:39Z</time>
      </trkpt>
      <trkpt lat="44.49578" lon="5.89632">
        <ele>983.085205</ele>
        <time>2011-02-06T11:13:42Z</time>
      </trkpt>
      <trkpt lat="44.49612" lon="5.89609">
        <ele>981.162842</ele>
        <time>2011-02-06T11:13:50Z</time>
      </trkpt>
      <trkpt lat="44.49641" lon="5.8957">
        <ele>978.278809</ele>
        <time>2011-02-06T11:13:57Z</time>
      </trkpt>
      <trkpt lat="44.49647" lon="5.89567">
        <ele>976.836914</ele>
        <time>2011-02-06T11:13:58Z</time>
      </trkpt>
      <trkpt lat="44.49678" lon="5.89559">
        <ele>976.356201</ele>
        <time>2011-02-06T11:14:03Z</time>
      </trkpt>
      <trkpt lat="44.49696" lon="5.89551">
        <ele>974.433594</ele>
        <time>2011-02-06T11:14:06Z</time>
      </trkpt>
      <trkpt lat="44.49702" lon="5.89548">
        <ele>973.472412</ele>
        <time>2011-02-06T11:14:07Z</time>
      </trkpt>
      <trkpt lat="44.49722" lon="5.8956">
        <ele>972.991699</ele>
        <time>2011-02-06T11:14:14Z</time>
      </trkpt>
      <trkpt lat="44.49732" lon="5.89588">
        <ele>972.991699</ele>
        <time>2011-02-06T11:14:20Z</time>
      </trkpt>
      <trkpt lat="44.49741" lon="5.89599">
        <ele>972.991699</ele>
        <time>2011-02-06T11:14:23Z</time>
      </trkpt>
      <trkpt lat="44.49753" lon="5.89605">
        <ele>972.030273</ele>
        <time>2011-02-06T11:14:26Z</time>
      </trkpt>
      <trkpt lat="44.49772" lon="5.89615">
        <ele>971.068848</ele>
        <time>2011-02-06T11:14:30Z</time>
      </trkpt>
      <trkpt lat="44.49807" lon="5.89618">
        <ele>969.626953</ele>
        <time>2011-02-06T11:14:36Z</time>
      </trkpt>
      <trkpt lat="44.49883" lon="5.89587">
        <ele>967.223633</ele>
        <time>2011-02-06T11:14:48Z</time>
      </trkpt>
      <trkpt lat="44.49917" lon="5.89541">
        <ele>965.301025</ele>
        <time>2011-02-06T11:14:55Z</time>
      </trkpt>
      <trkpt lat="44.49926" lon="5.89514">
        <ele>964.820313</ele>
        <time>2011-02-06T11:14:58Z</time>
      </trkpt>
      <trkpt lat="44.49989" lon="5.89414">
        <ele>962.416992</ele>
        <time>2011-02-06T11:15:11Z</time>
      </trkpt>
      <trkpt lat="44.50025" lon="5.89374">
        <ele>962.416992</ele>
        <time>2011-02-06T11:15:20Z</time>
      </trkpt>
      <trkpt lat="44.50068" lon="5.8933">
        <ele>960.975098</ele>
        <time>2011-02-06T11:15:29Z</time>
      </trkpt>
      <trkpt lat="44.50085" lon="5.89295">
        <ele>960.013672</ele>
        <time>2011-02-06T11:15:34Z</time>
      </trkpt>
      <trkpt lat="44.50096" lon="5.89216">
        <ele>958.571777</ele>
        <time>2011-02-06T11:15:43Z</time>
      </trkpt>
      <trkpt lat="44.50104" lon="5.89179">
        <ele>957.610596</ele>
        <time>2011-02-06T11:15:47Z</time>
      </trkpt>
      <trkpt lat="44.50112" lon="5.8915">
        <ele>956.64917</ele>
        <time>2011-02-06T11:15:50Z</time>
      </trkpt>
      <trkpt lat="44.50119" lon="5.89056">
        <ele>954.24585</ele>
        <time>2011-02-06T11:15:59Z</time>
      </trkpt>
      <trkpt lat="44.50131" lon="5.8901">
        <ele>954.24585</ele>
        <time>2011-02-06T11:16:04Z</time>
      </trkpt>
      <trkpt lat="44.50171" lon="5.88932">
        <ele>951.842529</ele>
        <time>2011-02-06T11:16:15Z</time>
      </trkpt>
      <trkpt lat="44.50245" lon="5.88866">
        <ele>948.958496</ele>
        <time>2011-02-06T11:16:27Z</time>
      </trkpt>
      <trkpt lat="44.50274" lon="5.88827">
        <ele>947.516602</ele>
        <time>2011-02-06T11:16:32Z</time>
      </trkpt>
      <trkpt lat="44.50285" lon="5.8881">
        <ele>947.035889</ele>
        <time>2011-02-06T11:16:34Z</time>
      </trkpt>
      <trkpt lat="44.50371" lon="5.88738">
        <ele>943.671387</ele>
        <time>2011-02-06T11:16:46Z</time>
      </trkpt>
      <trkpt lat="44.50432" lon="5.88692">
        <ele>942.229492</ele>
        <time>2011-02-06T11:16:55Z</time>
      </trkpt>
      <trkpt lat="44.50462" lon="5.88658">
        <ele>941.748779</ele>
        <time>2011-02-06T11:17:02Z</time>
      </trkpt>
      <trkpt lat="44.50483" lon="5.88623">
        <ele>938.864746</ele>
        <time>2011-02-06T11:17:07Z</time>
      </trkpt>
      <trkpt lat="44.50489" lon="5.88611">
        <ele>940.787354</ele>
        <time>2011-02-06T11:17:09Z</time>
      </trkpt>
      <trkpt lat="44.50493" lon="5.88594">
        <ele>940.306885</ele>
        <time>2011-02-06T11:17:12Z</time>
      </trkpt>
      <trkpt lat="44.50496" lon="5.88571">
        <ele>941.748779</ele>
        <time>2011-02-06T11:17:16Z</time>
      </trkpt>
      <trkpt lat="44.50501" lon="5.88563">
        <ele>941.748779</ele>
        <time>2011-02-06T11:17:18Z</time>
      </trkpt>
      <trkpt lat="44.50517" lon="5.88554">
        <ele>940.787354</ele>
        <time>2011-02-06T11:17:22Z</time>
      </trkpt>
      <trkpt lat="44.50534" lon="5.88558">
        <ele>940.306885</ele>
        <time>2011-02-06T11:17:27Z</time>
      </trkpt>
      <trkpt lat="44.50554" lon="5.88541">
        <ele>938.384033</ele>
        <time>2011-02-06T11:17:32Z</time>
      </trkpt>
      <trkpt lat="44.50569" lon="5.88512">
        <ele>935.980713</ele>
        <time>2011-02-06T11:17:36Z</time>
      </trkpt>
      <trkpt lat="44.50575" lon="5.88496">
        <ele>935.019531</ele>
        <time>2011-02-06T11:17:38Z</time>
      </trkpt>
      <trkpt lat="44.50581" lon="5.88467">
        <ele>933.09668</ele>
        <time>2011-02-06T11:17:41Z</time>
      </trkpt>
      <trkpt lat="44.50577" lon="5.88447">
        <ele>932.616211</ele>
        <time>2011-02-06T11:17:43Z</time>
      </trkpt>
      <trkpt lat="44.50567" lon="5.88404">
        <ele>933.577393</ele>
        <time>2011-02-06T11:17:48Z</time>
      </trkpt>
      <trkpt lat="44.50558" lon="5.88373">
        <ele>935.019531</ele>
        <time>2011-02-06T11:17:53Z</time>
      </trkpt>
      <trkpt lat="44.50563" lon="5.88348">
        <ele>934.538818</ele>
        <time>2011-02-06T11:17:58Z</time>
      </trkpt>
      <trkpt lat="44.5062" lon="5.88298">
        <ele>930.693604</ele>
        <time>2011-02-06T11:18:10Z</time>
      </trkpt>
      <trkpt lat="44.50626" lon="5.88293">
        <ele>930.693604</ele>
        <time>2011-02-06T11:18:11Z</time>
      </trkpt>
      <trkpt lat="44.5068" lon="5.88251">
        <ele>927.329102</ele>
        <time>2011-02-06T11:18:19Z</time>
      </trkpt>
      <trkpt lat="44.50687" lon="5.88246">
        <ele>927.329102</ele>
        <time>2011-02-06T11:18:20Z</time>
      </trkpt>
      <trkpt lat="44.50784" lon="5.88164">
        <ele>923.964111</ele>
        <time>2011-02-06T11:18:35Z</time>
      </trkpt>
      <trkpt lat="44.50811" lon="5.88143">
        <ele>923.00293</ele>
        <time>2011-02-06T11:18:39Z</time>
      </trkpt>
      <trkpt lat="44.50941" lon="5.88039">
        <ele>921.560791</ele>
        <time>2011-02-06T11:18:59Z</time>
      </trkpt>
      <trkpt lat="44.50991" lon="5.87998">
        <ele>919.638428</ele>
        <time>2011-02-06T11:19:07Z</time>
      </trkpt>
      <trkpt lat="44.51064" lon="5.87938">
        <ele>920.118896</ele>
        <time>2011-02-06T11:19:21Z</time>
      </trkpt>
      <trkpt lat="44.51091" lon="5.87915">
        <ele>919.638428</ele>
        <time>2011-02-06T11:19:28Z</time>
      </trkpt>
      <trkpt lat="44.51142" lon="5.87874">
        <ele>921.080322</ele>
        <time>2011-02-06T11:19:46Z</time>
      </trkpt>
      <trkpt lat="44.51144" lon="5.87872">
        <ele>921.080322</ele>
        <time>2011-02-06T11:19:47Z</time>
      </trkpt>
      <trkpt lat="44.51143" lon="5.87857">
        <ele>921.560791</ele>
        <time>2011-02-06T11:19:52Z</time>
      </trkpt>
      <trkpt lat="44.51134" lon="5.87846">
        <ele>920.118896</ele>
        <time>2011-02-06T11:19:55Z</time>
      </trkpt>
      <trkpt lat="44.51131" lon="5.87842">
        <ele>919.157715</ele>
        <time>2011-02-06T11:19:56Z</time>
      </trkpt>
      <trkpt lat="44.51125" lon="5.87825">
        <ele>918.677002</ele>
        <time>2011-02-06T11:19:59Z</time>
      </trkpt>
      <trkpt lat="44.51118" lon="5.87745">
        <ele>922.522217</ele>
        <time>2011-02-06T11:20:15Z</time>
      </trkpt>
      <trkpt lat="44.51115" lon="5.87676">
        <ele>923.00293</ele>
        <time>2011-02-06T11:20:31Z</time>
      </trkpt>
      <trkpt lat="44.51117" lon="5.87605">
        <ele>923.00293</ele>
        <time>2011-02-06T11:20:48Z</time>
      </trkpt>
      <trkpt lat="44.51115" lon="5.87577">
        <ele>926.848389</ele>
        <time>2011-02-06T11:20:57Z</time>
      </trkpt>
      <trkpt lat="44.51115" lon="5.87575">
        <ele>926.848389</ele>
        <time>2011-02-06T11:20:58Z</time>
      </trkpt>
      <trkpt lat="44.51115" lon="5.87563">
        <ele>928.290283</ele>
        <time>2011-02-06T11:21:02Z</time>
      </trkpt>
      <trkpt lat="44.51111" lon="5.87496">
        <ele>931.174316</ele>
        <time>2011-02-06T11:21:22Z</time>
      </trkpt>
      <trkpt lat="44.51111" lon="5.8748">
        <ele>930.693604</ele>
        <time>2011-02-06T11:21:27Z</time>
      </trkpt>
      <trkpt lat="44.51111" lon="5.87467">
        <ele>932.135498</ele>
        <time>2011-02-06T11:21:31Z</time>
      </trkpt>
      <trkpt lat="44.51111" lon="5.87408">
        <ele>935.019531</ele>
        <time>2011-02-06T11:21:49Z</time>
      </trkpt>
      <trkpt lat="44.5111" lon="5.87349">
        <ele>937.90332</ele>
        <time>2011-02-06T11:22:06Z</time>
      </trkpt>
      <trkpt lat="44.5111" lon="5.87346">
        <ele>937.90332</ele>
        <time>2011-02-06T11:22:07Z</time>
      </trkpt>
      <trkpt lat="44.51117" lon="5.87268">
        <ele>940.787354</ele>
        <time>2011-02-06T11:22:29Z</time>
      </trkpt>
      <trkpt lat="44.51117" lon="5.87264">
        <ele>940.787354</ele>
        <time>2011-02-06T11:22:30Z</time>
      </trkpt>
      <trkpt lat="44.51124" lon="5.87192">
        <ele>940.306885</ele>
        <time>2011-02-06T11:22:47Z</time>
      </trkpt>
      <trkpt lat="44.51126" lon="5.87176">
        <ele>941.748779</ele>
        <time>2011-02-06T11:22:51Z</time>
      </trkpt>
      <trkpt lat="44.51109" lon="5.87115">
        <ele>942.229492</ele>
        <time>2011-02-06T11:23:07Z</time>
      </trkpt>
      <trkpt lat="44.51108" lon="5.87067">
        <ele>945.113281</ele>
        <time>2011-02-06T11:23:20Z</time>
      </trkpt>
      <trkpt lat="44.51111" lon="5.86997">
        <ele>947.997314</ele>
        <time>2011-02-06T11:23:41Z</time>
      </trkpt>
      <trkpt lat="44.51108" lon="5.8694">
        <ele>950.400635</ele>
        <time>2011-02-06T11:23:59Z</time>
      </trkpt>
      <trkpt lat="44.5107" lon="5.86898">
        <ele>949.439209</ele>
        <time>2011-02-06T11:24:16Z</time>
      </trkpt>
      <trkpt lat="44.51063" lon="5.86845">
        <ele>950.400635</ele>
        <time>2011-02-06T11:24:29Z</time>
      </trkpt>
      <trkpt lat="44.5109" lon="5.86787">
        <ele>952.803711</ele>
        <time>2011-02-06T11:24:46Z</time>
      </trkpt>
      <trkpt lat="44.51108" lon="5.86721">
        <ele>955.687744</ele>
        <time>2011-02-06T11:25:06Z</time>
      </trkpt>
      <trkpt lat="44.51121" lon="5.86678">
        <ele>959.05249</ele>
        <time>2011-02-06T11:25:20Z</time>
      </trkpt>
      <trkpt lat="44.51137" lon="5.86614">
        <ele>961.936523</ele>
        <time>2011-02-06T11:25:40Z</time>
      </trkpt>
      <trkpt lat="44.51153" lon="5.86572">
        <ele>965.301025</ele>
        <time>2011-02-06T11:25:55Z</time>
      </trkpt>
      <trkpt lat="44.51159" lon="5.86555">
        <ele>967.223633</ele>
        <time>2011-02-06T11:26:01Z</time>
      </trkpt>
      <trkpt lat="44.51163" lon="5.86545">
        <ele>968.184814</ele>
        <time>2011-02-06T11:26:05Z</time>
      </trkpt>
      <trkpt lat="44.51168" lon="5.86528">
        <ele>968.665527</ele>
        <time>2011-02-06T11:26:11Z</time>
      </trkpt>
      <trkpt lat="44.5118" lon="5.86491">
        <ele>972.510986</ele>
        <time>2011-02-06T11:26:25Z</time>
      </trkpt>
      <trkpt lat="44.51178" lon="5.86445">
        <ele>975.394775</ele>
        <time>2011-02-06T11:26:43Z</time>
      </trkpt>
      <trkpt lat="44.51138" lon="5.8641">
        <ele>973.472412</ele>
        <time>2011-02-06T11:26:58Z</time>
      </trkpt>
      <trkpt lat="44.51122" lon="5.86382">
        <ele>972.510986</ele>
        <time>2011-02-06T11:27:04Z</time>
      </trkpt>
      <trkpt lat="44.51093" lon="5.86314">
        <ele>973.472412</ele>
        <time>2011-02-06T11:27:20Z</time>
      </trkpt>
      <trkpt lat="44.51079" lon="5.86281">
        <ele>973.472412</ele>
        <time>2011-02-06T11:27:27Z</time>
      </trkpt>
      <trkpt lat="44.51059" lon="5.86262">
        <ele>972.510986</ele>
        <time>2011-02-06T11:27:33Z</time>
      </trkpt>
      <trkpt lat="44.51048" lon="5.86255">
        <ele>974.433594</ele>
        <time>2011-02-06T11:27:37Z</time>
      </trkpt>
      <trkpt lat="44.51045" lon="5.86253">
        <ele>972.991699</ele>
        <time>2011-02-06T11:27:39Z</time>
      </trkpt>
      <trkpt lat="44.51026" lon="5.8624">
        <ele>975.875488</ele>
        <time>2011-02-06T11:27:49Z</time>
      </trkpt>
      <trkpt lat="44.51015" lon="5.86232">
        <ele>977.317627</ele>
        <time>2011-02-06T11:27:55Z</time>
      </trkpt>
      <trkpt lat="44.50984" lon="5.86204">
        <ele>979.23999</ele>
        <time>2011-02-06T11:28:14Z</time>
      </trkpt>
      <trkpt lat="44.5095" lon="5.86169">
        <ele>981.643311</ele>
        <time>2011-02-06T11:28:34Z</time>
      </trkpt>
      <trkpt lat="44.50947" lon="5.86165">
        <ele>983.085205</ele>
        <time>2011-02-06T11:28:36Z</time>
      </trkpt>
      <trkpt lat="44.5091" lon="5.86137">
        <ele>984.527344</ele>
        <time>2011-02-06T11:28:57Z</time>
      </trkpt>
      <trkpt lat="44.50886" lon="5.86101">
        <ele>985.488525</ele>
        <time>2011-02-06T11:29:13Z</time>
      </trkpt>
      <trkpt lat="44.50866" lon="5.86065">
        <ele>989.333984</ele>
        <time>2011-02-06T11:29:29Z</time>
      </trkpt>
      <trkpt lat="44.50838" lon="5.86043">
        <ele>992.69873</ele>
        <time>2011-02-06T11:29:46Z</time>
      </trkpt>
      <trkpt lat="44.50809" lon="5.86">
        <ele>995.101807</ele>
        <time>2011-02-06T11:30:06Z</time>
      </trkpt>
      <trkpt lat="44.50802" lon="5.85942">
        <ele>997.505127</ele>
        <time>2011-02-06T11:30:25Z</time>
      </trkpt>
      <trkpt lat="44.50802" lon="5.85899">
        <ele>1000.38916</ele>
        <time>2011-02-06T11:30:40Z</time>
      </trkpt>
      <trkpt lat="44.50791" lon="5.85845">
        <ele>1000.869629</ele>
        <time>2011-02-06T11:30:58Z</time>
      </trkpt>
      <trkpt lat="44.5076" lon="5.85797">
        <ele>1001.350342</ele>
        <time>2011-02-06T11:31:17Z</time>
      </trkpt>
      <trkpt lat="44.5074" lon="5.85742">
        <ele>1003.272949</ele>
        <time>2011-02-06T11:31:36Z</time>
      </trkpt>
      <trkpt lat="44.5072" lon="5.85691">
        <ele>1006.156982</ele>
        <time>2011-02-06T11:31:56Z</time>
      </trkpt>
      <trkpt lat="44.50705" lon="5.85667">
        <ele>1008.560303</ele>
        <time>2011-02-06T11:32:08Z</time>
      </trkpt>
      <trkpt lat="44.50689" lon="5.85643">
        <ele>1012.405518</ele>
        <time>2011-02-06T11:32:22Z</time>
      </trkpt>
      <trkpt lat="44.50665" lon="5.85613">
        <ele>1015.770264</ele>
        <time>2011-02-06T11:32:41Z</time>
      </trkpt>
      <trkpt lat="44.50648" lon="5.85577">
        <ele>1019.134766</ele>
        <time>2011-02-06T11:32:58Z</time>
      </trkpt>
      <trkpt lat="44.50644" lon="5.85567">
        <ele>1019.615479</ele>
        <time>2011-02-06T11:33:03Z</time>
      </trkpt>
      <trkpt lat="44.50632" lon="5.85531">
        <ele>1022.980225</ele>
        <time>2011-02-06T11:33:21Z</time>
      </trkpt>
      <trkpt lat="44.50623" lon="5.85496">
        <ele>1026.344727</ele>
        <time>2011-02-06T11:33:37Z</time>
      </trkpt>
      <trkpt lat="44.50624" lon="5.8547">
        <ele>1028.748047</ele>
        <time>2011-02-06T11:33:49Z</time>
      </trkpt>
      <trkpt lat="44.50626" lon="5.85462">
        <ele>1029.228516</ele>
        <time>2011-02-06T11:33:53Z</time>
      </trkpt>
      <trkpt lat="44.50638" lon="5.85432">
        <ele>1032.593262</ele>
        <time>2011-02-06T11:34:09Z</time>
      </trkpt>
      <trkpt lat="44.50654" lon="5.85408">
        <ele>1035.957764</ele>
        <time>2011-02-06T11:34:24Z</time>
      </trkpt>
      <trkpt lat="44.50667" lon="5.85371">
        <ele>1039.32251</ele>
        <time>2011-02-06T11:34:43Z</time>
      </trkpt>
      <trkpt lat="44.50666" lon="5.85357">
        <ele>1040.283936</ele>
        <time>2011-02-06T11:34:49Z</time>
      </trkpt>
      <trkpt lat="44.50663" lon="5.85347">
        <ele>1040.764404</ele>
        <time>2011-02-06T11:34:54Z</time>
      </trkpt>
      <trkpt lat="44.50635" lon="5.8532">
        <ele>1042.687256</ele>
        <time>2011-02-06T11:35:15Z</time>
      </trkpt>
      <trkpt lat="44.50614" lon="5.85293">
        <ele>1040.764404</ele>
        <time>2011-02-06T11:35:27Z</time>
      </trkpt>
      <trkpt lat="44.50588" lon="5.85259">
        <ele>1036.438721</ele>
        <time>2011-02-06T11:35:36Z</time>
      </trkpt>
      <trkpt lat="44.50579" lon="5.85239">
        <ele>1035.477051</ele>
        <time>2011-02-06T11:35:39Z</time>
      </trkpt>
      <trkpt lat="44.50578" lon="5.8523">
        <ele>1034.035156</ele>
        <time>2011-02-06T11:35:40Z</time>
      </trkpt>
      <trkpt lat="44.50574" lon="5.85199">
        <ele>1030.670654</ele>
        <time>2011-02-06T11:35:43Z</time>
      </trkpt>
      <trkpt lat="44.50573" lon="5.85188">
        <ele>1030.670654</ele>
        <time>2011-02-06T11:35:44Z</time>
      </trkpt>
      <trkpt lat="44.50572" lon="5.85166">
        <ele>1030.670654</ele>
        <time>2011-02-06T11:35:46Z</time>
      </trkpt>
      <trkpt lat="44.50573" lon="5.85143">
        <ele>1029.228516</ele>
        <time>2011-02-06T11:35:48Z</time>
      </trkpt>
      <trkpt lat="44.50579" lon="5.85102">
        <ele>1025.864014</ele>
        <time>2011-02-06T11:35:52Z</time>
      </trkpt>
      <trkpt lat="44.5058" lon="5.85093">
        <ele>1025.864014</ele>
        <time>2011-02-06T11:35:53Z</time>
      </trkpt>
      <trkpt lat="44.5058" lon="5.85074">
        <ele>1024.422119</ele>
        <time>2011-02-06T11:35:55Z</time>
      </trkpt>
      <trkpt lat="44.50574" lon="5.85043">
        <ele>1022.018799</ele>
        <time>2011-02-06T11:35:58Z</time>
      </trkpt>
      <trkpt lat="44.50564" lon="5.85023">
        <ele>1019.615479</ele>
        <time>2011-02-06T11:36:00Z</time>
      </trkpt>
      <trkpt lat="44.50552" lon="5.85004">
        <ele>1017.212158</ele>
        <time>2011-02-06T11:36:02Z</time>
      </trkpt>
      <trkpt lat="44.50544" lon="5.84996">
        <ele>1012.88623</ele>
        <time>2011-02-06T11:36:03Z</time>
      </trkpt>
      <trkpt lat="44.50536" lon="5.84989">
        <ele>1010.963623</ele>
        <time>2011-02-06T11:36:04Z</time>
      </trkpt>
      <trkpt lat="44.5051" lon="5.84973">
        <ele>1009.521729</ele>
        <time>2011-02-06T11:36:07Z</time>
      </trkpt>
      <trkpt lat="44.50501" lon="5.84968">
        <ele>1007.599121</ele>
        <time>2011-02-06T11:36:08Z</time>
      </trkpt>
      <trkpt lat="44.50475" lon="5.84958">
        <ele>1005.676514</ele>
        <time>2011-02-06T11:36:11Z</time>
      </trkpt>
      <trkpt lat="44.50459" lon="5.84955">
        <ele>1004.715088</ele>
        <time>2011-02-06T11:36:13Z</time>
      </trkpt>
      <trkpt lat="44.50435" lon="5.84959">
        <ele>1002.792236</ele>
        <time>2011-02-06T11:36:16Z</time>
      </trkpt>
      <trkpt lat="44.50422" lon="5.84958">
        <ele>1001.350342</ele>
        <time>2011-02-06T11:36:18Z</time>
      </trkpt>
      <trkpt lat="44.50407" lon="5.84925">
        <ele>1000.38916</ele>
        <time>2011-02-06T11:36:23Z</time>
      </trkpt>
      <trkpt lat="44.50369" lon="5.84881">
        <ele>996.063232</ele>
        <time>2011-02-06T11:36:31Z</time>
      </trkpt>
      <trkpt lat="44.50362" lon="5.8488">
        <ele>996.063232</ele>
        <time>2011-02-06T11:36:32Z</time>
      </trkpt>
      <trkpt lat="44.50355" lon="5.8488">
        <ele>995.101807</ele>
        <time>2011-02-06T11:36:33Z</time>
      </trkpt>
      <trkpt lat="44.5034" lon="5.84882">
        <ele>993.659912</ele>
        <time>2011-02-06T11:36:35Z</time>
      </trkpt>
      <trkpt lat="44.50324" lon="5.84884">
        <ele>992.69873</ele>
        <time>2011-02-06T11:36:37Z</time>
      </trkpt>
      <trkpt lat="44.50283" lon="5.8489">
        <ele>989.814697</ele>
        <time>2011-02-06T11:36:42Z</time>
      </trkpt>
      <trkpt lat="44.50267" lon="5.84893">
        <ele>988.853516</ele>
        <time>2011-02-06T11:36:44Z</time>
      </trkpt>
      <trkpt lat="44.5025" lon="5.84891">
        <ele>985.488525</ele>
        <time>2011-02-06T11:36:46Z</time>
      </trkpt>
      <trkpt lat="44.50196" lon="5.84869">
        <ele>982.124023</ele>
        <time>2011-02-06T11:36:52Z</time>
      </trkpt>
      <trkpt lat="44.50188" lon="5.84865">
        <ele>982.124023</ele>
        <time>2011-02-06T11:36:53Z</time>
      </trkpt>
      <trkpt lat="44.50151" lon="5.84849">
        <ele>979.720703</ele>
        <time>2011-02-06T11:36:58Z</time>
      </trkpt>
      <trkpt lat="44.50117" lon="5.84806">
        <ele>975.394775</ele>
        <time>2011-02-06T11:37:04Z</time>
      </trkpt>
      <trkpt lat="44.50111" lon="5.84797">
        <ele>975.394775</ele>
        <time>2011-02-06T11:37:05Z</time>
      </trkpt>
      <trkpt lat="44.50091" lon="5.8477">
        <ele>973.472412</ele>
        <time>2011-02-06T11:37:08Z</time>
      </trkpt>
      <trkpt lat="44.50059" lon="5.84743">
        <ele>971.068848</ele>
        <time>2011-02-06T11:37:12Z</time>
      </trkpt>
      <trkpt lat="44.50041" lon="5.84734">
        <ele>969.626953</ele>
        <time>2011-02-06T11:37:14Z</time>
      </trkpt>
      <trkpt lat="44.49998" lon="5.84717">
        <ele>967.223633</ele>
        <time>2011-02-06T11:37:19Z</time>
      </trkpt>
      <trkpt lat="44.4998" lon="5.84711">
        <ele>965.301025</ele>
        <time>2011-02-06T11:37:21Z</time>
      </trkpt>
      <trkpt lat="44.49964" lon="5.84705">
        <ele>963.858887</ele>
        <time>2011-02-06T11:37:23Z</time>
      </trkpt>
      <trkpt lat="44.49941" lon="5.84684">
        <ele>960.975098</ele>
        <time>2011-02-06T11:37:26Z</time>
      </trkpt>
      <trkpt lat="44.49935" lon="5.84675">
        <ele>959.05249</ele>
        <time>2011-02-06T11:37:27Z</time>
      </trkpt>
      <trkpt lat="44.49912" lon="5.8465">
        <ele>957.129883</ele>
        <time>2011-02-06T11:37:30Z</time>
      </trkpt>
      <trkpt lat="44.49889" lon="5.84629">
        <ele>954.726318</ele>
        <time>2011-02-06T11:37:33Z</time>
      </trkpt>
      <trkpt lat="44.49874" lon="5.84614">
        <ele>953.765137</ele>
        <time>2011-02-06T11:37:35Z</time>
      </trkpt>
      <trkpt lat="44.49862" lon="5.84597">
        <ele>952.322998</ele>
        <time>2011-02-06T11:37:37Z</time>
      </trkpt>
      <trkpt lat="44.49839" lon="5.8456">
        <ele>949.919922</ele>
        <time>2011-02-06T11:37:41Z</time>
      </trkpt>
      <trkpt lat="44.49802" lon="5.84537">
        <ele>948.477783</ele>
        <time>2011-02-06T11:37:46Z</time>
      </trkpt>
      <trkpt lat="44.49785" lon="5.84536">
        <ele>946.074707</ele>
        <time>2011-02-06T11:37:48Z</time>
      </trkpt>
      <trkpt lat="44.49761" lon="5.84524">
        <ele>944.1521</ele>
        <time>2011-02-06T11:37:51Z</time>
      </trkpt>
      <trkpt lat="44.49741" lon="5.84499">
        <ele>942.229492</ele>
        <time>2011-02-06T11:37:54Z</time>
      </trkpt>
      <trkpt lat="44.49728" lon="5.84481">
        <ele>940.787354</ele>
        <time>2011-02-06T11:37:56Z</time>
      </trkpt>
      <trkpt lat="44.49707" lon="5.84451">
        <ele>942.710205</ele>
        <time>2011-02-06T11:38:00Z</time>
      </trkpt>
      <trkpt lat="44.49698" lon="5.84436">
        <ele>939.825928</ele>
        <time>2011-02-06T11:38:02Z</time>
      </trkpt>
      <trkpt lat="44.49684" lon="5.84413">
        <ele>938.384033</ele>
        <time>2011-02-06T11:38:05Z</time>
      </trkpt>
      <trkpt lat="44.49679" lon="5.84407">
        <ele>936.941895</ele>
        <time>2011-02-06T11:38:06Z</time>
      </trkpt>
      <trkpt lat="44.49671" lon="5.84398">
        <ele>937.90332</ele>
        <time>2011-02-06T11:38:08Z</time>
      </trkpt>
      <trkpt lat="44.49648" lon="5.84419">
        <ele>934.538818</ele>
        <time>2011-02-06T11:38:15Z</time>
      </trkpt>
      <trkpt lat="44.49644" lon="5.84437">
        <ele>933.09668</ele>
        <time>2011-02-06T11:38:17Z</time>
      </trkpt>
      <trkpt lat="44.49637" lon="5.84453">
        <ele>931.654785</ele>
        <time>2011-02-06T11:38:19Z</time>
      </trkpt>
      <trkpt lat="44.49625" lon="5.84475">
        <ele>930.693604</ele>
        <time>2011-02-06T11:38:22Z</time>
      </trkpt>
      <trkpt lat="44.49612" lon="5.84489">
        <ele>929.251465</ele>
        <time>2011-02-06T11:38:25Z</time>
      </trkpt>
      <trkpt lat="44.49562" lon="5.84526">
        <ele>930.693604</ele>
        <time>2011-02-06T11:38:38Z</time>
      </trkpt>
      <trkpt lat="44.49536" lon="5.84524">
        <ele>932.135498</ele>
        <time>2011-02-06T11:38:49Z</time>
      </trkpt>
      <trkpt lat="44.49529" lon="5.84516">
        <ele>930.212891</ele>
        <time>2011-02-06T11:38:51Z</time>
      </trkpt>
      <trkpt lat="44.49521" lon="5.84506">
        <ele>928.290283</ele>
        <time>2011-02-06T11:38:53Z</time>
      </trkpt>
      <trkpt lat="44.49513" lon="5.84494">
        <ele>928.290283</ele>
        <time>2011-02-06T11:38:55Z</time>
      </trkpt>
      <trkpt lat="44.49508" lon="5.84467">
        <ele>926.848389</ele>
        <time>2011-02-06T11:38:58Z</time>
      </trkpt>
      <trkpt lat="44.49507" lon="5.84456">
        <ele>926.367676</ele>
        <time>2011-02-06T11:38:59Z</time>
      </trkpt>
      <trkpt lat="44.49506" lon="5.84434">
        <ele>924.445068</ele>
        <time>2011-02-06T11:39:01Z</time>
      </trkpt>
      <trkpt lat="44.49516" lon="5.84368">
        <ele>922.522217</ele>
        <time>2011-02-06T11:39:07Z</time>
      </trkpt>
      <trkpt lat="44.49528" lon="5.8433">
        <ele>923.964111</ele>
        <time>2011-02-06T11:39:11Z</time>
      </trkpt>
      <trkpt lat="44.49531" lon="5.84273">
        <ele>923.964111</ele>
        <time>2011-02-06T11:39:18Z</time>
      </trkpt>
      <trkpt lat="44.49526" lon="5.84262">
        <ele>924.925781</ele>
        <time>2011-02-06T11:39:20Z</time>
      </trkpt>
      <trkpt lat="44.49512" lon="5.84237">
        <ele>923.483643</ele>
        <time>2011-02-06T11:39:25Z</time>
      </trkpt>
      <trkpt lat="44.4949" lon="5.84205">
        <ele>921.080322</ele>
        <time>2011-02-06T11:39:31Z</time>
      </trkpt>
      <trkpt lat="44.49476" lon="5.84179">
        <ele>920.118896</ele>
        <time>2011-02-06T11:39:35Z</time>
      </trkpt>
      <trkpt lat="44.49467" lon="5.84156">
        <ele>919.638428</ele>
        <time>2011-02-06T11:39:38Z</time>
      </trkpt>
      <trkpt lat="44.49437" lon="5.84091">
        <ele>917.715576</ele>
        <time>2011-02-06T11:39:47Z</time>
      </trkpt>
      <trkpt lat="44.49384" lon="5.83976">
        <ele>915.3125</ele>
        <time>2011-02-06T11:40:03Z</time>
      </trkpt>
      <trkpt lat="44.49376" lon="5.8396">
        <ele>913.870361</ele>
        <time>2011-02-06T11:40:05Z</time>
      </trkpt>
      <trkpt lat="44.49365" lon="5.83934">
        <ele>911.947998</ele>
        <time>2011-02-06T11:40:08Z</time>
      </trkpt>
      <trkpt lat="44.49344" lon="5.83864">
        <ele>909.063965</ele>
        <time>2011-02-06T11:40:15Z</time>
      </trkpt>
      <trkpt lat="44.49332" lon="5.83818">
        <ele>906.6604</ele>
        <time>2011-02-06T11:40:19Z</time>
      </trkpt>
      <trkpt lat="44.49326" lon="5.83794">
        <ele>902.815186</ele>
        <time>2011-02-06T11:40:21Z</time>
      </trkpt>
      <trkpt lat="44.49323" lon="5.8378">
        <ele>902.815186</ele>
        <time>2011-02-06T11:40:22Z</time>
      </trkpt>
      <trkpt lat="44.49313" lon="5.8374">
        <ele>899.450684</ele>
        <time>2011-02-06T11:40:25Z</time>
      </trkpt>
      <trkpt lat="44.4931" lon="5.83726">
        <ele>899.450684</ele>
        <time>2011-02-06T11:40:26Z</time>
      </trkpt>
      <trkpt lat="44.49303" lon="5.83698">
        <ele>895.124756</ele>
        <time>2011-02-06T11:40:28Z</time>
      </trkpt>
      <trkpt lat="44.49299" lon="5.83683">
        <ele>895.124756</ele>
        <time>2011-02-06T11:40:29Z</time>
      </trkpt>
      <trkpt lat="44.49289" lon="5.83638">
        <ele>891.279297</ele>
        <time>2011-02-06T11:40:32Z</time>
      </trkpt>
      <trkpt lat="44.49286" lon="5.83623">
        <ele>891.279297</ele>
        <time>2011-02-06T11:40:33Z</time>
      </trkpt>
      <trkpt lat="44.4928" lon="5.83592">
        <ele>889.356689</ele>
        <time>2011-02-06T11:40:35Z</time>
      </trkpt>
      <trkpt lat="44.49271" lon="5.83548">
        <ele>887.434082</ele>
        <time>2011-02-06T11:40:38Z</time>
      </trkpt>
      <trkpt lat="44.49264" lon="5.83521">
        <ele>888.876221</ele>
        <time>2011-02-06T11:40:40Z</time>
      </trkpt>
      <trkpt lat="44.49257" lon="5.83449">
        <ele>891.76001</ele>
        <time>2011-02-06T11:40:46Z</time>
      </trkpt>
      <trkpt lat="44.49257" lon="5.83388">
        <ele>891.76001</ele>
        <time>2011-02-06T11:40:52Z</time>
      </trkpt>
      <trkpt lat="44.49255" lon="5.83328">
        <ele>890.798584</ele>
        <time>2011-02-06T11:40:58Z</time>
      </trkpt>
      <trkpt lat="44.49243" lon="5.83292">
        <ele>889.356689</ele>
        <time>2011-02-06T11:41:02Z</time>
      </trkpt>
      <trkpt lat="44.49222" lon="5.83259">
        <ele>886.953369</ele>
        <time>2011-02-06T11:41:06Z</time>
      </trkpt>
      <trkpt lat="44.49199" lon="5.83222">
        <ele>884.06958</ele>
        <time>2011-02-06T11:41:10Z</time>
      </trkpt>
      <trkpt lat="44.49172" lon="5.83177">
        <ele>882.627686</ele>
        <time>2011-02-06T11:41:15Z</time>
      </trkpt>
      <trkpt lat="44.49155" lon="5.83151">
        <ele>882.146973</ele>
        <time>2011-02-06T11:41:18Z</time>
      </trkpt>
      <trkpt lat="44.4915" lon="5.83083">
        <ele>880.705078</ele>
        <time>2011-02-06T11:41:25Z</time>
      </trkpt>
      <trkpt lat="44.4917" lon="5.83004">
        <ele>878.782471</ele>
        <time>2011-02-06T11:41:36Z</time>
      </trkpt>
      <trkpt lat="44.49174" lon="5.82993">
        <ele>877.340576</ele>
        <time>2011-02-06T11:41:38Z</time>
      </trkpt>
      <trkpt lat="44.49159" lon="5.82977">
        <ele>877.340576</ele>
        <time>2011-02-06T11:41:43Z</time>
      </trkpt>
      <trkpt lat="44.49145" lon="5.82984">
        <ele>876.859863</ele>
        <time>2011-02-06T11:41:47Z</time>
      </trkpt>
      <trkpt lat="44.49118" lon="5.82997">
        <ele>879.743652</ele>
        <time>2011-02-06T11:41:57Z</time>
      </trkpt>
      <trkpt lat="44.49101" lon="5.83004">
        <ele>879.262939</ele>
        <time>2011-02-06T11:42:03Z</time>
      </trkpt>
      <trkpt lat="44.49044" lon="5.83007">
        <ele>879.262939</ele>
        <time>2011-02-06T11:42:20Z</time>
      </trkpt>
      <trkpt lat="44.49026" lon="5.83007">
        <ele>877.821045</ele>
        <time>2011-02-06T11:42:24Z</time>
      </trkpt>
      <trkpt lat="44.49003" lon="5.8301">
        <ele>878.301758</ele>
        <time>2011-02-06T11:42:29Z</time>
      </trkpt>
      <trkpt lat="44.4899" lon="5.83017">
        <ele>877.821045</ele>
        <time>2011-02-06T11:42:32Z</time>
      </trkpt>
      <trkpt lat="44.48953" lon="5.83037">
        <ele>875.898193</ele>
        <time>2011-02-06T11:42:41Z</time>
      </trkpt>
      <trkpt lat="44.48926" lon="5.83039">
        <ele>875.41748</ele>
        <time>2011-02-06T11:42:46Z</time>
      </trkpt>
      <trkpt lat="44.4889" lon="5.83032">
        <ele>873.495117</ele>
        <time>2011-02-06T11:42:52Z</time>
      </trkpt>
      <trkpt lat="44.48859" lon="5.83016">
        <ele>872.533691</ele>
        <time>2011-02-06T11:42:57Z</time>
      </trkpt>
      <trkpt lat="44.48822" lon="5.82976">
        <ele>867.246582</ele>
        <time>2011-02-06T11:43:03Z</time>
      </trkpt>
      <trkpt lat="44.48816" lon="5.82969">
        <ele>867.246582</ele>
        <time>2011-02-06T11:43:04Z</time>
      </trkpt>
      <trkpt lat="44.48764" lon="5.8297">
        <ele>864.362549</ele>
        <time>2011-02-06T11:43:11Z</time>
      </trkpt>
      <trkpt lat="44.48756" lon="5.82977">
        <ele>862.439941</ele>
        <time>2011-02-06T11:43:12Z</time>
      </trkpt>
      <trkpt lat="44.48654" lon="5.83031">
        <ele>858.594482</ele>
        <time>2011-02-06T11:43:26Z</time>
      </trkpt>
      <trkpt lat="44.48647" lon="5.83033">
        <ele>858.594482</ele>
        <time>2011-02-06T11:43:27Z</time>
      </trkpt>
      <trkpt lat="44.486" lon="5.83041">
        <ele>855.22998</ele>
        <time>2011-02-06T11:43:33Z</time>
      </trkpt>
      <trkpt lat="44.48592" lon="5.83044">
        <ele>855.22998</ele>
        <time>2011-02-06T11:43:34Z</time>
      </trkpt>
      <trkpt lat="44.48575" lon="5.83049">
        <ele>854.268799</ele>
        <time>2011-02-06T11:43:36Z</time>
      </trkpt>
      <trkpt lat="44.48521" lon="5.83076">
        <ele>851.865479</ele>
        <time>2011-02-06T11:43:43Z</time>
      </trkpt>
      <trkpt lat="44.4846" lon="5.83081">
        <ele>850.904053</ele>
        <time>2011-02-06T11:43:51Z</time>
      </trkpt>
      <trkpt lat="44.48394" lon="5.83072">
        <ele>849.942871</ele>
        <time>2011-02-06T11:44:00Z</time>
      </trkpt>
      <trkpt lat="44.48359" lon="5.83069">
        <ele>848.981445</ele>
        <time>2011-02-06T11:44:05Z</time>
      </trkpt>
      <trkpt lat="44.4834" lon="5.83063">
        <ele>848.500732</ele>
        <time>2011-02-06T11:44:08Z</time>
      </trkpt>
      <trkpt lat="44.48321" lon="5.83051">
        <ele>847.058838</ele>
        <time>2011-02-06T11:44:11Z</time>
      </trkpt>
      <trkpt lat="44.48307" lon="5.83043">
        <ele>847.539551</ele>
        <time>2011-02-06T11:44:13Z</time>
      </trkpt>
      <trkpt lat="44.48289" lon="5.83025">
        <ele>846.097656</ele>
        <time>2011-02-06T11:44:16Z</time>
      </trkpt>
      <trkpt lat="44.48255" lon="5.83005">
        <ele>844.175049</ele>
        <time>2011-02-06T11:44:21Z</time>
      </trkpt>
      <trkpt lat="44.48169" lon="5.82975">
        <ele>841.290771</ele>
        <time>2011-02-06T11:44:33Z</time>
      </trkpt>
      <trkpt lat="44.48133" lon="5.82954">
        <ele>838.887695</ele>
        <time>2011-02-06T11:44:38Z</time>
      </trkpt>
      <trkpt lat="44.48111" lon="5.82938">
        <ele>836.964844</ele>
        <time>2011-02-06T11:44:41Z</time>
      </trkpt>
      <trkpt lat="44.48046" lon="5.82845">
        <ele>834.081055</ele>
        <time>2011-02-06T11:44:53Z</time>
      </trkpt>
      <trkpt lat="44.47959" lon="5.82712">
        <ele>831.197266</ele>
        <time>2011-02-06T11:45:12Z</time>
      </trkpt>
      <trkpt lat="44.47946" lon="5.82691">
        <ele>830.716553</ele>
        <time>2011-02-06T11:45:15Z</time>
      </trkpt>
      <trkpt lat="44.47931" lon="5.82647">
        <ele>829.755127</ele>
        <time>2011-02-06T11:45:20Z</time>
      </trkpt>
      <trkpt lat="44.47913" lon="5.8256">
        <ele>826.871094</ele>
        <time>2011-02-06T11:45:29Z</time>
      </trkpt>
      <trkpt lat="44.47882" lon="5.82403">
        <ele>823.987061</ele>
        <time>2011-02-06T11:45:46Z</time>
      </trkpt>
      <trkpt lat="44.47876" lon="5.82378">
        <ele>824.467773</ele>
        <time>2011-02-06T11:45:49Z</time>
      </trkpt>
      <trkpt lat="44.47836" lon="5.82325">
        <ele>823.987061</ele>
        <time>2011-02-06T11:45:59Z</time>
      </trkpt>
      <trkpt lat="44.47829" lon="5.82325">
        <ele>823.987061</ele>
        <time>2011-02-06T11:46:00Z</time>
      </trkpt>
      <trkpt lat="44.47775" lon="5.82329">
        <ele>819.661377</ele>
        <time>2011-02-06T11:46:08Z</time>
      </trkpt>
      <trkpt lat="44.47768" lon="5.8233">
        <ele>819.661377</ele>
        <time>2011-02-06T11:46:09Z</time>
      </trkpt>
      <trkpt lat="44.47673" lon="5.82376">
        <ele>818.699951</ele>
        <time>2011-02-06T11:46:25Z</time>
      </trkpt>
      <trkpt lat="44.47631" lon="5.82396">
        <ele>822.064453</ele>
        <time>2011-02-06T11:46:36Z</time>
      </trkpt>
      <trkpt lat="44.47627" lon="5.82396">
        <ele>821.58374</ele>
        <time>2011-02-06T11:46:37Z</time>
      </trkpt>
      <trkpt lat="44.47619" lon="5.82395">
        <ele>820.141846</ele>
        <time>2011-02-06T11:46:39Z</time>
      </trkpt>
      <trkpt lat="44.47571" lon="5.82385">
        <ele>823.506592</ele>
        <time>2011-02-06T11:46:54Z</time>
      </trkpt>
      <trkpt lat="44.47533" lon="5.82396">
        <ele>824.467773</ele>
        <time>2011-02-06T11:47:11Z</time>
      </trkpt>
      <trkpt lat="44.47519" lon="5.82391">
        <ele>823.506592</ele>
        <time>2011-02-06T11:47:18Z</time>
      </trkpt>
      <trkpt lat="44.47519" lon="5.82375">
        <ele>822.545166</ele>
        <time>2011-02-06T11:47:21Z</time>
      </trkpt>
      <trkpt lat="44.47528" lon="5.82291">
        <ele>817.258057</ele>
        <time>2011-02-06T11:47:34Z</time>
      </trkpt>
      <trkpt lat="44.47529" lon="5.82284">
        <ele>817.258057</ele>
        <time>2011-02-06T11:47:35Z</time>
      </trkpt>
      <trkpt lat="44.4753" lon="5.82242">
        <ele>815.816162</ele>
        <time>2011-02-06T11:47:42Z</time>
      </trkpt>
      <trkpt lat="44.47525" lon="5.82213">
        <ele>812.932129</ele>
        <time>2011-02-06T11:47:46Z</time>
      </trkpt>
      <trkpt lat="44.47525" lon="5.82197">
        <ele>811.009277</ele>
        <time>2011-02-06T11:47:48Z</time>
      </trkpt>
      <trkpt lat="44.47538" lon="5.82119">
        <ele>812.932129</ele>
        <time>2011-02-06T11:47:58Z</time>
      </trkpt>
      <trkpt lat="44.47543" lon="5.82079">
        <ele>812.451416</ele>
        <time>2011-02-06T11:48:09Z</time>
      </trkpt>
      <trkpt lat="44.47545" lon="5.82065">
        <ele>811.009277</ele>
        <time>2011-02-06T11:48:11Z</time>
      </trkpt>
      <trkpt lat="44.47551" lon="5.82015">
        <ele>807.644775</ele>
        <time>2011-02-06T11:48:17Z</time>
      </trkpt>
      <trkpt lat="44.47553" lon="5.82005">
        <ele>807.644775</ele>
        <time>2011-02-06T11:48:18Z</time>
      </trkpt>
      <trkpt lat="44.47565" lon="5.81907">
        <ele>804.760742</ele>
        <time>2011-02-06T11:48:28Z</time>
      </trkpt>
      <trkpt lat="44.47572" lon="5.81865">
        <ele>803.318848</ele>
        <time>2011-02-06T11:48:32Z</time>
      </trkpt>
      <trkpt lat="44.47601" lon="5.81652">
        <ele>799.954346</ele>
        <time>2011-02-06T11:48:54Z</time>
      </trkpt>
      <trkpt lat="44.47626" lon="5.81511">
        <ele>799.473633</ele>
        <time>2011-02-06T11:49:11Z</time>
      </trkpt>
      <trkpt lat="44.47643" lon="5.81449">
        <ele>799.473633</ele>
        <time>2011-02-06T11:49:19Z</time>
      </trkpt>
      <trkpt lat="44.47655" lon="5.81421">
        <ele>798.99292</ele>
        <time>2011-02-06T11:49:23Z</time>
      </trkpt>
      <trkpt lat="44.47664" lon="5.81373">
        <ele>799.954346</ele>
        <time>2011-02-06T11:49:30Z</time>
      </trkpt>
      <trkpt lat="44.47665" lon="5.81347">
        <ele>800.915527</ele>
        <time>2011-02-06T11:49:34Z</time>
      </trkpt>
      <trkpt lat="44.47663" lon="5.81209">
        <ele>798.031738</ele>
        <time>2011-02-06T11:49:52Z</time>
      </trkpt>
      <trkpt lat="44.4766" lon="5.81091">
        <ele>795.147461</ele>
        <time>2011-02-06T11:50:05Z</time>
      </trkpt>
      <trkpt lat="44.47663" lon="5.81052">
        <ele>793.705566</ele>
        <time>2011-02-06T11:50:09Z</time>
      </trkpt>
      <trkpt lat="44.47673" lon="5.80897">
        <ele>793.705566</ele>
        <time>2011-02-06T11:50:27Z</time>
      </trkpt>
      <trkpt lat="44.47674" lon="5.80818">
        <ele>795.628174</ele>
        <time>2011-02-06T11:50:38Z</time>
      </trkpt>
      <trkpt lat="44.47671" lon="5.80722">
        <ele>795.147461</ele>
        <time>2011-02-06T11:50:55Z</time>
      </trkpt>
      <trkpt lat="44.47671" lon="5.80692">
        <ele>793.224854</ele>
        <time>2011-02-06T11:50:59Z</time>
      </trkpt>
      <trkpt lat="44.47675" lon="5.80647">
        <ele>791.302246</ele>
        <time>2011-02-06T11:51:04Z</time>
      </trkpt>
      <trkpt lat="44.47676" lon="5.80627">
        <ele>789.860352</ele>
        <time>2011-02-06T11:51:06Z</time>
      </trkpt>
      <trkpt lat="44.47674" lon="5.80585">
        <ele>790.341064</ele>
        <time>2011-02-06T11:51:11Z</time>
      </trkpt>
      <trkpt lat="44.47648" lon="5.80547">
        <ele>792.263672</ele>
        <time>2011-02-06T11:51:19Z</time>
      </trkpt>
      <trkpt lat="44.47609" lon="5.80533">
        <ele>792.263672</ele>
        <time>2011-02-06T11:51:28Z</time>
      </trkpt>
      <trkpt lat="44.47592" lon="5.80507">
        <ele>793.224854</ele>
        <time>2011-02-06T11:51:34Z</time>
      </trkpt>
      <trkpt lat="44.47586" lon="5.8048">
        <ele>793.224854</ele>
        <time>2011-02-06T11:51:39Z</time>
      </trkpt>
      <trkpt lat="44.47577" lon="5.8038">
        <ele>792.744385</ele>
        <time>2011-02-06T11:51:55Z</time>
      </trkpt>
      <trkpt lat="44.47608" lon="5.80254">
        <ele>791.302246</ele>
        <time>2011-02-06T11:52:13Z</time>
      </trkpt>
      <trkpt lat="44.47607" lon="5.80137">
        <ele>787.457031</ele>
        <time>2011-02-06T11:52:26Z</time>
      </trkpt>
      <trkpt lat="44.47602" lon="5.80039">
        <ele>790.341064</ele>
        <time>2011-02-06T11:52:39Z</time>
      </trkpt>
      <trkpt lat="44.47598" lon="5.79985">
        <ele>793.224854</ele>
        <time>2011-02-06T11:52:53Z</time>
      </trkpt>
      <trkpt lat="44.47586" lon="5.79882">
        <ele>790.821533</ele>
        <time>2011-02-06T11:53:12Z</time>
      </trkpt>
      <trkpt lat="44.47581" lon="5.79848">
        <ele>787.937744</ele>
        <time>2011-02-06T11:53:16Z</time>
      </trkpt>
      <trkpt lat="44.47579" lon="5.79819">
        <ele>786.015137</ele>
        <time>2011-02-06T11:53:19Z</time>
      </trkpt>
      <trkpt lat="44.47579" lon="5.79797">
        <ele>785.053955</ele>
        <time>2011-02-06T11:53:21Z</time>
      </trkpt>
      <trkpt lat="44.47583" lon="5.79741">
        <ele>782.169922</ele>
        <time>2011-02-06T11:53:26Z</time>
      </trkpt>
      <trkpt lat="44.47588" lon="5.79695">
        <ele>780.247314</ele>
        <time>2011-02-06T11:53:30Z</time>
      </trkpt>
      <trkpt lat="44.47592" lon="5.79572">
        <ele>782.169922</ele>
        <time>2011-02-06T11:53:43Z</time>
      </trkpt>
      <trkpt lat="44.4759" lon="5.79502">
        <ele>785.053955</ele>
        <time>2011-02-06T11:53:56Z</time>
      </trkpt>
      <trkpt lat="44.47606" lon="5.7941">
        <ele>785.534424</ele>
        <time>2011-02-06T11:54:14Z</time>
      </trkpt>
      <trkpt lat="44.47613" lon="5.79384">
        <ele>784.573242</ele>
        <time>2011-02-06T11:54:18Z</time>
      </trkpt>
      <trkpt lat="44.4763" lon="5.79297">
        <ele>782.169922</ele>
        <time>2011-02-06T11:54:30Z</time>
      </trkpt>
      <trkpt lat="44.47633" lon="5.7927">
        <ele>780.247314</ele>
        <time>2011-02-06T11:54:33Z</time>
      </trkpt>
      <trkpt lat="44.47633" lon="5.79261">
        <ele>779.766357</ele>
        <time>2011-02-06T11:54:34Z</time>
      </trkpt>
      <trkpt lat="44.47627" lon="5.7921">
        <ele>776.401855</ele>
        <time>2011-02-06T11:54:39Z</time>
      </trkpt>
      <trkpt lat="44.47626" lon="5.79199">
        <ele>776.401855</ele>
        <time>2011-02-06T11:54:40Z</time>
      </trkpt>
      <trkpt lat="44.47622" lon="5.79177">
        <ele>774.959961</ele>
        <time>2011-02-06T11:54:42Z</time>
      </trkpt>
      <trkpt lat="44.4762" lon="5.79046">
        <ele>774.959961</ele>
        <time>2011-02-06T11:54:54Z</time>
      </trkpt>
      <trkpt lat="44.47616" lon="5.79021">
        <ele>774.959961</ele>
        <time>2011-02-06T11:54:57Z</time>
      </trkpt>
      <trkpt lat="44.47606" lon="5.78997">
        <ele>773.518066</ele>
        <time>2011-02-06T11:55:00Z</time>
      </trkpt>
      <trkpt lat="44.47572" lon="5.78883">
        <ele>770.634033</ele>
        <time>2011-02-06T11:55:13Z</time>
      </trkpt>
      <trkpt lat="44.4756" lon="5.78838">
        <ele>771.114746</ele>
        <time>2011-02-06T11:55:18Z</time>
      </trkpt>
      <trkpt lat="44.47561" lon="5.78802">
        <ele>770.634033</ele>
        <time>2011-02-06T11:55:22Z</time>
      </trkpt>
      <trkpt lat="44.47572" lon="5.78683">
        <ele>773.037354</ele>
        <time>2011-02-06T11:55:39Z</time>
      </trkpt>
      <trkpt lat="44.47576" lon="5.78663">
        <ele>772.556641</ele>
        <time>2011-02-06T11:55:42Z</time>
      </trkpt>
      <trkpt lat="44.47612" lon="5.78558">
        <ele>775.921143</ele>
        <time>2011-02-06T11:56:02Z</time>
      </trkpt>
      <trkpt lat="44.47621" lon="5.78492">
        <ele>777.363281</ele>
        <time>2011-02-06T11:56:19Z</time>
      </trkpt>
      <trkpt lat="44.47645" lon="5.78441">
        <ele>779.766357</ele>
        <time>2011-02-06T11:56:35Z</time>
      </trkpt>
      <trkpt lat="44.47673" lon="5.78374">
        <ele>778.805176</ele>
        <time>2011-02-06T11:56:52Z</time>
      </trkpt>
      <trkpt lat="44.47671" lon="5.78371">
        <ele>778.805176</ele>
        <time>2011-02-06T11:56:53Z</time>
      </trkpt>
      <trkpt lat="44.47654" lon="5.78351">
        <ele>776.882568</ele>
        <time>2011-02-06T11:56:58Z</time>
      </trkpt>
      <trkpt lat="44.47643" lon="5.78338">
        <ele>774.959961</ele>
        <time>2011-02-06T11:57:01Z</time>
      </trkpt>
      <trkpt lat="44.47581" lon="5.78301">
        <ele>772.556641</ele>
        <time>2011-02-06T11:57:13Z</time>
      </trkpt>
      <trkpt lat="44.47562" lon="5.7828">
        <ele>772.556641</ele>
        <time>2011-02-06T11:57:17Z</time>
      </trkpt>
      <trkpt lat="44.47521" lon="5.78216">
        <ele>770.15332</ele>
        <time>2011-02-06T11:57:28Z</time>
      </trkpt>
      <trkpt lat="44.47504" lon="5.78203">
        <ele>768.230713</ele>
        <time>2011-02-06T11:57:31Z</time>
      </trkpt>
      <trkpt lat="44.47491" lon="5.78195">
        <ele>766.788818</ele>
        <time>2011-02-06T11:57:33Z</time>
      </trkpt>
      <trkpt lat="44.47404" lon="5.7816">
        <ele>767.269531</ele>
        <time>2011-02-06T11:57:48Z</time>
      </trkpt>
      <trkpt lat="44.47388" lon="5.78153">
        <ele>767.269531</ele>
        <time>2011-02-06T11:57:54Z</time>
      </trkpt>
      <trkpt lat="44.47375" lon="5.78165">
        <ele>766.788818</ele>
        <time>2011-02-06T11:58:00Z</time>
      </trkpt>
      <trkpt lat="44.47348" lon="5.7821">
        <ele>764.385498</ele>
        <time>2011-02-06T11:58:08Z</time>
      </trkpt>
      <trkpt lat="44.47324" lon="5.78253">
        <ele>763.424072</ele>
        <time>2011-02-06T11:58:15Z</time>
      </trkpt>
      <trkpt lat="44.47261" lon="5.78363">
        <ele>762.943359</ele>
        <time>2011-02-06T11:58:34Z</time>
      </trkpt>
      <trkpt lat="44.47203" lon="5.78462">
        <ele>762.943359</ele>
        <time>2011-02-06T11:58:52Z</time>
      </trkpt>
      <trkpt lat="44.47178" lon="5.78506">
        <ele>762.462646</ele>
        <time>2011-02-06T11:59:00Z</time>
      </trkpt>
      <trkpt lat="44.47168" lon="5.78523">
        <ele>762.943359</ele>
        <time>2011-02-06T11:59:03Z</time>
      </trkpt>
      <trkpt lat="44.47103" lon="5.78638">
        <ele>764.385498</ele>
        <time>2011-02-06T11:59:26Z</time>
      </trkpt>
      <trkpt lat="44.47042" lon="5.7874">
        <ele>762.462646</ele>
        <time>2011-02-06T11:59:44Z</time>
      </trkpt>
      <trkpt lat="44.47007" lon="5.78753">
        <ele>761.982178</ele>
        <time>2011-02-06T11:59:51Z</time>
      </trkpt>
      <trkpt lat="44.46988" lon="5.78746">
        <ele>762.462646</ele>
        <time>2011-02-06T11:59:55Z</time>
      </trkpt>
      <trkpt lat="44.46963" lon="5.78727">
        <ele>762.943359</ele>
        <time>2011-02-06T12:00:01Z</time>
      </trkpt>
      <trkpt lat="44.46941" lon="5.78684">
        <ele>764.866211</ele>
        <time>2011-02-06T12:00:10Z</time>
      </trkpt>
      <trkpt lat="44.46885" lon="5.78648">
        <ele>762.943359</ele>
        <time>2011-02-06T12:00:23Z</time>
      </trkpt>
      <trkpt lat="44.46861" lon="5.78629">
        <ele>762.462646</ele>
        <time>2011-02-06T12:00:28Z</time>
      </trkpt>
      <trkpt lat="44.46799" lon="5.78576">
        <ele>763.904541</ele>
        <time>2011-02-06T12:00:42Z</time>
      </trkpt>
      <trkpt lat="44.46741" lon="5.78524">
        <ele>765.827637</ele>
        <time>2011-02-06T12:00:59Z</time>
      </trkpt>
      <trkpt lat="44.46687" lon="5.78457">
        <ele>766.788818</ele>
        <time>2011-02-06T12:01:20Z</time>
      </trkpt>
      <trkpt lat="44.46653" lon="5.78393">
        <ele>767.269531</ele>
        <time>2011-02-06T12:01:38Z</time>
      </trkpt>
      <trkpt lat="44.46598" lon="5.78356">
        <ele>768.230713</ele>
        <time>2011-02-06T12:01:55Z</time>
      </trkpt>
      <trkpt lat="44.46534" lon="5.7832">
        <ele>768.711426</ele>
        <time>2011-02-06T12:02:14Z</time>
      </trkpt>
      <trkpt lat="44.4646" lon="5.783">
        <ele>769.192139</ele>
        <time>2011-02-06T12:02:34Z</time>
      </trkpt>
      <trkpt lat="44.46404" lon="5.78325">
        <ele>769.192139</ele>
        <time>2011-02-06T12:02:49Z</time>
      </trkpt>
      <trkpt lat="44.46331" lon="5.78317">
        <ele>769.672852</ele>
        <time>2011-02-06T12:03:06Z</time>
      </trkpt>
      <trkpt lat="44.46298" lon="5.78314">
        <ele>769.672852</ele>
        <time>2011-02-06T12:03:13Z</time>
      </trkpt>
      <trkpt lat="44.46235" lon="5.78271">
        <ele>771.114746</ele>
        <time>2011-02-06T12:03:30Z</time>
      </trkpt>
      <trkpt lat="44.46171" lon="5.78251">
        <ele>772.556641</ele>
        <time>2011-02-06T12:03:49Z</time>
      </trkpt>
      <trkpt lat="44.46103" lon="5.78258">
        <ele>775.44043</ele>
        <time>2011-02-06T12:04:11Z</time>
      </trkpt>
      <trkpt lat="44.46061" lon="5.78307">
        <ele>774.959961</ele>
        <time>2011-02-06T12:04:26Z</time>
      </trkpt>
      <trkpt lat="44.46058" lon="5.78311">
        <ele>774.959961</ele>
        <time>2011-02-06T12:04:27Z</time>
      </trkpt>
      <trkpt lat="44.46037" lon="5.78326">
        <ele>774.479248</ele>
        <time>2011-02-06T12:04:32Z</time>
      </trkpt>
      <trkpt lat="44.45991" lon="5.78329">
        <ele>774.959961</ele>
        <time>2011-02-06T12:04:42Z</time>
      </trkpt>
      <trkpt lat="44.45946" lon="5.78306">
        <ele>776.882568</ele>
        <time>2011-02-06T12:04:55Z</time>
      </trkpt>
      <trkpt lat="44.45912" lon="5.78281">
        <ele>779.766357</ele>
        <time>2011-02-06T12:05:08Z</time>
      </trkpt>
      <trkpt lat="44.45865" lon="5.78288">
        <ele>782.650635</ele>
        <time>2011-02-06T12:05:27Z</time>
      </trkpt>
      <trkpt lat="44.45832" lon="5.78319">
        <ele>785.053955</ele>
        <time>2011-02-06T12:05:44Z</time>
      </trkpt>
      <trkpt lat="44.45796" lon="5.78362">
        <ele>787.937744</ele>
        <time>2011-02-06T12:06:04Z</time>
      </trkpt>
      <trkpt lat="44.45749" lon="5.78406">
        <ele>790.341064</ele>
        <time>2011-02-06T12:06:24Z</time>
      </trkpt>
      <trkpt lat="44.45738" lon="5.78409">
        <ele>788.89917</ele>
        <time>2011-02-06T12:06:27Z</time>
      </trkpt>
      <trkpt lat="44.45689" lon="5.78386">
        <ele>789.860352</ele>
        <time>2011-02-06T12:06:42Z</time>
      </trkpt>
      <trkpt lat="44.45669" lon="5.78336">
        <ele>793.224854</ele>
        <time>2011-02-06T12:06:57Z</time>
      </trkpt>
      <trkpt lat="44.45654" lon="5.78297">
        <ele>794.666748</ele>
        <time>2011-02-06T12:07:09Z</time>
      </trkpt>
      <trkpt lat="44.45627" lon="5.78263">
        <ele>796.109131</ele>
        <time>2011-02-06T12:07:26Z</time>
      </trkpt>
      <trkpt lat="44.45603" lon="5.7828">
        <ele>798.512207</ele>
        <time>2011-02-06T12:07:38Z</time>
      </trkpt>
      <trkpt lat="44.45557" lon="5.78319">
        <ele>800.915527</ele>
        <time>2011-02-06T12:07:59Z</time>
      </trkpt>
      <trkpt lat="44.45504" lon="5.78317">
        <ele>803.318848</ele>
        <time>2011-02-06T12:08:19Z</time>
      </trkpt>
      <trkpt lat="44.45441" lon="5.78319">
        <ele>806.202637</ele>
        <time>2011-02-06T12:08:44Z</time>
      </trkpt>
      <trkpt lat="44.45402" lon="5.78355">
        <ele>802.838135</ele>
        <time>2011-02-06T12:09:00Z</time>
      </trkpt>
      <trkpt lat="44.45399" lon="5.7836">
        <ele>802.838135</ele>
        <time>2011-02-06T12:09:01Z</time>
      </trkpt>
      <trkpt lat="44.45362" lon="5.78408">
        <ele>799.473633</ele>
        <time>2011-02-06T12:09:09Z</time>
      </trkpt>
      <trkpt lat="44.45344" lon="5.78431">
        <ele>797.551025</ele>
        <time>2011-02-06T12:09:12Z</time>
      </trkpt>
      <trkpt lat="44.45315" lon="5.78466">
        <ele>795.147461</ele>
        <time>2011-02-06T12:09:17Z</time>
      </trkpt>
      <trkpt lat="44.45295" lon="5.78493">
        <ele>794.666748</ele>
        <time>2011-02-06T12:09:21Z</time>
      </trkpt>
      <trkpt lat="44.45274" lon="5.78507">
        <ele>793.705566</ele>
        <time>2011-02-06T12:09:24Z</time>
      </trkpt>
      <trkpt lat="44.45259" lon="5.78503">
        <ele>792.263672</ele>
        <time>2011-02-06T12:09:26Z</time>
      </trkpt>
      <trkpt lat="44.45247" lon="5.78492">
        <ele>791.782959</ele>
        <time>2011-02-06T12:09:28Z</time>
      </trkpt>
      <trkpt lat="44.45232" lon="5.78474">
        <ele>793.224854</ele>
        <time>2011-02-06T12:09:31Z</time>
      </trkpt>
      <trkpt lat="44.45192" lon="5.78426">
        <ele>794.186279</ele>
        <time>2011-02-06T12:09:42Z</time>
      </trkpt>
      <trkpt lat="44.45157" lon="5.78428">
        <ele>795.147461</ele>
        <time>2011-02-06T12:09:51Z</time>
      </trkpt>
      <trkpt lat="44.45144" lon="5.78443">
        <ele>794.186279</ele>
        <time>2011-02-06T12:09:55Z</time>
      </trkpt>
      <trkpt lat="44.45107" lon="5.78443">
        <ele>794.186279</ele>
        <time>2011-02-06T12:10:03Z</time>
      </trkpt>
      <trkpt lat="44.45096" lon="5.7843">
        <ele>794.666748</ele>
        <time>2011-02-06T12:10:06Z</time>
      </trkpt>
      <trkpt lat="44.45065" lon="5.78432">
        <ele>795.628174</ele>
        <time>2011-02-06T12:10:14Z</time>
      </trkpt>
      <trkpt lat="44.45042" lon="5.78448">
        <ele>796.589844</ele>
        <time>2011-02-06T12:10:20Z</time>
      </trkpt>
      <trkpt lat="44.4501" lon="5.7843">
        <ele>795.147461</ele>
        <time>2011-02-06T12:10:28Z</time>
      </trkpt>
      <trkpt lat="44.45014" lon="5.78405">
        <ele>795.147461</ele>
        <time>2011-02-06T12:10:32Z</time>
      </trkpt>
      <trkpt lat="44.45023" lon="5.78367">
        <ele>795.628174</ele>
        <time>2011-02-06T12:10:38Z</time>
      </trkpt>
      <trkpt lat="44.45013" lon="5.78324">
        <ele>794.666748</ele>
        <time>2011-02-06T12:10:46Z</time>
      </trkpt>
      <trkpt lat="44.44985" lon="5.78296">
        <ele>796.109131</ele>
        <time>2011-02-06T12:10:54Z</time>
      </trkpt>
      <trkpt lat="44.44914" lon="5.7823">
        <ele>793.705566</ele>
        <time>2011-02-06T12:11:11Z</time>
      </trkpt>
      <trkpt lat="44.44903" lon="5.7822">
        <ele>791.782959</ele>
        <time>2011-02-06T12:11:13Z</time>
      </trkpt>
      <trkpt lat="44.44822" lon="5.78197">
        <ele>789.860352</ele>
        <time>2011-02-06T12:11:26Z</time>
      </trkpt>
      <trkpt lat="44.44764" lon="5.782">
        <ele>789.860352</ele>
        <time>2011-02-06T12:11:37Z</time>
      </trkpt>
      <trkpt lat="44.44687" lon="5.78267">
        <ele>787.457031</ele>
        <time>2011-02-06T12:11:53Z</time>
      </trkpt>
      <trkpt lat="44.44655" lon="5.78298">
        <ele>787.457031</ele>
        <time>2011-02-06T12:12:00Z</time>
      </trkpt>
      <trkpt lat="44.44621" lon="5.7833">
        <ele>786.976318</ele>
        <time>2011-02-06T12:12:08Z</time>
      </trkpt>
      <trkpt lat="44.44589" lon="5.78337">
        <ele>784.092529</ele>
        <time>2011-02-06T12:12:13Z</time>
      </trkpt>
      <trkpt lat="44.44575" lon="5.78328">
        <ele>783.131104</ele>
        <time>2011-02-06T12:12:15Z</time>
      </trkpt>
      <trkpt lat="44.44564" lon="5.7832">
        <ele>783.611816</ele>
        <time>2011-02-06T12:12:17Z</time>
      </trkpt>
      <trkpt lat="44.4455" lon="5.78312">
        <ele>785.053955</ele>
        <time>2011-02-06T12:12:20Z</time>
      </trkpt>
      <trkpt lat="44.44546" lon="5.7831">
        <ele>786.49585</ele>
        <time>2011-02-06T12:12:21Z</time>
      </trkpt>
      <trkpt lat="44.44521" lon="5.78328">
        <ele>789.860352</ele>
        <time>2011-02-06T12:12:33Z</time>
      </trkpt>
      <trkpt lat="44.44494" lon="5.78384">
        <ele>792.744385</ele>
        <time>2011-02-06T12:12:51Z</time>
      </trkpt>
      <trkpt lat="44.44461" lon="5.78463">
        <ele>795.628174</ele>
        <time>2011-02-06T12:13:16Z</time>
      </trkpt>
      <trkpt lat="44.44441" lon="5.78511">
        <ele>798.031738</ele>
        <time>2011-02-06T12:13:32Z</time>
      </trkpt>
      <trkpt lat="44.44428" lon="5.78571">
        <ele>800.435059</ele>
        <time>2011-02-06T12:13:51Z</time>
      </trkpt>
      <trkpt lat="44.44417" lon="5.78633">
        <ele>803.799561</ele>
        <time>2011-02-06T12:14:10Z</time>
      </trkpt>
      <trkpt lat="44.44401" lon="5.78682">
        <ele>806.202637</ele>
        <time>2011-02-06T12:14:26Z</time>
      </trkpt>
      <trkpt lat="44.44395" lon="5.78719">
        <ele>809.567383</ele>
        <time>2011-02-06T12:14:40Z</time>
      </trkpt>
      <trkpt lat="44.4439" lon="5.7875">
        <ele>811.009277</ele>
        <time>2011-02-06T12:14:53Z</time>
      </trkpt>
      <trkpt lat="44.4438" lon="5.78806">
        <ele>813.893311</ele>
        <time>2011-02-06T12:15:14Z</time>
      </trkpt>
      <trkpt lat="44.4438" lon="5.78809">
        <ele>813.893311</ele>
        <time>2011-02-06T12:15:15Z</time>
      </trkpt>
      <trkpt lat="44.44368" lon="5.7886">
        <ele>817.258057</ele>
        <time>2011-02-06T12:15:36Z</time>
      </trkpt>
      <trkpt lat="44.44335" lon="5.78902">
        <ele>820.141846</ele>
        <time>2011-02-06T12:15:58Z</time>
      </trkpt>
      <trkpt lat="44.44299" lon="5.78926">
        <ele>823.025879</ele>
        <time>2011-02-06T12:16:19Z</time>
      </trkpt>
      <trkpt lat="44.44252" lon="5.78957">
        <ele>825.428955</ele>
        <time>2011-02-06T12:16:45Z</time>
      </trkpt>
      <trkpt lat="44.44207" lon="5.78976">
        <ele>828.793945</ele>
        <time>2011-02-06T12:17:08Z</time>
      </trkpt>
      <trkpt lat="44.44183" lon="5.7901">
        <ele>832.158447</ele>
        <time>2011-02-06T12:17:25Z</time>
      </trkpt>
      <trkpt lat="44.44156" lon="5.79069">
        <ele>834.081055</ele>
        <time>2011-02-06T12:17:48Z</time>
      </trkpt>
      <trkpt lat="44.44135" lon="5.79117">
        <ele>835.04248</ele>
        <time>2011-02-06T12:18:06Z</time>
      </trkpt>
      <trkpt lat="44.44103" lon="5.79177">
        <ele>835.04248</ele>
        <time>2011-02-06T12:18:23Z</time>
      </trkpt>
      <trkpt lat="44.44096" lon="5.7919">
        <ele>836.484375</ele>
        <time>2011-02-06T12:18:27Z</time>
      </trkpt>
      <trkpt lat="44.44063" lon="5.79242">
        <ele>837.445557</ele>
        <time>2011-02-06T12:18:44Z</time>
      </trkpt>
      <trkpt lat="44.44019" lon="5.79274">
        <ele>841.290771</ele>
        <time>2011-02-06T12:19:03Z</time>
      </trkpt>
      <trkpt lat="44.44017" lon="5.79275">
        <ele>841.290771</ele>
        <time>2011-02-06T12:19:04Z</time>
      </trkpt>
      <trkpt lat="44.4397" lon="5.79295">
        <ele>841.290771</ele>
        <time>2011-02-06T12:19:21Z</time>
      </trkpt>
      <trkpt lat="44.43882" lon="5.79313">
        <ele>840.32959</ele>
        <time>2011-02-06T12:19:44Z</time>
      </trkpt>
      <trkpt lat="44.43819" lon="5.79339">
        <ele>840.32959</ele>
        <time>2011-02-06T12:20:01Z</time>
      </trkpt>
      <trkpt lat="44.43735" lon="5.79382">
        <ele>842.73291</ele>
        <time>2011-02-06T12:20:26Z</time>
      </trkpt>
      <trkpt lat="44.43676" lon="5.79401">
        <ele>841.771484</ele>
        <time>2011-02-06T12:20:43Z</time>
      </trkpt>
      <trkpt lat="44.43608" lon="5.79416">
        <ele>837.92627</ele>
        <time>2011-02-06T12:20:56Z</time>
      </trkpt>
      <trkpt lat="44.43527" lon="5.7945">
        <ele>836.964844</ele>
        <time>2011-02-06T12:21:11Z</time>
      </trkpt>
      <trkpt lat="44.43504" lon="5.79447">
        <ele>834.561768</ele>
        <time>2011-02-06T12:21:15Z</time>
      </trkpt>
      <trkpt lat="44.43471" lon="5.79425">
        <ele>832.158447</ele>
        <time>2011-02-06T12:21:20Z</time>
      </trkpt>
      <trkpt lat="44.43456" lon="5.79416">
        <ele>828.793945</ele>
        <time>2011-02-06T12:21:22Z</time>
      </trkpt>
      <trkpt lat="44.43449" lon="5.7941">
        <ele>828.793945</ele>
        <time>2011-02-06T12:21:23Z</time>
      </trkpt>
      <trkpt lat="44.43434" lon="5.79399">
        <ele>826.871094</ele>
        <time>2011-02-06T12:21:25Z</time>
      </trkpt>
      <trkpt lat="44.43391" lon="5.79371">
        <ele>829.274414</ele>
        <time>2011-02-06T12:21:31Z</time>
      </trkpt>
      <trkpt lat="44.4338" lon="5.79362">
        <ele>831.677734</ele>
        <time>2011-02-06T12:21:34Z</time>
      </trkpt>
      <trkpt lat="44.4336" lon="5.79347">
        <ele>835.04248</ele>
        <time>2011-02-06T12:21:44Z</time>
      </trkpt>
      <trkpt lat="44.4332" lon="5.79321">
        <ele>838.406982</ele>
        <time>2011-02-06T12:22:05Z</time>
      </trkpt>
      <trkpt lat="44.43281" lon="5.79331">
        <ele>836.003662</ele>
        <time>2011-02-06T12:22:19Z</time>
      </trkpt>
      <trkpt lat="44.43265" lon="5.79348">
        <ele>833.119629</ele>
        <time>2011-02-06T12:22:23Z</time>
      </trkpt>
      <trkpt lat="44.43256" lon="5.79362">
        <ele>832.158447</ele>
        <time>2011-02-06T12:22:25Z</time>
      </trkpt>
      <trkpt lat="44.43247" lon="5.79377">
        <ele>830.716553</ele>
        <time>2011-02-06T12:22:27Z</time>
      </trkpt>
      <trkpt lat="44.4323" lon="5.79395">
        <ele>828.793945</ele>
        <time>2011-02-06T12:22:30Z</time>
      </trkpt>
      <trkpt lat="44.43224" lon="5.79398">
        <ele>827.832275</ele>
        <time>2011-02-06T12:22:31Z</time>
      </trkpt>
      <trkpt lat="44.43207" lon="5.79431">
        <ele>825.428955</ele>
        <time>2011-02-06T12:22:36Z</time>
      </trkpt>
      <trkpt lat="44.43183" lon="5.79449">
        <ele>823.025879</ele>
        <time>2011-02-06T12:22:41Z</time>
      </trkpt>
      <trkpt lat="44.43172" lon="5.79449">
        <ele>822.064453</ele>
        <time>2011-02-06T12:22:43Z</time>
      </trkpt>
      <trkpt lat="44.43154" lon="5.7949">
        <ele>819.661377</ele>
        <time>2011-02-06T12:22:50Z</time>
      </trkpt>
      <trkpt lat="44.43154" lon="5.79508">
        <ele>819.180664</ele>
        <time>2011-02-06T12:22:53Z</time>
      </trkpt>
      <trkpt lat="44.43139" lon="5.79502">
        <ele>815.335449</ele>
        <time>2011-02-06T12:22:59Z</time>
      </trkpt>
      <trkpt lat="44.43137" lon="5.79496">
        <ele>815.335449</ele>
        <time>2011-02-06T12:23:00Z</time>
      </trkpt>
      <trkpt lat="44.43138" lon="5.79478">
        <ele>813.893311</ele>
        <time>2011-02-06T12:23:02Z</time>
      </trkpt>
      <trkpt lat="44.43143" lon="5.79461">
        <ele>813.412842</ele>
        <time>2011-02-06T12:23:04Z</time>
      </trkpt>
      <trkpt lat="44.43146" lon="5.79443">
        <ele>810.528564</ele>
        <time>2011-02-06T12:23:06Z</time>
      </trkpt>
      <trkpt lat="44.43147" lon="5.79414">
        <ele>808.605957</ele>
        <time>2011-02-06T12:23:09Z</time>
      </trkpt>
      <trkpt lat="44.43131" lon="5.7938">
        <ele>804.280273</ele>
        <time>2011-02-06T12:23:13Z</time>
      </trkpt>
      <trkpt lat="44.431" lon="5.79348">
        <ele>802.357422</ele>
        <time>2011-02-06T12:23:18Z</time>
      </trkpt>
      <trkpt lat="44.43086" lon="5.79334">
        <ele>799.473633</ele>
        <time>2011-02-06T12:23:20Z</time>
      </trkpt>
      <trkpt lat="44.43066" lon="5.79321">
        <ele>798.512207</ele>
        <time>2011-02-06T12:23:23Z</time>
      </trkpt>
      <trkpt lat="44.43033" lon="5.7932">
        <ele>796.109131</ele>
        <time>2011-02-06T12:23:28Z</time>
      </trkpt>
      <trkpt lat="44.43029" lon="5.79352">
        <ele>794.666748</ele>
        <time>2011-02-06T12:23:34Z</time>
      </trkpt>
      <trkpt lat="44.43036" lon="5.79355">
        <ele>793.705566</ele>
        <time>2011-02-06T12:23:35Z</time>
      </trkpt>
      <trkpt lat="44.43046" lon="5.79363">
        <ele>793.705566</ele>
        <time>2011-02-06T12:23:37Z</time>
      </trkpt>
      <trkpt lat="44.43047" lon="5.79394">
        <ele>791.302246</ele>
        <time>2011-02-06T12:23:41Z</time>
      </trkpt>
      <trkpt lat="44.43037" lon="5.79407">
        <ele>786.976318</ele>
        <time>2011-02-06T12:23:43Z</time>
      </trkpt>
      <trkpt lat="44.43031" lon="5.79413">
        <ele>786.976318</ele>
        <time>2011-02-06T12:23:44Z</time>
      </trkpt>
      <trkpt lat="44.43024" lon="5.79417">
        <ele>786.49585</ele>
        <time>2011-02-06T12:23:45Z</time>
      </trkpt>
      <trkpt lat="44.43013" lon="5.79423">
        <ele>786.49585</ele>
        <time>2011-02-06T12:23:47Z</time>
      </trkpt>
      <trkpt lat="44.43002" lon="5.79453">
        <ele>785.053955</ele>
        <time>2011-02-06T12:23:51Z</time>
      </trkpt>
      <trkpt lat="44.42997" lon="5.79472">
        <ele>783.131104</ele>
        <time>2011-02-06T12:23:53Z</time>
      </trkpt>
      <trkpt lat="44.42988" lon="5.7949">
        <ele>781.20874</ele>
        <time>2011-02-06T12:23:55Z</time>
      </trkpt>
      <trkpt lat="44.42972" lon="5.79513">
        <ele>778.324463</ele>
        <time>2011-02-06T12:23:58Z</time>
      </trkpt>
      <trkpt lat="44.42964" lon="5.79525">
        <ele>778.324463</ele>
        <time>2011-02-06T12:24:00Z</time>
      </trkpt>
      <trkpt lat="44.42942" lon="5.79523">
        <ele>775.921143</ele>
        <time>2011-02-06T12:24:05Z</time>
      </trkpt>
      <trkpt lat="44.42933" lon="5.79501">
        <ele>773.998535</ele>
        <time>2011-02-06T12:24:08Z</time>
      </trkpt>
      <trkpt lat="44.42913" lon="5.79486">
        <ele>771.595215</ele>
        <time>2011-02-06T12:24:11Z</time>
      </trkpt>
      <trkpt lat="44.42899" lon="5.79474">
        <ele>767.75</ele>
        <time>2011-02-06T12:24:13Z</time>
      </trkpt>
      <trkpt lat="44.42892" lon="5.79469">
        <ele>767.75</ele>
        <time>2011-02-06T12:24:14Z</time>
      </trkpt>
      <trkpt lat="44.42886" lon="5.79464">
        <ele>768.711426</ele>
        <time>2011-02-06T12:24:15Z</time>
      </trkpt>
      <trkpt lat="44.42852" lon="5.79467">
        <ele>764.866211</ele>
        <time>2011-02-06T12:24:20Z</time>
      </trkpt>
      <trkpt lat="44.42845" lon="5.79473">
        <ele>764.866211</ele>
        <time>2011-02-06T12:24:21Z</time>
      </trkpt>
      <trkpt lat="44.42839" lon="5.79479">
        <ele>763.424072</ele>
        <time>2011-02-06T12:24:22Z</time>
      </trkpt>
      <trkpt lat="44.42817" lon="5.79498">
        <ele>761.501465</ele>
        <time>2011-02-06T12:24:25Z</time>
      </trkpt>
      <trkpt lat="44.42798" lon="5.79497">
        <ele>760.059326</ele>
        <time>2011-02-06T12:24:27Z</time>
      </trkpt>
      <trkpt lat="44.42763" lon="5.79494">
        <ele>758.617432</ele>
        <time>2011-02-06T12:24:31Z</time>
      </trkpt>
      <trkpt lat="44.42728" lon="5.79518">
        <ele>755.25293</ele>
        <time>2011-02-06T12:24:36Z</time>
      </trkpt>
      <trkpt lat="44.42718" lon="5.79536">
        <ele>755.733643</ele>
        <time>2011-02-06T12:24:38Z</time>
      </trkpt>
      <trkpt lat="44.42712" lon="5.79556">
        <ele>755.733643</ele>
        <time>2011-02-06T12:24:40Z</time>
      </trkpt>
      <trkpt lat="44.42684" lon="5.79593">
        <ele>754.291748</ele>
        <time>2011-02-06T12:24:45Z</time>
      </trkpt>
      <trkpt lat="44.42663" lon="5.79607">
        <ele>752.849609</ele>
        <time>2011-02-06T12:24:48Z</time>
      </trkpt>
      <trkpt lat="44.42598" lon="5.79604">
        <ele>749.485107</ele>
        <time>2011-02-06T12:24:56Z</time>
      </trkpt>
      <trkpt lat="44.42581" lon="5.79601">
        <ele>748.523682</ele>
        <time>2011-02-06T12:24:58Z</time>
      </trkpt>
      <trkpt lat="44.42563" lon="5.79596">
        <ele>747.081543</ele>
        <time>2011-02-06T12:25:00Z</time>
      </trkpt>
      <trkpt lat="44.4246" lon="5.79531">
        <ele>745.639648</ele>
        <time>2011-02-06T12:25:14Z</time>
      </trkpt>
      <trkpt lat="44.42366" lon="5.79488">
        <ele>744.197754</ele>
        <time>2011-02-06T12:25:30Z</time>
      </trkpt>
      <trkpt lat="44.42327" lon="5.79479">
        <ele>740.833008</ele>
        <time>2011-02-06T12:25:36Z</time>
      </trkpt>
      <trkpt lat="44.42272" lon="5.79476">
        <ele>738.910645</ele>
        <time>2011-02-06T12:25:44Z</time>
      </trkpt>
      <trkpt lat="44.42243" lon="5.79478">
        <ele>736.987793</ele>
        <time>2011-02-06T12:25:49Z</time>
      </trkpt>
      <trkpt lat="44.42202" lon="5.79472">
        <ele>736.507324</ele>
        <time>2011-02-06T12:25:58Z</time>
      </trkpt>
      <trkpt lat="44.42186" lon="5.79491">
        <ele>736.507324</ele>
        <time>2011-02-06T12:26:06Z</time>
      </trkpt>
      <trkpt lat="44.42162" lon="5.79529">
        <ele>734.584717</ele>
        <time>2011-02-06T12:26:14Z</time>
      </trkpt>
      <trkpt lat="44.42147" lon="5.79554">
        <ele>737.949219</ele>
        <time>2011-02-06T12:26:22Z</time>
      </trkpt>
      <trkpt lat="44.42145" lon="5.79557">
        <ele>737.949219</ele>
        <time>2011-02-06T12:26:23Z</time>
      </trkpt>
      <trkpt lat="44.42122" lon="5.79609">
        <ele>739.871826</ele>
        <time>2011-02-06T12:26:41Z</time>
      </trkpt>
      <trkpt lat="44.42098" lon="5.79664">
        <ele>742.755859</ele>
        <time>2011-02-06T12:27:00Z</time>
      </trkpt>
      <trkpt lat="44.42069" lon="5.79723">
        <ele>742.275146</ele>
        <time>2011-02-06T12:27:16Z</time>
      </trkpt>
      <trkpt lat="44.4204" lon="5.79768">
        <ele>742.755859</ele>
        <time>2011-02-06T12:27:27Z</time>
      </trkpt>
      <trkpt lat="44.42034" lon="5.7979">
        <ele>743.236328</ele>
        <time>2011-02-06T12:27:31Z</time>
      </trkpt>
      <trkpt lat="44.42024" lon="5.7985">
        <ele>743.236328</ele>
        <time>2011-02-06T12:27:42Z</time>
      </trkpt>
      <trkpt lat="44.42006" lon="5.79868">
        <ele>742.275146</ele>
        <time>2011-02-06T12:27:47Z</time>
      </trkpt>
      <trkpt lat="44.4195" lon="5.79881">
        <ele>741.794434</ele>
        <time>2011-02-06T12:28:02Z</time>
      </trkpt>
      <trkpt lat="44.4195" lon="5.79881">
        <ele>742.755859</ele>
        <time>2011-02-06T12:32:43Z</time>
      </trkpt>
      <trkpt lat="44.41925" lon="5.79915">
        <ele>741.313721</ele>
        <time>2011-02-06T12:32:55Z</time>
      </trkpt>
      <trkpt lat="44.41868" lon="5.79985">
        <ele>741.313721</ele>
        <time>2011-02-06T12:33:14Z</time>
      </trkpt>
      <trkpt lat="44.4183" lon="5.80053">
        <ele>742.755859</ele>
        <time>2011-02-06T12:33:30Z</time>
      </trkpt>
      <trkpt lat="44.41775" lon="5.80125">
        <ele>742.755859</ele>
        <time>2011-02-06T12:33:50Z</time>
      </trkpt>
      <trkpt lat="44.41721" lon="5.8017">
        <ele>741.794434</ele>
        <time>2011-02-06T12:34:03Z</time>
      </trkpt>
      <trkpt lat="44.41708" lon="5.80204">
        <ele>742.275146</ele>
        <time>2011-02-06T12:34:09Z</time>
      </trkpt>
      <trkpt lat="44.41701" lon="5.8025">
        <ele>742.275146</ele>
        <time>2011-02-06T12:34:16Z</time>
      </trkpt>
      <trkpt lat="44.41692" lon="5.80265">
        <ele>742.755859</ele>
        <time>2011-02-06T12:34:19Z</time>
      </trkpt>
      <trkpt lat="44.41628" lon="5.8034">
        <ele>743.717041</ele>
        <time>2011-02-06T12:34:39Z</time>
      </trkpt>
      <trkpt lat="44.41555" lon="5.80443">
        <ele>742.275146</ele>
        <time>2011-02-06T12:35:00Z</time>
      </trkpt>
      <trkpt lat="44.41486" lon="5.80541">
        <ele>742.275146</ele>
        <time>2011-02-06T12:35:19Z</time>
      </trkpt>
      <trkpt lat="44.41473" lon="5.80602">
        <ele>744.678223</ele>
        <time>2011-02-06T12:35:32Z</time>
      </trkpt>
      <trkpt lat="44.41487" lon="5.80653">
        <ele>747.562256</ele>
        <time>2011-02-06T12:35:46Z</time>
      </trkpt>
      <trkpt lat="44.41504" lon="5.80738">
        <ele>749.485107</ele>
        <time>2011-02-06T12:36:08Z</time>
      </trkpt>
      <trkpt lat="44.415" lon="5.80823">
        <ele>752.849609</ele>
        <time>2011-02-06T12:36:30Z</time>
      </trkpt>
      <trkpt lat="44.415" lon="5.80901">
        <ele>754.772217</ele>
        <time>2011-02-06T12:36:49Z</time>
      </trkpt>
      <trkpt lat="44.41499" lon="5.80978">
        <ele>756.214111</ele>
        <time>2011-02-06T12:37:08Z</time>
      </trkpt>
      <trkpt lat="44.41489" lon="5.81054">
        <ele>758.136963</ele>
        <time>2011-02-06T12:37:28Z</time>
      </trkpt>
      <trkpt lat="44.41478" lon="5.81147">
        <ele>760.059326</ele>
        <time>2011-02-06T12:37:54Z</time>
      </trkpt>
      <trkpt lat="44.41471" lon="5.81231">
        <ele>761.501465</ele>
        <time>2011-02-06T12:38:14Z</time>
      </trkpt>
      <trkpt lat="44.41454" lon="5.81298">
        <ele>762.462646</ele>
        <time>2011-02-06T12:38:30Z</time>
      </trkpt>
      <trkpt lat="44.41427" lon="5.81372">
        <ele>764.866211</ele>
        <time>2011-02-06T12:38:51Z</time>
      </trkpt>
      <trkpt lat="44.41406" lon="5.8143">
        <ele>766.788818</ele>
        <time>2011-02-06T12:39:09Z</time>
      </trkpt>
      <trkpt lat="44.41402" lon="5.81442">
        <ele>767.269531</ele>
        <time>2011-02-06T12:39:13Z</time>
      </trkpt>
      <trkpt lat="44.41394" lon="5.81463">
        <ele>769.192139</ele>
        <time>2011-02-06T12:39:20Z</time>
      </trkpt>
      <trkpt lat="44.41374" lon="5.81515">
        <ele>770.15332</ele>
        <time>2011-02-06T12:39:37Z</time>
      </trkpt>
      <trkpt lat="44.41354" lon="5.81575">
        <ele>772.075928</ele>
        <time>2011-02-06T12:39:55Z</time>
      </trkpt>
      <trkpt lat="44.41336" lon="5.81631">
        <ele>773.998535</ele>
        <time>2011-02-06T12:40:13Z</time>
      </trkpt>
      <trkpt lat="44.41321" lon="5.81685">
        <ele>776.882568</ele>
        <time>2011-02-06T12:40:30Z</time>
      </trkpt>
      <trkpt lat="44.41311" lon="5.81717">
        <ele>779.285645</ele>
        <time>2011-02-06T12:40:41Z</time>
      </trkpt>
      <trkpt lat="44.41294" lon="5.81773">
        <ele>781.689209</ele>
        <time>2011-02-06T12:41:00Z</time>
      </trkpt>
      <trkpt lat="44.41282" lon="5.81834">
        <ele>784.092529</ele>
        <time>2011-02-06T12:41:20Z</time>
      </trkpt>
      <trkpt lat="44.41271" lon="5.81915">
        <ele>786.976318</ele>
        <time>2011-02-06T12:41:44Z</time>
      </trkpt>
      <trkpt lat="44.41266" lon="5.81976">
        <ele>789.860352</ele>
        <time>2011-02-06T12:42:03Z</time>
      </trkpt>
      <trkpt lat="44.4129" lon="5.82028">
        <ele>792.744385</ele>
        <time>2011-02-06T12:42:22Z</time>
      </trkpt>
      <trkpt lat="44.41322" lon="5.82086">
        <ele>795.628174</ele>
        <time>2011-02-06T12:42:45Z</time>
      </trkpt>
      <trkpt lat="44.4135" lon="5.8214">
        <ele>797.551025</ele>
        <time>2011-02-06T12:43:06Z</time>
      </trkpt>
      <trkpt lat="44.41381" lon="5.822">
        <ele>800.915527</ele>
        <time>2011-02-06T12:43:29Z</time>
      </trkpt>
      <trkpt lat="44.41408" lon="5.82252">
        <ele>803.799561</ele>
        <time>2011-02-06T12:43:50Z</time>
      </trkpt>
      <trkpt lat="44.41431" lon="5.823">
        <ele>803.799561</ele>
        <time>2011-02-06T12:44:06Z</time>
      </trkpt>
      <trkpt lat="44.41437" lon="5.82318">
        <ele>803.318848</ele>
        <time>2011-02-06T12:44:10Z</time>
      </trkpt>
      <trkpt lat="44.41442" lon="5.8234">
        <ele>802.838135</ele>
        <time>2011-02-06T12:44:14Z</time>
      </trkpt>
      <trkpt lat="44.41456" lon="5.82408">
        <ele>803.799561</ele>
        <time>2011-02-06T12:44:29Z</time>
      </trkpt>
      <trkpt lat="44.41469" lon="5.82482">
        <ele>805.241455</ele>
        <time>2011-02-06T12:44:49Z</time>
      </trkpt>
      <trkpt lat="44.41479" lon="5.8254">
        <ele>809.08667</ele>
        <time>2011-02-06T12:45:06Z</time>
      </trkpt>
      <trkpt lat="44.41488" lon="5.82591">
        <ele>812.451416</ele>
        <time>2011-02-06T12:45:23Z</time>
      </trkpt>
      <trkpt lat="44.41497" lon="5.82639">
        <ele>814.374023</ele>
        <time>2011-02-06T12:45:39Z</time>
      </trkpt>
      <trkpt lat="44.41506" lon="5.82687">
        <ele>816.296631</ele>
        <time>2011-02-06T12:45:55Z</time>
      </trkpt>
      <trkpt lat="44.41508" lon="5.82699">
        <ele>816.777344</ele>
        <time>2011-02-06T12:45:59Z</time>
      </trkpt>
      <trkpt lat="44.4151" lon="5.82711">
        <ele>817.258057</ele>
        <time>2011-02-06T12:46:03Z</time>
      </trkpt>
      <trkpt lat="44.41524" lon="5.82782">
        <ele>820.141846</ele>
        <time>2011-02-06T12:46:27Z</time>
      </trkpt>
      <trkpt lat="44.41539" lon="5.82862">
        <ele>822.545166</ele>
        <time>2011-02-06T12:46:51Z</time>
      </trkpt>
      <trkpt lat="44.41553" lon="5.82934">
        <ele>824.948486</ele>
        <time>2011-02-06T12:47:13Z</time>
      </trkpt>
      <trkpt lat="44.41565" lon="5.8301">
        <ele>825.909668</ele>
        <time>2011-02-06T12:47:33Z</time>
      </trkpt>
      <trkpt lat="44.41573" lon="5.83054">
        <ele>825.428955</ele>
        <time>2011-02-06T12:47:45Z</time>
      </trkpt>
      <trkpt lat="44.41571" lon="5.83085">
        <ele>827.832275</ele>
        <time>2011-02-06T12:47:53Z</time>
      </trkpt>
      <trkpt lat="44.41544" lon="5.83117">
        <ele>830.23584</ele>
        <time>2011-02-06T12:48:10Z</time>
      </trkpt>
      <trkpt lat="44.41527" lon="5.83137">
        <ele>833.119629</ele>
        <time>2011-02-06T12:48:23Z</time>
      </trkpt>
      <trkpt lat="44.41499" lon="5.83175">
        <ele>835.522949</ele>
        <time>2011-02-06T12:48:43Z</time>
      </trkpt>
      <trkpt lat="44.41481" lon="5.83217">
        <ele>839.368164</ele>
        <time>2011-02-06T12:49:04Z</time>
      </trkpt>
      <trkpt lat="44.41476" lon="5.83255">
        <ele>840.810059</ele>
        <time>2011-02-06T12:49:20Z</time>
      </trkpt>
      <trkpt lat="44.41475" lon="5.83305">
        <ele>844.175049</ele>
        <time>2011-02-06T12:49:39Z</time>
      </trkpt>
      <trkpt lat="44.41495" lon="5.83349">
        <ele>846.097656</ele>
        <time>2011-02-06T12:49:59Z</time>
      </trkpt>
      <trkpt lat="44.41523" lon="5.834">
        <ele>848.500732</ele>
        <time>2011-02-06T12:50:22Z</time>
      </trkpt>
      <trkpt lat="44.4153" lon="5.83449">
        <ele>849.942871</ele>
        <time>2011-02-06T12:50:40Z</time>
      </trkpt>
      <trkpt lat="44.4155" lon="5.8351">
        <ele>851.865479</ele>
        <time>2011-02-06T12:51:04Z</time>
      </trkpt>
      <trkpt lat="44.41548" lon="5.83528">
        <ele>851.865479</ele>
        <time>2011-02-06T12:51:08Z</time>
      </trkpt>
      <trkpt lat="44.41515" lon="5.83517">
        <ele>852.345947</ele>
        <time>2011-02-06T12:51:22Z</time>
      </trkpt>
      <trkpt lat="44.41485" lon="5.83509">
        <ele>855.710693</ele>
        <time>2011-02-06T12:51:37Z</time>
      </trkpt>
      <trkpt lat="44.41463" lon="5.83518">
        <ele>858.594482</ele>
        <time>2011-02-06T12:51:50Z</time>
      </trkpt>
      <trkpt lat="44.41426" lon="5.83524">
        <ele>861.959473</ele>
        <time>2011-02-06T12:52:11Z</time>
      </trkpt>
      <trkpt lat="44.4139" lon="5.83513">
        <ele>864.843262</ele>
        <time>2011-02-06T12:52:32Z</time>
      </trkpt>
      <trkpt lat="44.41378" lon="5.83534">
        <ele>867.727051</ele>
        <time>2011-02-06T12:52:45Z</time>
      </trkpt>
      <trkpt lat="44.41373" lon="5.83569">
        <ele>870.130371</ele>
        <time>2011-02-06T12:53:00Z</time>
      </trkpt>
      <trkpt lat="44.41365" lon="5.83607">
        <ele>873.014404</ele>
        <time>2011-02-06T12:53:17Z</time>
      </trkpt>
      <trkpt lat="44.41353" lon="5.8365">
        <ele>875.898193</ele>
        <time>2011-02-06T12:53:36Z</time>
      </trkpt>
      <trkpt lat="44.41331" lon="5.83673">
        <ele>878.782471</ele>
        <time>2011-02-06T12:53:52Z</time>
      </trkpt>
      <trkpt lat="44.4133" lon="5.83706">
        <ele>881.185791</ele>
        <time>2011-02-06T12:54:08Z</time>
      </trkpt>
      <trkpt lat="44.41332" lon="5.83714">
        <ele>882.146973</ele>
        <time>2011-02-06T12:54:12Z</time>
      </trkpt>
      <trkpt lat="44.41341" lon="5.83748">
        <ele>885.031006</ele>
        <time>2011-02-06T12:54:27Z</time>
      </trkpt>
      <trkpt lat="44.41327" lon="5.8378">
        <ele>886.953369</ele>
        <time>2011-02-06T12:54:41Z</time>
      </trkpt>
      <trkpt lat="44.41322" lon="5.83787">
        <ele>887.914795</ele>
        <time>2011-02-06T12:54:45Z</time>
      </trkpt>
      <trkpt lat="44.41305" lon="5.83819">
        <ele>890.798584</ele>
        <time>2011-02-06T12:55:02Z</time>
      </trkpt>
      <trkpt lat="44.41286" lon="5.83854">
        <ele>893.682861</ele>
        <time>2011-02-06T12:55:21Z</time>
      </trkpt>
      <trkpt lat="44.41273" lon="5.83894">
        <ele>896.566895</ele>
        <time>2011-02-06T12:55:41Z</time>
      </trkpt>
      <trkpt lat="44.41249" lon="5.83915">
        <ele>899.931396</ele>
        <time>2011-02-06T12:55:57Z</time>
      </trkpt>
      <trkpt lat="44.41231" lon="5.83919">
        <ele>901.373291</ele>
        <time>2011-02-06T12:56:08Z</time>
      </trkpt>
      <trkpt lat="44.41202" lon="5.83923">
        <ele>904.737793</ele>
        <time>2011-02-06T12:56:26Z</time>
      </trkpt>
      <trkpt lat="44.41182" lon="5.83929">
        <ele>906.6604</ele>
        <time>2011-02-06T12:56:39Z</time>
      </trkpt>
      <trkpt lat="44.41159" lon="5.83923">
        <ele>909.544678</ele>
        <time>2011-02-06T12:56:53Z</time>
      </trkpt>
      <trkpt lat="44.41129" lon="5.83915">
        <ele>911.467285</ele>
        <time>2011-02-06T12:57:12Z</time>
      </trkpt>
      <trkpt lat="44.41105" lon="5.83937">
        <ele>914.351074</ele>
        <time>2011-02-06T12:57:30Z</time>
      </trkpt>
      <trkpt lat="44.41092" lon="5.8395">
        <ele>916.754395</ele>
        <time>2011-02-06T12:57:40Z</time>
      </trkpt>
      <trkpt lat="44.4106" lon="5.83955">
        <ele>919.638428</ele>
        <time>2011-02-06T12:58:00Z</time>
      </trkpt>
      <trkpt lat="44.41029" lon="5.83976">
        <ele>923.00293</ele>
        <time>2011-02-06T12:58:21Z</time>
      </trkpt>
      <trkpt lat="44.41004" lon="5.83986">
        <ele>925.40625</ele>
        <time>2011-02-06T12:58:38Z</time>
      </trkpt>
      <trkpt lat="44.40978" lon="5.83991">
        <ele>928.290283</ele>
        <time>2011-02-06T12:58:54Z</time>
      </trkpt>
      <trkpt lat="44.40968" lon="5.83997">
        <ele>929.251465</ele>
        <time>2011-02-06T12:59:00Z</time>
      </trkpt>
      <trkpt lat="44.40945" lon="5.84015">
        <ele>931.174316</ele>
        <time>2011-02-06T12:59:16Z</time>
      </trkpt>
      <trkpt lat="44.40918" lon="5.84027">
        <ele>931.654785</ele>
        <time>2011-02-06T12:59:32Z</time>
      </trkpt>
      <trkpt lat="44.40873" lon="5.84037">
        <ele>930.693604</ele>
        <time>2011-02-06T12:59:47Z</time>
      </trkpt>
      <trkpt lat="44.40816" lon="5.8405">
        <ele>929.732178</ele>
        <time>2011-02-06T13:00:05Z</time>
      </trkpt>
      <trkpt lat="44.40805" lon="5.84052">
        <ele>929.732178</ele>
        <time>2011-02-06T13:00:18Z</time>
      </trkpt>
      <trkpt lat="44.40805" lon="5.84052">
        <ele>929.732178</ele>
        <time>2011-02-06T13:01:56Z</time>
      </trkpt>
      <trkpt lat="44.40776" lon="5.84059">
        <ele>928.770996</ele>
        <time>2011-02-06T13:02:07Z</time>
      </trkpt>
      <trkpt lat="44.40718" lon="5.84076">
        <ele>931.174316</ele>
        <time>2011-02-06T13:02:26Z</time>
      </trkpt>
      <trkpt lat="44.40714" lon="5.84078">
        <ele>932.135498</ele>
        <time>2011-02-06T13:02:28Z</time>
      </trkpt>
      <trkpt lat="44.40666" lon="5.84134">
        <ele>933.09668</ele>
        <time>2011-02-06T13:02:48Z</time>
      </trkpt>
      <trkpt lat="44.40631" lon="5.84183">
        <ele>935.5</ele>
        <time>2011-02-06T13:03:06Z</time>
      </trkpt>
      <trkpt lat="44.40579" lon="5.84228">
        <ele>937.422607</ele>
        <time>2011-02-06T13:03:30Z</time>
      </trkpt>
      <trkpt lat="44.40541" lon="5.8421">
        <ele>938.384033</ele>
        <time>2011-02-06T13:03:44Z</time>
      </trkpt>
      <trkpt lat="44.40502" lon="5.84175">
        <ele>936.461426</ele>
        <time>2011-02-06T13:03:54Z</time>
      </trkpt>
      <trkpt lat="44.40487" lon="5.8416">
        <ele>934.538818</ele>
        <time>2011-02-06T13:03:57Z</time>
      </trkpt>
      <trkpt lat="44.40482" lon="5.84155">
        <ele>934.058105</ele>
        <time>2011-02-06T13:03:58Z</time>
      </trkpt>
      <trkpt lat="44.40458" lon="5.84141">
        <ele>933.577393</ele>
        <time>2011-02-06T13:04:02Z</time>
      </trkpt>
      <trkpt lat="44.40382" lon="5.84108">
        <ele>929.251465</ele>
        <time>2011-02-06T13:04:14Z</time>
      </trkpt>
      <trkpt lat="44.40351" lon="5.84106">
        <ele>927.329102</ele>
        <time>2011-02-06T13:04:18Z</time>
      </trkpt>
      <trkpt lat="44.40311" lon="5.84125">
        <ele>926.367676</ele>
        <time>2011-02-06T13:04:24Z</time>
      </trkpt>
      <trkpt lat="44.40288" lon="5.84158">
        <ele>927.329102</ele>
        <time>2011-02-06T13:04:30Z</time>
      </trkpt>
      <trkpt lat="44.40281" lon="5.84291">
        <ele>923.483643</ele>
        <time>2011-02-06T13:04:46Z</time>
      </trkpt>
      <trkpt lat="44.40281" lon="5.843">
        <ele>923.483643</ele>
        <time>2011-02-06T13:04:47Z</time>
      </trkpt>
      <trkpt lat="44.40274" lon="5.84337">
        <ele>922.522217</ele>
        <time>2011-02-06T13:04:51Z</time>
      </trkpt>
      <trkpt lat="44.40232" lon="5.84428">
        <ele>919.157715</ele>
        <time>2011-02-06T13:05:02Z</time>
      </trkpt>
      <trkpt lat="44.40185" lon="5.84552">
        <ele>917.715576</ele>
        <time>2011-02-06T13:05:17Z</time>
      </trkpt>
      <trkpt lat="44.40174" lon="5.84592">
        <ele>917.715576</ele>
        <time>2011-02-06T13:05:24Z</time>
      </trkpt>
      <trkpt lat="44.40167" lon="5.84608">
        <ele>916.273682</ele>
        <time>2011-02-06T13:05:27Z</time>
      </trkpt>
      <trkpt lat="44.40163" lon="5.84613">
        <ele>915.793213</ele>
        <time>2011-02-06T13:05:28Z</time>
      </trkpt>
      <trkpt lat="44.40154" lon="5.84623">
        <ele>915.3125</ele>
        <time>2011-02-06T13:05:30Z</time>
      </trkpt>
      <trkpt lat="44.40143" lon="5.84631">
        <ele>914.351074</ele>
        <time>2011-02-06T13:05:32Z</time>
      </trkpt>
      <trkpt lat="44.40116" lon="5.84638">
        <ele>912.428467</ele>
        <time>2011-02-06T13:05:36Z</time>
      </trkpt>
      <trkpt lat="44.40096" lon="5.84642">
        <ele>910.986572</ele>
        <time>2011-02-06T13:05:39Z</time>
      </trkpt>
      <trkpt lat="44.40089" lon="5.84644">
        <ele>911.467285</ele>
        <time>2011-02-06T13:05:40Z</time>
      </trkpt>
      <trkpt lat="44.4006" lon="5.8467">
        <ele>912.428467</ele>
        <time>2011-02-06T13:05:46Z</time>
      </trkpt>
      <trkpt lat="44.40036" lon="5.84718">
        <ele>913.389893</ele>
        <time>2011-02-06T13:05:55Z</time>
      </trkpt>
      <trkpt lat="44.4003" lon="5.84745">
        <ele>912.90918</ele>
        <time>2011-02-06T13:05:59Z</time>
      </trkpt>
      <trkpt lat="44.40028" lon="5.84762">
        <ele>913.870361</ele>
        <time>2011-02-06T13:06:02Z</time>
      </trkpt>
      <trkpt lat="44.40039" lon="5.84824">
        <ele>915.793213</ele>
        <time>2011-02-06T13:06:16Z</time>
      </trkpt>
      <trkpt lat="44.40042" lon="5.84873">
        <ele>917.235107</ele>
        <time>2011-02-06T13:06:29Z</time>
      </trkpt>
      <trkpt lat="44.4003" lon="5.84924">
        <ele>919.157715</ele>
        <time>2011-02-06T13:06:42Z</time>
      </trkpt>
      <trkpt lat="44.39996" lon="5.84994">
        <ele>917.715576</ele>
        <time>2011-02-06T13:06:57Z</time>
      </trkpt>
      <trkpt lat="44.39945" lon="5.85029">
        <ele>918.196289</ele>
        <time>2011-02-06T13:07:12Z</time>
      </trkpt>
      <trkpt lat="44.39913" lon="5.85045">
        <ele>918.677002</ele>
        <time>2011-02-06T13:07:21Z</time>
      </trkpt>
      <trkpt lat="44.39837" lon="5.85053">
        <ele>918.196289</ele>
        <time>2011-02-06T13:07:38Z</time>
      </trkpt>
      <trkpt lat="44.39821" lon="5.85065">
        <ele>917.715576</ele>
        <time>2011-02-06T13:07:42Z</time>
      </trkpt>
      <trkpt lat="44.39809" lon="5.85073">
        <ele>917.715576</ele>
        <time>2011-02-06T13:07:45Z</time>
      </trkpt>
      <trkpt lat="44.39792" lon="5.85082">
        <ele>916.754395</ele>
        <time>2011-02-06T13:07:49Z</time>
      </trkpt>
      <trkpt lat="44.39775" lon="5.85104">
        <ele>917.715576</ele>
        <time>2011-02-06T13:07:55Z</time>
      </trkpt>
      <trkpt lat="44.39787" lon="5.85175">
        <ele>921.080322</ele>
        <time>2011-02-06T13:08:13Z</time>
      </trkpt>
      <trkpt lat="44.39804" lon="5.85233">
        <ele>923.00293</ele>
        <time>2011-02-06T13:08:30Z</time>
      </trkpt>
      <trkpt lat="44.3981" lon="5.85287">
        <ele>924.925781</ele>
        <time>2011-02-06T13:08:45Z</time>
      </trkpt>
      <trkpt lat="44.39811" lon="5.85295">
        <ele>926.367676</ele>
        <time>2011-02-06T13:08:48Z</time>
      </trkpt>
      <trkpt lat="44.39812" lon="5.85301">
        <ele>925.886963</ele>
        <time>2011-02-06T13:08:50Z</time>
      </trkpt>
      <trkpt lat="44.39815" lon="5.85327">
        <ele>926.848389</ele>
        <time>2011-02-06T13:09:00Z</time>
      </trkpt>
      <trkpt lat="44.3982" lon="5.8536">
        <ele>928.770996</ele>
        <time>2011-02-06T13:09:13Z</time>
      </trkpt>
      <trkpt lat="44.39822" lon="5.854">
        <ele>930.693604</ele>
        <time>2011-02-06T13:09:27Z</time>
      </trkpt>
      <trkpt lat="44.39815" lon="5.85451">
        <ele>931.654785</ele>
        <time>2011-02-06T13:09:43Z</time>
      </trkpt>
      <trkpt lat="44.39789" lon="5.85482">
        <ele>931.654785</ele>
        <time>2011-02-06T13:09:58Z</time>
      </trkpt>
      <trkpt lat="44.39763" lon="5.85484">
        <ele>928.770996</ele>
        <time>2011-02-06T13:10:03Z</time>
      </trkpt>
      <trkpt lat="44.39741" lon="5.8548">
        <ele>925.886963</ele>
        <time>2011-02-06T13:10:06Z</time>
      </trkpt>
      <trkpt lat="44.39725" lon="5.85474">
        <ele>923.964111</ele>
        <time>2011-02-06T13:10:08Z</time>
      </trkpt>
      <trkpt lat="44.3971" lon="5.85468">
        <ele>920.599609</ele>
        <time>2011-02-06T13:10:10Z</time>
      </trkpt>
      <trkpt lat="44.39702" lon="5.85465">
        <ele>920.599609</ele>
        <time>2011-02-06T13:10:11Z</time>
      </trkpt>
      <trkpt lat="44.39684" lon="5.85459">
        <ele>918.677002</ele>
        <time>2011-02-06T13:10:13Z</time>
      </trkpt>
      <trkpt lat="44.39666" lon="5.85457">
        <ele>916.273682</ele>
        <time>2011-02-06T13:10:15Z</time>
      </trkpt>
      <trkpt lat="44.39648" lon="5.85454">
        <ele>914.831787</ele>
        <time>2011-02-06T13:10:17Z</time>
      </trkpt>
      <trkpt lat="44.39557" lon="5.85436">
        <ele>912.90918</ele>
        <time>2011-02-06T13:10:28Z</time>
      </trkpt>
      <trkpt lat="44.39535" lon="5.85439">
        <ele>912.90918</ele>
        <time>2011-02-06T13:10:31Z</time>
      </trkpt>
      <trkpt lat="44.39512" lon="5.85458">
        <ele>913.389893</ele>
        <time>2011-02-06T13:10:35Z</time>
      </trkpt>
      <trkpt lat="44.39485" lon="5.85493">
        <ele>913.870361</ele>
        <time>2011-02-06T13:10:41Z</time>
      </trkpt>
      <trkpt lat="44.39464" lon="5.85523">
        <ele>916.754395</ele>
        <time>2011-02-06T13:10:48Z</time>
      </trkpt>
      <trkpt lat="44.39459" lon="5.8553">
        <ele>916.754395</ele>
        <time>2011-02-06T13:10:50Z</time>
      </trkpt>
      <trkpt lat="44.3945" lon="5.85544">
        <ele>916.273682</ele>
        <time>2011-02-06T13:10:53Z</time>
      </trkpt>
      <trkpt lat="44.39443" lon="5.85553">
        <ele>915.3125</ele>
        <time>2011-02-06T13:10:55Z</time>
      </trkpt>
      <trkpt lat="44.39413" lon="5.85579">
        <ele>914.831787</ele>
        <time>2011-02-06T13:11:02Z</time>
      </trkpt>
      <trkpt lat="44.3939" lon="5.85612">
        <ele>917.235107</ele>
        <time>2011-02-06T13:11:10Z</time>
      </trkpt>
      <trkpt lat="44.39352" lon="5.85702">
        <ele>914.831787</ele>
        <time>2011-02-06T13:11:26Z</time>
      </trkpt>
      <trkpt lat="44.39349" lon="5.85715">
        <ele>915.3125</ele>
        <time>2011-02-06T13:11:28Z</time>
      </trkpt>
      <trkpt lat="44.39342" lon="5.85739">
        <ele>915.3125</ele>
        <time>2011-02-06T13:11:32Z</time>
      </trkpt>
      <trkpt lat="44.393" lon="5.85824">
        <ele>915.793213</ele>
        <time>2011-02-06T13:11:49Z</time>
      </trkpt>
      <trkpt lat="44.39274" lon="5.85896">
        <ele>918.677002</ele>
        <time>2011-02-06T13:12:05Z</time>
      </trkpt>
      <trkpt lat="44.39247" lon="5.85971">
        <ele>916.754395</ele>
        <time>2011-02-06T13:12:22Z</time>
      </trkpt>
      <trkpt lat="44.39209" lon="5.86083">
        <ele>913.389893</ele>
        <time>2011-02-06T13:12:37Z</time>
      </trkpt>
      <trkpt lat="44.39207" lon="5.86091">
        <ele>913.870361</ele>
        <time>2011-02-06T13:12:38Z</time>
      </trkpt>
      <trkpt lat="44.39183" lon="5.86147">
        <ele>911.467285</ele>
        <time>2011-02-06T13:12:46Z</time>
      </trkpt>
      <trkpt lat="44.39163" lon="5.86173">
        <ele>909.544678</ele>
        <time>2011-02-06T13:12:50Z</time>
      </trkpt>
      <trkpt lat="44.39145" lon="5.86196">
        <ele>906.6604</ele>
        <time>2011-02-06T13:12:53Z</time>
      </trkpt>
      <trkpt lat="44.39113" lon="5.86236">
        <ele>903.295898</ele>
        <time>2011-02-06T13:12:58Z</time>
      </trkpt>
      <trkpt lat="44.39099" lon="5.86252">
        <ele>901.854004</ele>
        <time>2011-02-06T13:13:00Z</time>
      </trkpt>
      <trkpt lat="44.39048" lon="5.86306">
        <ele>898.008789</ele>
        <time>2011-02-06T13:13:07Z</time>
      </trkpt>
      <trkpt lat="44.39036" lon="5.86325">
        <ele>897.047363</ele>
        <time>2011-02-06T13:13:09Z</time>
      </trkpt>
      <trkpt lat="44.39008" lon="5.86371">
        <ele>894.644043</ele>
        <time>2011-02-06T13:13:14Z</time>
      </trkpt>
      <trkpt lat="44.3898" lon="5.86393">
        <ele>894.644043</ele>
        <time>2011-02-06T13:13:18Z</time>
      </trkpt>
      <trkpt lat="44.38965" lon="5.86401">
        <ele>893.202148</ele>
        <time>2011-02-06T13:13:20Z</time>
      </trkpt>
      <trkpt lat="44.38925" lon="5.86421">
        <ele>890.318115</ele>
        <time>2011-02-06T13:13:25Z</time>
      </trkpt>
      <trkpt lat="44.38859" lon="5.86491">
        <ele>889.837402</ele>
        <time>2011-02-06T13:13:36Z</time>
      </trkpt>
      <trkpt lat="44.38854" lon="5.86497">
        <ele>889.837402</ele>
        <time>2011-02-06T13:13:37Z</time>
      </trkpt>
      <trkpt lat="44.38845" lon="5.86507">
        <ele>890.318115</ele>
        <time>2011-02-06T13:13:39Z</time>
      </trkpt>
      <trkpt lat="44.38821" lon="5.86531">
        <ele>889.356689</ele>
        <time>2011-02-06T13:13:44Z</time>
      </trkpt>
      <trkpt lat="44.38807" lon="5.86542">
        <ele>886.953369</ele>
        <time>2011-02-06T13:13:46Z</time>
      </trkpt>
      <trkpt lat="44.38799" lon="5.86547">
        <ele>884.06958</ele>
        <time>2011-02-06T13:13:47Z</time>
      </trkpt>
      <trkpt lat="44.38791" lon="5.86552">
        <ele>884.06958</ele>
        <time>2011-02-06T13:13:48Z</time>
      </trkpt>
      <trkpt lat="44.38775" lon="5.86563">
        <ele>882.146973</ele>
        <time>2011-02-06T13:13:50Z</time>
      </trkpt>
      <trkpt lat="44.3876" lon="5.86574">
        <ele>878.782471</ele>
        <time>2011-02-06T13:13:52Z</time>
      </trkpt>
      <trkpt lat="44.38752" lon="5.86579">
        <ele>878.782471</ele>
        <time>2011-02-06T13:13:53Z</time>
      </trkpt>
      <trkpt lat="44.38734" lon="5.8659">
        <ele>876.859863</ele>
        <time>2011-02-06T13:13:55Z</time>
      </trkpt>
      <trkpt lat="44.38717" lon="5.866">
        <ele>874.937012</ele>
        <time>2011-02-06T13:13:57Z</time>
      </trkpt>
      <trkpt lat="44.38699" lon="5.8661">
        <ele>870.611084</ele>
        <time>2011-02-06T13:13:59Z</time>
      </trkpt>
      <trkpt lat="44.38689" lon="5.86615">
        <ele>870.611084</ele>
        <time>2011-02-06T13:14:00Z</time>
      </trkpt>
      <trkpt lat="44.38669" lon="5.86625">
        <ele>868.207764</ele>
        <time>2011-02-06T13:14:02Z</time>
      </trkpt>
      <trkpt lat="44.38648" lon="5.86634">
        <ele>865.804688</ele>
        <time>2011-02-06T13:14:04Z</time>
      </trkpt>
      <trkpt lat="44.38617" lon="5.86648">
        <ele>863.881836</ele>
        <time>2011-02-06T13:14:07Z</time>
      </trkpt>
      <trkpt lat="44.38555" lon="5.86677">
        <ele>860.517334</ele>
        <time>2011-02-06T13:14:13Z</time>
      </trkpt>
      <trkpt lat="44.38545" lon="5.86682">
        <ele>860.517334</ele>
        <time>2011-02-06T13:14:14Z</time>
      </trkpt>
      <trkpt lat="44.38449" lon="5.86745">
        <ele>859.555908</ele>
        <time>2011-02-06T13:14:26Z</time>
      </trkpt>
      <trkpt lat="44.3837" lon="5.86813">
        <ele>861.959473</ele>
        <time>2011-02-06T13:14:40Z</time>
      </trkpt>
      <trkpt lat="44.38318" lon="5.8684">
        <ele>858.114014</ele>
        <time>2011-02-06T13:14:49Z</time>
      </trkpt>
      <trkpt lat="44.38302" lon="5.86847">
        <ele>856.671875</ele>
        <time>2011-02-06T13:14:51Z</time>
      </trkpt>
      <trkpt lat="44.38286" lon="5.86855">
        <ele>854.749268</ele>
        <time>2011-02-06T13:14:53Z</time>
      </trkpt>
      <trkpt lat="44.38268" lon="5.86864">
        <ele>852.345947</ele>
        <time>2011-02-06T13:14:55Z</time>
      </trkpt>
      <trkpt lat="44.38242" lon="5.86876">
        <ele>849.462158</ele>
        <time>2011-02-06T13:14:58Z</time>
      </trkpt>
      <trkpt lat="44.38223" lon="5.86882">
        <ele>848.020264</ele>
        <time>2011-02-06T13:15:00Z</time>
      </trkpt>
      <trkpt lat="44.38176" lon="5.8689">
        <ele>846.578369</ele>
        <time>2011-02-06T13:15:07Z</time>
      </trkpt>
      <trkpt lat="44.38161" lon="5.86893">
        <ele>844.655518</ele>
        <time>2011-02-06T13:15:09Z</time>
      </trkpt>
      <trkpt lat="44.38138" lon="5.86891">
        <ele>842.252197</ele>
        <time>2011-02-06T13:15:12Z</time>
      </trkpt>
      <trkpt lat="44.38122" lon="5.86886">
        <ele>840.32959</ele>
        <time>2011-02-06T13:15:14Z</time>
      </trkpt>
      <trkpt lat="44.38114" lon="5.86885">
        <ele>839.368164</ele>
        <time>2011-02-06T13:15:15Z</time>
      </trkpt>
      <trkpt lat="44.38089" lon="5.86888">
        <ele>836.964844</ele>
        <time>2011-02-06T13:15:18Z</time>
      </trkpt>
      <trkpt lat="44.38067" lon="5.86902">
        <ele>834.561768</ele>
        <time>2011-02-06T13:15:21Z</time>
      </trkpt>
      <trkpt lat="44.3804" lon="5.86928">
        <ele>832.158447</ele>
        <time>2011-02-06T13:15:25Z</time>
      </trkpt>
      <trkpt lat="44.38027" lon="5.86941">
        <ele>828.793945</ele>
        <time>2011-02-06T13:15:27Z</time>
      </trkpt>
      <trkpt lat="44.3802" lon="5.86948">
        <ele>828.793945</ele>
        <time>2011-02-06T13:15:28Z</time>
      </trkpt>
      <trkpt lat="44.37991" lon="5.86955">
        <ele>827.832275</ele>
        <time>2011-02-06T13:15:33Z</time>
      </trkpt>
      <trkpt lat="44.37977" lon="5.86953">
        <ele>826.871094</ele>
        <time>2011-02-06T13:15:35Z</time>
      </trkpt>
      <trkpt lat="44.37961" lon="5.8695">
        <ele>824.467773</ele>
        <time>2011-02-06T13:15:37Z</time>
      </trkpt>
      <trkpt lat="44.37944" lon="5.86942">
        <ele>822.064453</ele>
        <time>2011-02-06T13:15:39Z</time>
      </trkpt>
      <trkpt lat="44.37927" lon="5.86933">
        <ele>820.141846</ele>
        <time>2011-02-06T13:15:41Z</time>
      </trkpt>
      <trkpt lat="44.37902" lon="5.86925">
        <ele>818.699951</ele>
        <time>2011-02-06T13:15:44Z</time>
      </trkpt>
      <trkpt lat="44.37884" lon="5.86921">
        <ele>817.258057</ele>
        <time>2011-02-06T13:15:46Z</time>
      </trkpt>
      <trkpt lat="44.37875" lon="5.86919">
        <ele>815.816162</ele>
        <time>2011-02-06T13:15:47Z</time>
      </trkpt>
      <trkpt lat="44.37858" lon="5.86909">
        <ele>814.374023</ele>
        <time>2011-02-06T13:15:49Z</time>
      </trkpt>
      <trkpt lat="44.37834" lon="5.86894">
        <ele>812.451416</ele>
        <time>2011-02-06T13:15:52Z</time>
      </trkpt>
      <trkpt lat="44.378" lon="5.86889">
        <ele>811.009277</ele>
        <time>2011-02-06T13:15:56Z</time>
      </trkpt>
      <trkpt lat="44.37784" lon="5.86883">
        <ele>809.567383</ele>
        <time>2011-02-06T13:15:58Z</time>
      </trkpt>
      <trkpt lat="44.37761" lon="5.86873">
        <ele>807.644775</ele>
        <time>2011-02-06T13:16:01Z</time>
      </trkpt>
      <trkpt lat="44.37733" lon="5.86876">
        <ele>805.241455</ele>
        <time>2011-02-06T13:16:05Z</time>
      </trkpt>
      <trkpt lat="44.37717" lon="5.86887">
        <ele>802.357422</ele>
        <time>2011-02-06T13:16:07Z</time>
      </trkpt>
      <trkpt lat="44.3771" lon="5.86894">
        <ele>800.915527</ele>
        <time>2011-02-06T13:16:08Z</time>
      </trkpt>
      <trkpt lat="44.37687" lon="5.8692">
        <ele>800.915527</ele>
        <time>2011-02-06T13:16:12Z</time>
      </trkpt>
      <trkpt lat="44.37654" lon="5.86938">
        <ele>798.031738</ele>
        <time>2011-02-06T13:16:18Z</time>
      </trkpt>
      <trkpt lat="44.37634" lon="5.86941">
        <ele>796.589844</ele>
        <time>2011-02-06T13:16:21Z</time>
      </trkpt>
      <trkpt lat="44.37621" lon="5.86942">
        <ele>794.666748</ele>
        <time>2011-02-06T13:16:23Z</time>
      </trkpt>
      <trkpt lat="44.37616" lon="5.86942">
        <ele>793.705566</ele>
        <time>2011-02-06T13:16:24Z</time>
      </trkpt>
      <trkpt lat="44.37606" lon="5.8696">
        <ele>793.224854</ele>
        <time>2011-02-06T13:16:30Z</time>
      </trkpt>
      <trkpt lat="44.37616" lon="5.86964">
        <ele>791.302246</ele>
        <time>2011-02-06T13:16:32Z</time>
      </trkpt>
      <trkpt lat="44.37634" lon="5.86971">
        <ele>789.860352</ele>
        <time>2011-02-06T13:16:35Z</time>
      </trkpt>
      <trkpt lat="44.3766" lon="5.87003">
        <ele>786.976318</ele>
        <time>2011-02-06T13:16:40Z</time>
      </trkpt>
      <trkpt lat="44.37666" lon="5.87024">
        <ele>784.573242</ele>
        <time>2011-02-06T13:16:42Z</time>
      </trkpt>
      <trkpt lat="44.37671" lon="5.87045">
        <ele>782.650635</ele>
        <time>2011-02-06T13:16:44Z</time>
      </trkpt>
      <trkpt lat="44.37687" lon="5.87088">
        <ele>780.728027</ele>
        <time>2011-02-06T13:16:49Z</time>
      </trkpt>
      <trkpt lat="44.37702" lon="5.87116">
        <ele>779.766357</ele>
        <time>2011-02-06T13:16:53Z</time>
      </trkpt>
      <trkpt lat="44.37705" lon="5.87123">
        <ele>779.285645</ele>
        <time>2011-02-06T13:16:54Z</time>
      </trkpt>
      <trkpt lat="44.37708" lon="5.87151">
        <ele>776.882568</ele>
        <time>2011-02-06T13:16:58Z</time>
      </trkpt>
      <trkpt lat="44.37713" lon="5.87192">
        <ele>773.518066</ele>
        <time>2011-02-06T13:17:03Z</time>
      </trkpt>
      <trkpt lat="44.37721" lon="5.87208">
        <ele>771.114746</ele>
        <time>2011-02-06T13:17:05Z</time>
      </trkpt>
      <trkpt lat="44.37729" lon="5.87222">
        <ele>769.672852</ele>
        <time>2011-02-06T13:17:07Z</time>
      </trkpt>
      <trkpt lat="44.37735" lon="5.87237">
        <ele>768.230713</ele>
        <time>2011-02-06T13:17:09Z</time>
      </trkpt>
      <trkpt lat="44.37745" lon="5.87253">
        <ele>767.269531</ele>
        <time>2011-02-06T13:17:12Z</time>
      </trkpt>
      <trkpt lat="44.37761" lon="5.8726">
        <ele>764.866211</ele>
        <time>2011-02-06T13:17:15Z</time>
      </trkpt>
      <trkpt lat="44.37772" lon="5.87263">
        <ele>763.424072</ele>
        <time>2011-02-06T13:17:17Z</time>
      </trkpt>
      <trkpt lat="44.3777" lon="5.87291">
        <ele>760.059326</ele>
        <time>2011-02-06T13:17:23Z</time>
      </trkpt>
      <trkpt lat="44.37764" lon="5.87295">
        <ele>760.059326</ele>
        <time>2011-02-06T13:17:24Z</time>
      </trkpt>
      <trkpt lat="44.37738" lon="5.87313">
        <ele>756.214111</ele>
        <time>2011-02-06T13:17:28Z</time>
      </trkpt>
      <trkpt lat="44.37729" lon="5.87316">
        <ele>754.291748</ele>
        <time>2011-02-06T13:17:29Z</time>
      </trkpt>
      <trkpt lat="44.37705" lon="5.87332">
        <ele>749.485107</ele>
        <time>2011-02-06T13:17:32Z</time>
      </trkpt>
      <trkpt lat="44.37698" lon="5.87342">
        <ele>749.485107</ele>
        <time>2011-02-06T13:17:33Z</time>
      </trkpt>
      <trkpt lat="44.37685" lon="5.87362">
        <ele>747.562256</ele>
        <time>2011-02-06T13:17:35Z</time>
      </trkpt>
      <trkpt lat="44.3767" lon="5.8738">
        <ele>746.601074</ele>
        <time>2011-02-06T13:17:37Z</time>
      </trkpt>
      <trkpt lat="44.37644" lon="5.87405">
        <ele>743.717041</ele>
        <time>2011-02-06T13:17:40Z</time>
      </trkpt>
      <trkpt lat="44.37624" lon="5.87424">
        <ele>743.717041</ele>
        <time>2011-02-06T13:17:43Z</time>
      </trkpt>
      <trkpt lat="44.37601" lon="5.8747">
        <ele>741.313721</ele>
        <time>2011-02-06T13:17:49Z</time>
      </trkpt>
      <trkpt lat="44.37602" lon="5.87482">
        <ele>738.910645</ele>
        <time>2011-02-06T13:17:50Z</time>
      </trkpt>
      <trkpt lat="44.37603" lon="5.87507">
        <ele>737.468506</ele>
        <time>2011-02-06T13:17:52Z</time>
      </trkpt>
      <trkpt lat="44.37601" lon="5.87534">
        <ele>735.545898</ele>
        <time>2011-02-06T13:17:54Z</time>
      </trkpt>
      <trkpt lat="44.376" lon="5.87547">
        <ele>734.584717</ele>
        <time>2011-02-06T13:17:55Z</time>
      </trkpt>
      <trkpt lat="44.37603" lon="5.87593">
        <ele>733.623291</ele>
        <time>2011-02-06T13:17:59Z</time>
      </trkpt>
      <trkpt lat="44.3761" lon="5.87614">
        <ele>732.181396</ele>
        <time>2011-02-06T13:18:01Z</time>
      </trkpt>
      <trkpt lat="44.37619" lon="5.87649">
        <ele>728.335938</ele>
        <time>2011-02-06T13:18:04Z</time>
      </trkpt>
      <trkpt lat="44.37623" lon="5.87688">
        <ele>724.01001</ele>
        <time>2011-02-06T13:18:07Z</time>
      </trkpt>
      <trkpt lat="44.37624" lon="5.87701">
        <ele>724.01001</ele>
        <time>2011-02-06T13:18:08Z</time>
      </trkpt>
      <trkpt lat="44.37625" lon="5.87727">
        <ele>722.087402</ele>
        <time>2011-02-06T13:18:10Z</time>
      </trkpt>
      <trkpt lat="44.37625" lon="5.87778">
        <ele>720.645508</ele>
        <time>2011-02-06T13:18:14Z</time>
      </trkpt>
      <trkpt lat="44.37633" lon="5.87814">
        <ele>718.7229</ele>
        <time>2011-02-06T13:18:17Z</time>
      </trkpt>
      <trkpt lat="44.37639" lon="5.87838">
        <ele>716.31958</ele>
        <time>2011-02-06T13:18:19Z</time>
      </trkpt>
      <trkpt lat="44.37644" lon="5.87863">
        <ele>714.877441</ele>
        <time>2011-02-06T13:18:21Z</time>
      </trkpt>
      <trkpt lat="44.3765" lon="5.87887">
        <ele>711.512939</ele>
        <time>2011-02-06T13:18:23Z</time>
      </trkpt>
      <trkpt lat="44.37652" lon="5.87898">
        <ele>711.512939</ele>
        <time>2011-02-06T13:18:24Z</time>
      </trkpt>
      <trkpt lat="44.37656" lon="5.8792">
        <ele>710.070801</ele>
        <time>2011-02-06T13:18:26Z</time>
      </trkpt>
      <trkpt lat="44.37659" lon="5.87943">
        <ele>708.628906</ele>
        <time>2011-02-06T13:18:28Z</time>
      </trkpt>
      <trkpt lat="44.37657" lon="5.87979">
        <ele>705.745117</ele>
        <time>2011-02-06T13:18:31Z</time>
      </trkpt>
      <trkpt lat="44.37656" lon="5.87992">
        <ele>701.899902</ele>
        <time>2011-02-06T13:18:32Z</time>
      </trkpt>
      <trkpt lat="44.37655" lon="5.88006">
        <ele>701.899902</ele>
        <time>2011-02-06T13:18:33Z</time>
      </trkpt>
      <trkpt lat="44.37653" lon="5.88035">
        <ele>700.458008</ele>
        <time>2011-02-06T13:18:35Z</time>
      </trkpt>
      <trkpt lat="44.37651" lon="5.88064">
        <ele>696.612549</ele>
        <time>2011-02-06T13:18:37Z</time>
      </trkpt>
      <trkpt lat="44.3765" lon="5.88079">
        <ele>696.612549</ele>
        <time>2011-02-06T13:18:38Z</time>
      </trkpt>
      <trkpt lat="44.37647" lon="5.8811">
        <ele>695.17041</ele>
        <time>2011-02-06T13:18:40Z</time>
      </trkpt>
      <trkpt lat="44.3764" lon="5.88193">
        <ele>691.325195</ele>
        <time>2011-02-06T13:18:46Z</time>
      </trkpt>
      <trkpt lat="44.3764" lon="5.88207">
        <ele>691.325195</ele>
        <time>2011-02-06T13:18:47Z</time>
      </trkpt>
      <trkpt lat="44.3764" lon="5.88235">
        <ele>689.883301</ele>
        <time>2011-02-06T13:18:49Z</time>
      </trkpt>
      <trkpt lat="44.37649" lon="5.88286">
        <ele>686.999268</ele>
        <time>2011-02-06T13:18:53Z</time>
      </trkpt>
      <trkpt lat="44.37656" lon="5.88322">
        <ele>685.557373</ele>
        <time>2011-02-06T13:18:56Z</time>
      </trkpt>
      <trkpt lat="44.37665" lon="5.88372">
        <ele>680.750732</ele>
        <time>2011-02-06T13:19:00Z</time>
      </trkpt>
      <trkpt lat="44.37697" lon="5.88459">
        <ele>677.866699</ele>
        <time>2011-02-06T13:19:08Z</time>
      </trkpt>
      <trkpt lat="44.37701" lon="5.88467">
        <ele>678.347412</ele>
        <time>2011-02-06T13:19:09Z</time>
      </trkpt>
      <trkpt lat="44.37698" lon="5.88514">
        <ele>676.424805</ele>
        <time>2011-02-06T13:19:14Z</time>
      </trkpt>
      <trkpt lat="44.37671" lon="5.88577">
        <ele>673.060303</ele>
        <time>2011-02-06T13:19:21Z</time>
      </trkpt>
      <trkpt lat="44.37667" lon="5.88586">
        <ele>673.060303</ele>
        <time>2011-02-06T13:19:22Z</time>
      </trkpt>
      <trkpt lat="44.37645" lon="5.88638">
        <ele>669.215088</ele>
        <time>2011-02-06T13:19:27Z</time>
      </trkpt>
      <trkpt lat="44.37636" lon="5.88659">
        <ele>668.734375</ele>
        <time>2011-02-06T13:19:29Z</time>
      </trkpt>
      <trkpt lat="44.376" lon="5.88745">
        <ele>664.888916</ele>
        <time>2011-02-06T13:19:37Z</time>
      </trkpt>
      <trkpt lat="44.37596" lon="5.88755">
        <ele>664.888916</ele>
        <time>2011-02-06T13:19:38Z</time>
      </trkpt>
      <trkpt lat="44.37571" lon="5.88801">
        <ele>664.888916</ele>
        <time>2011-02-06T13:19:43Z</time>
      </trkpt>
      <trkpt lat="44.37455" lon="5.88919">
        <ele>662.966309</ele>
        <time>2011-02-06T13:20:03Z</time>
      </trkpt>
      <trkpt lat="44.37438" lon="5.88942">
        <ele>659.121094</ele>
        <time>2011-02-06T13:20:06Z</time>
      </trkpt>
      <trkpt lat="44.3743" lon="5.88964">
        <ele>657.679199</ele>
        <time>2011-02-06T13:20:08Z</time>
      </trkpt>
      <trkpt lat="44.37427" lon="5.88976">
        <ele>656.237061</ele>
        <time>2011-02-06T13:20:09Z</time>
      </trkpt>
      <trkpt lat="44.37417" lon="5.89023">
        <ele>654.795166</ele>
        <time>2011-02-06T13:20:13Z</time>
      </trkpt>
      <trkpt lat="44.37414" lon="5.89045">
        <ele>653.353271</ele>
        <time>2011-02-06T13:20:15Z</time>
      </trkpt>
      <trkpt lat="44.37419" lon="5.89079">
        <ele>651.911133</ele>
        <time>2011-02-06T13:20:18Z</time>
      </trkpt>
      <trkpt lat="44.37435" lon="5.89116">
        <ele>649.988525</ele>
        <time>2011-02-06T13:20:22Z</time>
      </trkpt>
      <trkpt lat="44.37447" lon="5.89141">
        <ele>649.0271</ele>
        <time>2011-02-06T13:20:25Z</time>
      </trkpt>
      <trkpt lat="44.3746" lon="5.89179">
        <ele>647.104492</ele>
        <time>2011-02-06T13:20:29Z</time>
      </trkpt>
      <trkpt lat="44.37463" lon="5.89221">
        <ele>645.662598</ele>
        <time>2011-02-06T13:20:33Z</time>
      </trkpt>
      <trkpt lat="44.37462" lon="5.89253">
        <ele>642.778809</ele>
        <time>2011-02-06T13:20:36Z</time>
      </trkpt>
      <trkpt lat="44.37457" lon="5.89274">
        <ele>640.855957</ele>
        <time>2011-02-06T13:20:38Z</time>
      </trkpt>
      <trkpt lat="44.3745" lon="5.89305">
        <ele>637.972168</ele>
        <time>2011-02-06T13:20:41Z</time>
      </trkpt>
      <trkpt lat="44.37446" lon="5.89327">
        <ele>636.049561</ele>
        <time>2011-02-06T13:20:43Z</time>
      </trkpt>
      <trkpt lat="44.37443" lon="5.8939">
        <ele>632.204102</ele>
        <time>2011-02-06T13:20:49Z</time>
      </trkpt>
      <trkpt lat="44.37443" lon="5.89401">
        <ele>632.204102</ele>
        <time>2011-02-06T13:20:50Z</time>
      </trkpt>
      <trkpt lat="44.37441" lon="5.89423">
        <ele>630.762207</ele>
        <time>2011-02-06T13:20:52Z</time>
      </trkpt>
      <trkpt lat="44.3744" lon="5.89434">
        <ele>628.8396</ele>
        <time>2011-02-06T13:20:53Z</time>
      </trkpt>
      <trkpt lat="44.37426" lon="5.89477">
        <ele>625.955566</ele>
        <time>2011-02-06T13:20:57Z</time>
      </trkpt>
      <trkpt lat="44.3742" lon="5.89486">
        <ele>624.513672</ele>
        <time>2011-02-06T13:20:58Z</time>
      </trkpt>
      <trkpt lat="44.37403" lon="5.89514">
        <ele>622.591064</ele>
        <time>2011-02-06T13:21:01Z</time>
      </trkpt>
      <trkpt lat="44.37398" lon="5.89537">
        <ele>620.187744</ele>
        <time>2011-02-06T13:21:03Z</time>
      </trkpt>
      <trkpt lat="44.37394" lon="5.8956">
        <ele>618.745605</ele>
        <time>2011-02-06T13:21:05Z</time>
      </trkpt>
      <trkpt lat="44.37378" lon="5.89591">
        <ele>615.861816</ele>
        <time>2011-02-06T13:21:08Z</time>
      </trkpt>
      <trkpt lat="44.37366" lon="5.89612">
        <ele>614.419678</ele>
        <time>2011-02-06T13:21:10Z</time>
      </trkpt>
      <trkpt lat="44.37341" lon="5.89666">
        <ele>611.535889</ele>
        <time>2011-02-06T13:21:15Z</time>
      </trkpt>
      <trkpt lat="44.37312" lon="5.89731">
        <ele>610.09375</ele>
        <time>2011-02-06T13:21:21Z</time>
      </trkpt>
      <trkpt lat="44.37285" lon="5.89761">
        <ele>609.613281</ele>
        <time>2011-02-06T13:21:25Z</time>
      </trkpt>
      <trkpt lat="44.37263" lon="5.89778">
        <ele>608.171387</ele>
        <time>2011-02-06T13:21:28Z</time>
      </trkpt>
      <trkpt lat="44.37234" lon="5.89823">
        <ele>605.768066</ele>
        <time>2011-02-06T13:21:33Z</time>
      </trkpt>
      <trkpt lat="44.37229" lon="5.8984">
        <ele>605.768066</ele>
        <time>2011-02-06T13:21:35Z</time>
      </trkpt>
      <trkpt lat="44.37209" lon="5.89914">
        <ele>603.845215</ele>
        <time>2011-02-06T13:21:45Z</time>
      </trkpt>
      <trkpt lat="44.37204" lon="5.89928">
        <ele>605.768066</ele>
        <time>2011-02-06T13:21:47Z</time>
      </trkpt>
      <trkpt lat="44.37198" lon="5.89946">
        <ele>605.287354</ele>
        <time>2011-02-06T13:21:50Z</time>
      </trkpt>
      <trkpt lat="44.3719" lon="5.89976">
        <ele>607.690674</ele>
        <time>2011-02-06T13:22:00Z</time>
      </trkpt>
      <trkpt lat="44.37198" lon="5.89985">
        <ele>605.768066</ele>
        <time>2011-02-06T13:22:04Z</time>
      </trkpt>
      <trkpt lat="44.37235" lon="5.90036">
        <ele>608.171387</ele>
        <time>2011-02-06T13:22:19Z</time>
      </trkpt>
      <trkpt lat="44.37242" lon="5.90048">
        <ele>609.613281</ele>
        <time>2011-02-06T13:22:22Z</time>
      </trkpt>
      <trkpt lat="44.37291" lon="5.90112">
        <ele>610.09375</ele>
        <time>2011-02-06T13:22:42Z</time>
      </trkpt>
      <trkpt lat="44.37333" lon="5.90166">
        <ele>613.458496</ele>
        <time>2011-02-06T13:23:00Z</time>
      </trkpt>
      <trkpt lat="44.37365" lon="5.90207">
        <ele>615.381104</ele>
        <time>2011-02-06T13:23:14Z</time>
      </trkpt>
      <trkpt lat="44.37404" lon="5.90258">
        <ele>616.342285</ele>
        <time>2011-02-06T13:23:31Z</time>
      </trkpt>
      <trkpt lat="44.37447" lon="5.90316">
        <ele>617.303711</ele>
        <time>2011-02-06T13:23:50Z</time>
      </trkpt>
      <trkpt lat="44.37487" lon="5.90364">
        <ele>619.226318</ele>
        <time>2011-02-06T13:24:07Z</time>
      </trkpt>
      <trkpt lat="44.37509" lon="5.9039">
        <ele>620.187744</ele>
        <time>2011-02-06T13:24:15Z</time>
      </trkpt>
      <trkpt lat="44.3755" lon="5.90448">
        <ele>619.226318</ele>
        <time>2011-02-06T13:24:29Z</time>
      </trkpt>
      <trkpt lat="44.37535" lon="5.90507">
        <ele>620.187744</ele>
        <time>2011-02-06T13:24:41Z</time>
      </trkpt>
      <trkpt lat="44.37531" lon="5.90529">
        <ele>619.707031</ele>
        <time>2011-02-06T13:24:45Z</time>
      </trkpt>
      <trkpt lat="44.3753" lon="5.90535">
        <ele>619.707031</ele>
        <time>2011-02-06T13:24:46Z</time>
      </trkpt>
      <trkpt lat="44.3753" lon="5.90558">
        <ele>621.629639</ele>
        <time>2011-02-06T13:24:50Z</time>
      </trkpt>
      <trkpt lat="44.3753" lon="5.90571">
        <ele>619.707031</ele>
        <time>2011-02-06T13:24:52Z</time>
      </trkpt>
      <trkpt lat="44.37528" lon="5.90597">
        <ele>620.668457</ele>
        <time>2011-02-06T13:24:56Z</time>
      </trkpt>
      <trkpt lat="44.37528" lon="5.90657">
        <ele>624.994385</ele>
        <time>2011-02-06T13:25:09Z</time>
      </trkpt>
      <trkpt lat="44.37528" lon="5.9066">
        <ele>624.994385</ele>
        <time>2011-02-06T13:25:10Z</time>
      </trkpt>
      <trkpt lat="44.37529" lon="5.90715">
        <ele>624.032959</ele>
        <time>2011-02-06T13:25:22Z</time>
      </trkpt>
      <trkpt lat="44.37515" lon="5.90805">
        <ele>626.436279</ele>
        <time>2011-02-06T13:25:41Z</time>
      </trkpt>
      <trkpt lat="44.37529" lon="5.90876">
        <ele>626.916992</ele>
        <time>2011-02-06T13:25:56Z</time>
      </trkpt>
      <trkpt lat="44.37537" lon="5.90909">
        <ele>625.955566</ele>
        <time>2011-02-06T13:26:01Z</time>
      </trkpt>
      <trkpt lat="44.37554" lon="5.90965">
        <ele>624.032959</ele>
        <time>2011-02-06T13:26:08Z</time>
      </trkpt>
      <trkpt lat="44.37562" lon="5.9099">
        <ele>621.629639</ele>
        <time>2011-02-06T13:26:11Z</time>
      </trkpt>
      <trkpt lat="44.37575" lon="5.91029">
        <ele>623.55249</ele>
        <time>2011-02-06T13:26:16Z</time>
      </trkpt>
      <trkpt lat="44.37583" lon="5.91046">
        <ele>624.513672</ele>
        <time>2011-02-06T13:26:19Z</time>
      </trkpt>
      <trkpt lat="44.37591" lon="5.91065">
        <ele>624.513672</ele>
        <time>2011-02-06T13:26:22Z</time>
      </trkpt>
      <trkpt lat="44.37596" lon="5.9108">
        <ele>623.071777</ele>
        <time>2011-02-06T13:26:24Z</time>
      </trkpt>
      <trkpt lat="44.37599" lon="5.91096">
        <ele>622.110352</ele>
        <time>2011-02-06T13:26:26Z</time>
      </trkpt>
      <trkpt lat="44.37607" lon="5.91164">
        <ele>623.071777</ele>
        <time>2011-02-06T13:26:34Z</time>
      </trkpt>
      <trkpt lat="44.37616" lon="5.91203">
        <ele>624.994385</ele>
        <time>2011-02-06T13:26:41Z</time>
      </trkpt>
      <trkpt lat="44.37623" lon="5.91247">
        <ele>625.955566</ele>
        <time>2011-02-06T13:26:51Z</time>
      </trkpt>
      <trkpt lat="44.37606" lon="5.91251">
        <ele>624.994385</ele>
        <time>2011-02-06T13:26:55Z</time>
      </trkpt>
      <trkpt lat="44.37585" lon="5.91241">
        <ele>622.591064</ele>
        <time>2011-02-06T13:26:59Z</time>
      </trkpt>
      <trkpt lat="44.37566" lon="5.91231">
        <ele>619.707031</ele>
        <time>2011-02-06T13:27:02Z</time>
      </trkpt>
      <trkpt lat="44.37553" lon="5.91222">
        <ele>618.745605</ele>
        <time>2011-02-06T13:27:04Z</time>
      </trkpt>
      <trkpt lat="44.37527" lon="5.91196">
        <ele>619.226318</ele>
        <time>2011-02-06T13:27:09Z</time>
      </trkpt>
      <trkpt lat="44.37517" lon="5.91188">
        <ele>617.303711</ele>
        <time>2011-02-06T13:27:11Z</time>
      </trkpt>
      <trkpt lat="44.37485" lon="5.91189">
        <ele>618.264893</ele>
        <time>2011-02-06T13:27:17Z</time>
      </trkpt>
      <trkpt lat="44.37457" lon="5.91206">
        <ele>619.226318</ele>
        <time>2011-02-06T13:27:23Z</time>
      </trkpt>
      <trkpt lat="44.3743" lon="5.91234">
        <ele>616.822998</ele>
        <time>2011-02-06T13:27:29Z</time>
      </trkpt>
      <trkpt lat="44.37409" lon="5.91261">
        <ele>616.822998</ele>
        <time>2011-02-06T13:27:34Z</time>
      </trkpt>
      <trkpt lat="44.37397" lon="5.91278">
        <ele>616.822998</ele>
        <time>2011-02-06T13:27:37Z</time>
      </trkpt>
      <trkpt lat="44.37387" lon="5.91293">
        <ele>615.861816</ele>
        <time>2011-02-06T13:27:40Z</time>
      </trkpt>
      <trkpt lat="44.3739" lon="5.91315">
        <ele>615.381104</ele>
        <time>2011-02-06T13:27:45Z</time>
      </trkpt>
      <trkpt lat="44.37397" lon="5.91333">
        <ele>614.900391</ele>
        <time>2011-02-06T13:27:48Z</time>
      </trkpt>
      <trkpt lat="44.37402" lon="5.91482">
        <ele>612.977783</ele>
        <time>2011-02-06T13:28:06Z</time>
      </trkpt>
      <trkpt lat="44.37404" lon="5.91502">
        <ele>610.09375</ele>
        <time>2011-02-06T13:28:08Z</time>
      </trkpt>
      <trkpt lat="44.37404" lon="5.91512">
        <ele>610.09375</ele>
        <time>2011-02-06T13:28:09Z</time>
      </trkpt>
      <trkpt lat="44.37407" lon="5.91546">
        <ele>606.729248</ele>
        <time>2011-02-06T13:28:12Z</time>
      </trkpt>
      <trkpt lat="44.37408" lon="5.91559">
        <ele>606.729248</ele>
        <time>2011-02-06T13:28:13Z</time>
      </trkpt>
      <trkpt lat="44.3741" lon="5.91583">
        <ele>602.883789</ele>
        <time>2011-02-06T13:28:15Z</time>
      </trkpt>
      <trkpt lat="44.37412" lon="5.91595">
        <ele>602.883789</ele>
        <time>2011-02-06T13:28:16Z</time>
      </trkpt>
      <trkpt lat="44.37442" lon="5.91736">
        <ele>604.326172</ele>
        <time>2011-02-06T13:28:30Z</time>
      </trkpt>
      <trkpt lat="44.37446" lon="5.91752">
        <ele>605.768066</ele>
        <time>2011-02-06T13:28:32Z</time>
      </trkpt>
      <trkpt lat="44.37454" lon="5.91765">
        <ele>605.287354</ele>
        <time>2011-02-06T13:28:34Z</time>
      </trkpt>
      <trkpt lat="44.37474" lon="5.91796">
        <ele>603.364502</ele>
        <time>2011-02-06T13:28:39Z</time>
      </trkpt>
      <trkpt lat="44.37482" lon="5.9181">
        <ele>601.922607</ele>
        <time>2011-02-06T13:28:41Z</time>
      </trkpt>
      <trkpt lat="44.375" lon="5.91857">
        <ele>599.038574</ele>
        <time>2011-02-06T13:28:46Z</time>
      </trkpt>
      <trkpt lat="44.37513" lon="5.91894">
        <ele>598.077393</ele>
        <time>2011-02-06T13:28:50Z</time>
      </trkpt>
      <trkpt lat="44.37527" lon="5.9192">
        <ele>596.154785</ele>
        <time>2011-02-06T13:28:53Z</time>
      </trkpt>
      <trkpt lat="44.37539" lon="5.91932">
        <ele>594.232178</ele>
        <time>2011-02-06T13:28:55Z</time>
      </trkpt>
      <trkpt lat="44.37544" lon="5.91937">
        <ele>593.270752</ele>
        <time>2011-02-06T13:28:56Z</time>
      </trkpt>
      <trkpt lat="44.37566" lon="5.91959">
        <ele>590.867432</ele>
        <time>2011-02-06T13:29:01Z</time>
      </trkpt>
      <trkpt lat="44.37581" lon="5.91981">
        <ele>588.945068</ele>
        <time>2011-02-06T13:29:04Z</time>
      </trkpt>
      <trkpt lat="44.3759" lon="5.9202">
        <ele>586.060791</ele>
        <time>2011-02-06T13:29:08Z</time>
      </trkpt>
      <trkpt lat="44.3758" lon="5.92066">
        <ele>585.580078</ele>
        <time>2011-02-06T13:29:14Z</time>
      </trkpt>
      <trkpt lat="44.37566" lon="5.921">
        <ele>584.138184</ele>
        <time>2011-02-06T13:29:19Z</time>
      </trkpt>
      <trkpt lat="44.37561" lon="5.92167">
        <ele>583.657471</ele>
        <time>2011-02-06T13:29:27Z</time>
      </trkpt>
      <trkpt lat="44.37605" lon="5.92261">
        <ele>583.657471</ele>
        <time>2011-02-06T13:29:41Z</time>
      </trkpt>
      <trkpt lat="44.37615" lon="5.92276">
        <ele>582.696289</ele>
        <time>2011-02-06T13:29:44Z</time>
      </trkpt>
      <trkpt lat="44.37627" lon="5.92294">
        <ele>585.099609</ele>
        <time>2011-02-06T13:29:48Z</time>
      </trkpt>
      <trkpt lat="44.37641" lon="5.92313">
        <ele>586.541504</ele>
        <time>2011-02-06T13:29:53Z</time>
      </trkpt>
      <trkpt lat="44.37666" lon="5.92348">
        <ele>587.983398</ele>
        <time>2011-02-06T13:30:03Z</time>
      </trkpt>
      <trkpt lat="44.37663" lon="5.92355">
        <ele>587.021973</ele>
        <time>2011-02-06T13:30:07Z</time>
      </trkpt>
      <trkpt lat="44.37657" lon="5.92363">
        <ele>585.580078</ele>
        <time>2011-02-06T13:30:09Z</time>
      </trkpt>
      <trkpt lat="44.37642" lon="5.92383">
        <ele>583.176758</ele>
        <time>2011-02-06T13:30:13Z</time>
      </trkpt>
      <trkpt lat="44.37605" lon="5.92426">
        <ele>581.734863</ele>
        <time>2011-02-06T13:30:21Z</time>
      </trkpt>
      <trkpt lat="44.37502" lon="5.92535">
        <ele>579.331543</ele>
        <time>2011-02-06T13:30:40Z</time>
      </trkpt>
      <trkpt lat="44.3742" lon="5.92615">
        <ele>580.292969</ele>
        <time>2011-02-06T13:30:58Z</time>
      </trkpt>
      <trkpt lat="44.37392" lon="5.92647">
        <ele>578.851074</ele>
        <time>2011-02-06T13:31:07Z</time>
      </trkpt>
      <trkpt lat="44.37384" lon="5.92658">
        <ele>580.292969</ele>
        <time>2011-02-06T13:31:17Z</time>
      </trkpt>
      <trkpt lat="44.37384" lon="5.92658">
        <ele>580.292969</ele>
        <time>2011-02-06T13:31:18Z</time>
      </trkpt>
      <trkpt lat="44.37386" lon="5.92673">
        <ele>581.254395</ele>
        <time>2011-02-06T13:31:23Z</time>
      </trkpt>
      <trkpt lat="44.37391" lon="5.92677">
        <ele>581.254395</ele>
        <time>2011-02-06T13:31:25Z</time>
      </trkpt>
      <trkpt lat="44.37461" lon="5.92725">
        <ele>580.292969</ele>
        <time>2011-02-06T13:31:42Z</time>
      </trkpt>
      <trkpt lat="44.37559" lon="5.92791">
        <ele>579.331543</ele>
        <time>2011-02-06T13:32:00Z</time>
      </trkpt>
      <trkpt lat="44.37685" lon="5.92877">
        <ele>578.370361</ele>
        <time>2011-02-06T13:32:21Z</time>
      </trkpt>
      <trkpt lat="44.37814" lon="5.92964">
        <ele>577.40918</ele>
        <time>2011-02-06T13:32:40Z</time>
      </trkpt>
      <trkpt lat="44.37947" lon="5.93055">
        <ele>577.40918</ele>
        <time>2011-02-06T13:33:00Z</time>
      </trkpt>
      <trkpt lat="44.3809" lon="5.93162">
        <ele>580.292969</ele>
        <time>2011-02-06T13:33:25Z</time>
      </trkpt>
      <trkpt lat="44.38199" lon="5.93238">
        <ele>581.254395</ele>
        <time>2011-02-06T13:33:46Z</time>
      </trkpt>
      <trkpt lat="44.38209" lon="5.93246">
        <ele>581.734863</ele>
        <time>2011-02-06T13:33:48Z</time>
      </trkpt>
      <trkpt lat="44.38323" lon="5.93322">
        <ele>579.331543</ele>
        <time>2011-02-06T13:34:07Z</time>
      </trkpt>
      <trkpt lat="44.38452" lon="5.93411">
        <ele>578.851074</ele>
        <time>2011-02-06T13:34:28Z</time>
      </trkpt>
      <trkpt lat="44.38595" lon="5.93514">
        <ele>581.734863</ele>
        <time>2011-02-06T13:34:55Z</time>
      </trkpt>
      <trkpt lat="44.38655" lon="5.93558">
        <ele>585.580078</ele>
        <time>2011-02-06T13:35:13Z</time>
      </trkpt>
      <trkpt lat="44.3866" lon="5.93561">
        <ele>586.541504</ele>
        <time>2011-02-06T13:35:15Z</time>
      </trkpt>
      <trkpt lat="44.38682" lon="5.93576">
        <ele>588.945068</ele>
        <time>2011-02-06T13:35:24Z</time>
      </trkpt>
      <trkpt lat="44.38706" lon="5.93619">
        <ele>586.060791</ele>
        <time>2011-02-06T13:35:40Z</time>
      </trkpt>
      <trkpt lat="44.38701" lon="5.9374">
        <ele>584.138184</ele>
        <time>2011-02-06T13:35:58Z</time>
      </trkpt>
      <trkpt lat="44.38698" lon="5.93781">
        <ele>581.734863</ele>
        <time>2011-02-06T13:36:03Z</time>
      </trkpt>
      <trkpt lat="44.38697" lon="5.93798">
        <ele>583.176758</ele>
        <time>2011-02-06T13:36:05Z</time>
      </trkpt>
      <trkpt lat="44.38694" lon="5.93826">
        <ele>580.292969</ele>
        <time>2011-02-06T13:36:08Z</time>
      </trkpt>
      <trkpt lat="44.38693" lon="5.93847">
        <ele>578.851074</ele>
        <time>2011-02-06T13:36:10Z</time>
      </trkpt>
      <trkpt lat="44.38697" lon="5.93872">
        <ele>578.370361</ele>
        <time>2011-02-06T13:36:12Z</time>
      </trkpt>
      <trkpt lat="44.38686" lon="5.93891">
        <ele>576.928467</ele>
        <time>2011-02-06T13:36:15Z</time>
      </trkpt>
      <trkpt lat="44.38664" lon="5.93908">
        <ele>575.967041</ele>
        <time>2011-02-06T13:36:19Z</time>
      </trkpt>
      <trkpt lat="44.38641" lon="5.93912">
        <ele>572.121826</ele>
        <time>2011-02-06T13:36:22Z</time>
      </trkpt>
      <trkpt lat="44.38624" lon="5.93915">
        <ele>570.679688</ele>
        <time>2011-02-06T13:36:24Z</time>
      </trkpt>
      <trkpt lat="44.38615" lon="5.93916">
        <ele>567.315186</ele>
        <time>2011-02-06T13:36:25Z</time>
      </trkpt>
      <trkpt lat="44.38607" lon="5.93918">
        <ele>567.315186</ele>
        <time>2011-02-06T13:36:26Z</time>
      </trkpt>
      <trkpt lat="44.38581" lon="5.93925">
        <ele>565.392578</ele>
        <time>2011-02-06T13:36:29Z</time>
      </trkpt>
      <trkpt lat="44.38534" lon="5.93934">
        <ele>562.508545</ele>
        <time>2011-02-06T13:36:35Z</time>
      </trkpt>
      <trkpt lat="44.38527" lon="5.93935">
        <ele>562.508545</ele>
        <time>2011-02-06T13:36:36Z</time>
      </trkpt>
      <trkpt lat="44.38502" lon="5.9397">
        <ele>562.989258</ele>
        <time>2011-02-06T13:36:43Z</time>
      </trkpt>
      <trkpt lat="44.38502" lon="5.93978">
        <ele>562.989258</ele>
        <time>2011-02-06T13:36:44Z</time>
      </trkpt>
      <trkpt lat="44.38504" lon="5.94093">
        <ele>567.315186</ele>
        <time>2011-02-06T13:37:02Z</time>
      </trkpt>
      <trkpt lat="44.38504" lon="5.94099">
        <ele>567.315186</ele>
        <time>2011-02-06T13:37:03Z</time>
      </trkpt>
      <trkpt lat="44.385" lon="5.94148">
        <ele>565.392578</ele>
        <time>2011-02-06T13:37:11Z</time>
      </trkpt>
      <trkpt lat="44.38491" lon="5.94225">
        <ele>565.392578</ele>
        <time>2011-02-06T13:37:25Z</time>
      </trkpt>
      <trkpt lat="44.3849" lon="5.9423">
        <ele>565.392578</ele>
        <time>2011-02-06T13:37:26Z</time>
      </trkpt>
      <trkpt lat="44.38489" lon="5.94248">
        <ele>566.35376</ele>
        <time>2011-02-06T13:37:29Z</time>
      </trkpt>
      <trkpt lat="44.38491" lon="5.9426">
        <ele>564.911865</ele>
        <time>2011-02-06T13:37:31Z</time>
      </trkpt>
      <trkpt lat="44.38494" lon="5.94272">
        <ele>564.431152</ele>
        <time>2011-02-06T13:37:33Z</time>
      </trkpt>
      <trkpt lat="44.38524" lon="5.94335">
        <ele>564.431152</ele>
        <time>2011-02-06T13:37:46Z</time>
      </trkpt>
      <trkpt lat="44.38552" lon="5.94372">
        <ele>565.392578</ele>
        <time>2011-02-06T13:37:58Z</time>
      </trkpt>
      <trkpt lat="44.38564" lon="5.94388">
        <ele>565.392578</ele>
        <time>2011-02-06T13:38:10Z</time>
      </trkpt>
      <trkpt lat="44.38564" lon="5.94388">
        <ele>565.873291</ele>
        <time>2011-02-06T13:38:36Z</time>
      </trkpt>
    </trkseg>
  </trk>
</gpx>